[[{"header":{"parameterUnit":"m.s-1","parameterCategory":1,"la1":31.0,"la2":29.5877,"lo1":-88.7671,"lo2":-86.6584,"dy":0.0162,"dx":0.0185,"nx":115,"ny":88,"refTime":"2023-09-18T06:00:00:Z","depth":0,"parameterNumber":2,"parameterNumberName":"U-component_of_WINDS"},"data":[0.0,0.0,0.0,0.0,0.0,0.0,0.0,0.0,0.0,0.0,0.0,0.0,0.0,0.0,0.0,0.0,0.0,0.0,0.0,0.0,0.0,0.0,0.0,0.0,0.0,0.0,0.0,0.0,0.0,0.0,0.0,0.0,0.0,0.0,0.0,0.0,0.0,0.0,0.0,0.0,0.0,0.0,0.0,0.0,0.0,0.0,0.0,0.0,0.0,0.0,0.0,0.0,0.0,0.0,0.0,0.0,0.0,0.0,0.0,0.0,0.0,0.0,0.0,0.0,0.0,0.0,0.0,0.0,0.0,0.0,0.0,0.0,0.0,0.0,0.0,0.0,0.0,0.0,0.0,0.0,0.0,0.0,0.0,0.0,0.0,0.0,0.0,0.0,0.0,0.0,0.0,0.0,0.0,0.0,0.0,0.0,0.0,0.0,0.0,0.0,0.0,0.0,0.0,0.0,0.0,0.0,0.0,0.0,0.0,0.0,0.0,0.0,0.0,0.0,0.0,0.0,0.0,0.0,0.0,0.0,0.0,0.0,0.0,0.0,0.0,0.0,0.0,0.0,0.0,0.0,0.0,0.0,0.0,0.0,0.0,0.0,0.0,0.0,0.0,0.0,0.0,0.0,0.0,0.0,0.0,0.0,0.0,0.0,0.0,0.0,0.0,0.0,0.0,0.0,0.0,0.0,0.0,0.0,0.0,0.0,0.0,0.0,0.0,0.0,0.0,0.0,0.0,0.0,0.0,0.0,0.0,0.0,0.0,0.0,0.0,0.0,0.0,0.0,0.0,0.0,0.0,0.0,0.0,0.0,0.0,0.0,0.0,0.0,0.0,0.0,0.0,0.0,0.0,0.0,0.0,0.0,0.0,0.0,0.0,0.0,0.0,0.0,0.0,0.0,0.0,0.0,0.0,0.0,0.0,0.0,0.0,0.0,0.0,0.0,0.0,0.0,0.0,0.0,0.0,0.0,0.0,0.0,0.0,0.0,0.0,0.0,0.0,0.0,0.0,0.0,0.0,0.0,0.0,0.0,0.0,0.0,0.0,0.0,0.0,0.0,0.0,0.0,0.0,0.0,0.0,0.0,0.0,0.0,0.0,0.0,0.0,0.0,0.0,0.0,0.0,0.0,0.0,0.0,0.0,0.0,0.0,0.0,0.0,0.0,0.0,0.0,0.0,0.0,0.0,0.0,0.0,0.0,0.0,0.0,0.0,0.0,0.0,0.0,0.0,0.0,0.0,0.0,0.0,0.0,0.0,0.0,0.0,0.0,0.0,0.0,0.0,0.0,0.0,0.0,0.0,0.0,0.0,0.0,0.0,0.0,0.0,0.0,0.0,0.0,0.0,0.0,0.0,0.0,0.0,0.0,0.0,0.0,0.0,0.0,0.0,0.0,0.0,0.0,0.0,0.0,0.0,0.0,0.0,0.0,0.0,0.0,0.0,0.0,0.0,0.0,0.0,0.0,0.0,0.0,0.0,0.0,0.0,0.0,0.0,0.0,0.0,0.0,0.0,0.0,0.0,0.0,0.0,0.0,0.0,0.0,0.0,0.0,0.0,0.0,0.0,0.0,0.0,0.0,0.0,0.0,0.0,0.0,0.0,0.0,0.0,0.0,0.0,0.0,0.0,0.0,0.0,0.0,0.0,0.0,0.0,0.0,0.0,0.0,0.0,0.0,0.0,0.0,0.0,0.0,0.0,0.0,0.0,0.0,0.0,0.0,0.0,0.0,0.0,0.0,0.0,0.0,0.0,0.0,0.0,0.0,0.0,0.0,0.0,0.0,0.0,0.0,0.0,0.0,0.0,0.0,0.0,0.0,0.0,0.0,0.0,0.0,0.0,0.0,0.0,0.0,0.0,0.0,0.0,0.0,0.0,0.0,0.0,0.0,0.0,0.0,0.0,0.0,0.0,0.0,0.0,0.0,0.0,0.0,0.0,0.0,0.0,0.0,0.0,0.0,0.0,0.0,0.0,0.0,0.0,0.0,0.0,0.0,0.0,0.0,0.0,0.0,0.0,0.0,0.0,0.0,0.0,0.0,0.0,0.0,0.0,0.0,0.0,0.0,0.0,0.0,0.0,0.0,0.0,0.0,0.0,0.0,0.0,0.0,0.0,0.0,0.0,0.0,0.0,0.0,0.0,0.0,0.0,0.0,0.0,0.0,0.0,0.0,0.0,0.0,0.0,0.0,0.0,0.0,0.0,0.0,0.0,0.0,0.0,0.0,0.0,0.0,0.0,0.0,0.0,0.0,0.0,0.0,0.0,0.0,0.0,0.0,0.0,0.0,0.0,0.0,0.0,0.0,0.0,0.0,0.0,0.0,0.0,0.0,0.0,0.0,0.0,0.0,0.0,0.0,0.0,0.0,0.0,0.0,0.0,0.0,0.0,0.0,0.0,0.0,0.0,0.0,0.0,0.0,0.0,0.0,0.0,0.0,0.0,0.0,0.0,0.0,0.0,0.0,0.0,0.0,0.0,0.0,0.0,0.0,0.0,0.0,0.0,0.0,0.0,0.0,0.0,0.0,0.0,0.0,0.0,0.0,0.0,0.0,0.0,0.0,0.0,0.0,0.0,0.0,0.0,0.0,0.0,0.0,0.0,0.0,0.0,0.0,0.0,0.0,0.0,0.0,0.0,0.0,0.0,0.0,0.0,0.0,0.0,0.0,0.0,0.0,0.0,0.0,0.0,0.0,0.0,0.0,0.0,0.0,0.0,0.0,0.0,0.0,0.0,0.0,0.0,0.0,0.0,0.0,0.0,0.0,0.0,0.0,0.0,0.0,0.0,0.0,0.0,0.0,0.0,0.0,0.0,0.0,0.0,0.0,0.0,0.0,0.0,0.0,0.0,0.0,0.0,0.0,0.0,0.0,0.0,0.0,0.0,0.0,0.0,0.0,0.0,0.0,0.0,0.0,0.0,0.0,0.0,0.0,0.0,0.0,0.0,0.0,0.0,0.0,0.0,0.0,0.0,0.0,0.0,0.0,0.0,0.0,0.0,0.0,0.0,0.0,0.0,0.0,0.0,0.0,0.0,0.0,0.0,0.0,0.0,0.0,0.0,0.0,0.0,0.0,0.0,0.0,0.0,0.0,0.0,0.0,0.0,0.0,0.0,0.0,0.0,0.0,0.0,0.0,0.0,0.0,0.0,0.0,0.0,0.0,0.0,0.0,0.0,0.0,0.0,0.0,0.0,0.0,0.0,0.0,0.0,0.0,0.0,0.0,0.0,0.0,0.0,0.0,0.0,0.0,0.0,0.0,0.0,0.0,0.0,0.0,0.0,0.0,0.0,0.0,0.0,0.0,0.0,0.0,0.0,0.0,0.0,0.0,0.0,0.0,0.0,0.0,0.0,0.0,0.0,0.0,0.0,0.0,0.0,0.0,0.0,0.0,0.0,0.0,0.0,0.0,0.0,0.0,0.0,0.0,0.0,0.0,0.0,0.0,0.0,0.0,0.0,0.0,0.0,0.0,0.0,0.0,0.0,0.0,0.0,0.0,0.0,0.0,0.0,0.0,0.0,0.0,0.0,0.0,0.0,0.0,0.0,0.0,0.0,0.0,0.0,0.0,0.0,0.0,0.0,0.0,0.0,0.0,0.0,0.0,0.0,0.0,0.0,0.0,0.0,0.0,0.0,0.0,0.0,0.0,0.0,0.0,0.0,0.0,0.0,0.0,0.0,0.0,0.0,0.0,0.0,0.0,0.0,0.0,0.0,0.0,0.0,0.0,0.0,0.0,0.0,0.0,0.0,0.0,0.0,0.0,0.0,0.0,0.0,0.0,0.0,0.0,0.0,0.0,0.0,0.0,0.0,0.0,0.0,0.0,0.0,0.0,0.0,0.0,0.0,0.0,0.0,0.0,0.0,0.0,0.0,0.0,0.0,0.0,0.0,0.0,0.0,0.0,0.0,0.0,0.0,0.0,0.0,0.0,0.0,0.0,0.0,0.0,0.0,0.0,0.0,0.0,0.0,0.0,0.0,0.0,0.0,0.0,0.0,0.0,0.0,0.0,0.0,0.0,0.0,0.0,0.0,0.0,0.0,0.0,0.0,0.0,0.0,0.0,0.0,0.0,0.0,0.0,0.0,0.0,0.0,0.0,0.0,0.0,0.0,0.0,0.0,0.0,0.0,0.0,0.0,0.0,0.0,0.0,0.0,0.0,0.0,0.0,0.0,0.0,0.0,0.0,0.0,0.0,0.0,0.0,0.0,0.0,0.0,0.0,0.0,0.0,0.0,0.0,0.0,0.0,0.0,0.0,0.0,0.0,1.5585,0.0,0.0,0.0,0.0,0.0,0.0,0.0,0.0,0.0,0.0,0.0,0.0,0.0,0.0,0.0,0.0,0.0,0.0,0.0,0.0,0.0,0.0,0.0,0.0,0.0,0.0,0.0,0.0,0.0,0.0,0.0,0.0,0.0,0.0,0.0,0.0,0.0,0.0,0.0,0.0,0.0,0.0,0.0,0.0,0.0,0.0,0.0,0.0,0.0,0.0,0.0,0.0,0.0,0.0,0.0,0.0,0.0,0.0,0.0,0.0,0.0,0.0,0.0,0.0,0.0,0.0,0.0,0.0,0.0,0.0,0.0,0.0,0.0,0.0,0.0,0.0,0.0,0.0,0.0,0.0,0.0,0.0,0.0,0.0,0.0,0.0,0.0,0.0,0.0,0.0,0.0,0.0,0.0,0.0,0.0,0.0,0.0,0.0,0.0,0.0,0.0,0.0,0.0,0.0,0.0,0.0,0.0,0.0,0.0,0.0,1.5815,1.5815,1.5815,1.5782,1.5749,0.0,0.0,0.0,0.0,0.0,0.0,0.0,0.0,0.0,0.0,0.0,0.0,0.0,0.0,0.0,0.0,0.0,0.0,0.0,0.0,0.0,0.0,0.0,0.0,0.0,0.0,0.0,0.0,0.0,0.0,0.0,0.0,0.0,0.0,0.0,0.0,0.0,0.0,0.0,0.0,0.0,0.0,0.0,0.0,0.0,0.0,0.0,0.0,0.0,0.0,0.0,0.0,0.0,0.0,0.0,0.0,0.0,0.0,0.0,0.0,0.0,0.0,0.0,0.0,0.0,0.0,0.0,0.0,0.0,0.0,0.0,0.0,0.0,0.0,0.0,0.0,0.0,0.0,0.0,0.0,0.0,0.0,0.0,0.0,0.0,0.0,0.0,0.0,0.0,0.0,0.0,0.0,0.0,0.0,0.0,0.0,0.0,0.0,0.0,0.0,0.0,0.0,0.0,0.0,0.0,0.0,0.0,0.0,0.0,0.0,0.0,0.0,1.5815,1.5804,1.5782,0.0,0.0,0.0,0.0,0.0,0.0,0.0,0.0,0.0,0.0,0.0,0.0,0.0,0.0,0.0,0.0,0.0,0.0,0.0,0.0,0.0,0.0,0.0,0.0,0.0,0.0,0.0,0.0,0.0,0.0,0.0,0.0,0.0,0.0,0.0,0.0,0.0,0.0,0.0,0.0,0.0,0.0,0.0,0.0,0.0,0.0,0.0,0.0,0.0,0.0,0.0,0.0,0.0,0.0,0.0,0.0,0.0,0.0,0.0,0.0,0.0,0.0,0.0,0.0,0.0,0.0,0.0,0.0,0.0,0.0,0.0,0.0,0.0,0.0,0.0,0.0,0.0,0.0,0.0,0.0,0.0,0.0,0.0,0.0,0.0,0.0,0.0,0.0,0.0,0.0,0.0,0.0,0.0,0.0,0.0,0.0,0.0,0.0,0.0,0.0,0.0,0.0,0.0,0.0,0.0,0.0,0.0,0.0,0.0,0.0,1.5815,1.5815,1.5815,0.0,1.5715,0.0,0.0,0.0,0.0,0.0,0.0,0.0,0.0,0.0,0.0,0.0,0.0,0.0,0.0,0.0,0.0,0.0,0.0,0.0,0.0,0.0,0.0,0.0,0.0,0.0,0.0,0.0,0.0,0.0,0.0,0.0,0.0,0.0,0.0,0.0,0.0,0.0,0.0,0.0,0.0,0.0,0.0,0.0,0.0,0.0,0.0,0.0,0.0,0.0,0.0,0.0,0.0,0.0,0.0,0.0,0.0,0.0,0.0,0.0,0.0,0.0,0.0,0.0,0.0,0.0,0.0,0.0,0.0,0.0,0.0,0.0,0.0,0.0,0.0,0.0,0.0,0.0,0.0,0.0,0.0,0.0,0.0,0.0,0.0,0.0,0.0,0.0,0.0,0.0,0.0,0.0,0.0,0.0,0.0,0.0,0.0,0.0,0.0,0.0,0.0,0.0,0.0,0.0,0.0,0.0,0.0,0.0,0.0,0.0,0.0,1.5815,1.5815,1.5815,1.5782,0.0,0.0,0.0,0.0,0.0,0.0,0.0,0.0,0.0,0.0,0.0,0.0,0.0,0.0,0.0,0.0,0.0,0.0,0.0,0.0,0.0,0.0,0.0,0.0,0.0,0.0,0.0,0.0,0.0,0.0,0.0,0.0,0.0,0.0,0.0,0.0,0.0,0.0,0.0,0.0,0.0,0.0,0.0,0.0,0.0,0.0,0.0,0.0,0.0,0.0,0.0,0.0,0.0,0.0,0.0,0.0,0.0,0.0,0.0,0.0,0.0,0.0,0.0,0.0,0.0,0.0,0.0,0.0,0.0,0.0,0.0,0.0,0.0,0.0,0.0,0.0,0.0,0.0,0.0,0.0,0.0,0.0,0.0,0.0,0.0,0.0,0.0,0.0,0.0,0.0,0.0,0.0,0.0,0.0,0.0,0.0,0.0,0.0,0.0,0.0,0.0,0.0,0.0,0.0,0.0,0.0,0.0,0.0,0.0,0.0,1.5815,1.5815,1.5815,1.5815,1.5815,1.5815,0.0,0.0,0.0,0.0,0.0,0.0,0.0,0.0,0.0,0.0,0.0,0.0,0.0,0.0,0.0,0.0,0.0,0.0,0.0,0.0,0.0,0.0,0.0,0.0,0.0,0.0,0.0,0.0,0.0,0.0,0.0,0.0,0.0,0.0,0.0,0.0,0.0,0.0,0.0,0.0,0.0,0.0,0.0,0.0,0.0,0.0,0.0,0.0,0.0,0.0,0.0,0.0,0.0,0.0,0.0,0.0,0.0,0.0,0.0,0.0,0.0,0.0,0.0,0.0,0.0,0.0,0.0,0.0,0.0,0.0,0.0,0.0,0.0,0.0,0.0,0.0,0.0,0.0,0.0,0.0,0.0,0.0,0.0,0.0,0.0,0.0,0.0,0.0,0.0,0.0,0.0,0.0,0.0,0.0,0.0,0.0,0.0,0.0,0.0,0.0,0.0,0.0,0.0,0.0,0.0,0.0,0.0,0.0,1.5815,1.5815,1.5815,1.5815,1.5815,1.5815,0.0,0.0,0.0,0.0,0.0,0.0,0.0,0.0,0.0,0.0,0.0,0.0,0.0,0.0,0.0,0.0,0.0,0.0,0.0,0.0,0.0,0.0,0.0,0.0,0.0,0.0,0.0,0.0,0.0,0.0,0.0,0.0,0.0,0.0,0.0,0.0,0.0,0.0,0.0,0.0,0.0,0.0,0.0,0.0,0.0,0.0,0.0,0.0,0.0,0.0,0.0,0.0,0.0,0.0,0.0,0.0,0.0,0.0,0.0,0.0,0.0,0.0,0.0,0.0,0.0,0.0,0.0,0.0,0.0,0.0,0.0,0.0,0.0,0.0,0.0,0.0,0.0,0.0,0.0,0.0,0.0,0.0,0.0,0.0,0.0,0.0,0.0,0.0,0.0,0.0,0.0,0.0,0.0,0.0,0.0,0.0,0.0,0.0,0.0,0.0,0.0,0.0,0.0,0.0,0.0,0.0,0.0,0.0,0.0,1.5815,1.5815,1.5815,1.5815,1.5815,1.5815,0.0,0.0,0.0,0.0,0.0,0.0,0.0,0.0,0.0,0.0,0.0,0.0,0.0,0.0,0.0,0.0,0.0,0.0,0.0,0.0,0.0,0.0,0.0,0.0,0.0,0.0,0.0,0.0,0.0,0.0,0.0,0.0,0.0,0.0,0.0,0.0,0.0,0.0,0.0,0.0,0.0,0.0,0.0,0.0,0.0,0.0,0.0,0.0,0.0,0.0,0.0,0.0,0.0,0.0,0.0,0.0,0.0,0.0,0.0,0.0,0.0,0.0,0.0,0.0,0.0,0.0,0.0,0.0,0.0,0.0,0.0,0.0,0.0,0.0,0.0,0.0,0.0,0.0,0.0,0.0,0.0,0.0,0.0,0.0,0.0,0.0,0.0,0.0,0.0,0.0,0.0,0.0,0.0,0.0,0.0,0.0,0.0,0.0,0.0,0.0,0.0,0.0,0.0,0.0,0.0,0.0,0.0,0.0,0.0,1.5986,0.0,1.5999,1.5999,1.5999,1.595,0.0,0.0,0.0,0.0,0.0,0.0,0.0,0.0,0.0,0.0,0.0,0.0,0.0,0.0,0.0,0.0,0.0,0.0,0.0,0.0,0.0,0.0,0.0,0.0,0.0,0.0,0.0,0.0,0.0,0.0,0.0,0.0,0.0,0.0,0.0,0.0,0.0,0.0,0.0,0.0,0.0,0.0,0.0,0.0,0.0,0.0,0.0,0.0,0.0,0.0,0.0,0.0,0.0,0.0,0.0,0.0,0.0,0.0,0.0,0.0,0.0,0.0,0.0,0.0,0.0,0.0,0.0,0.0,0.0,0.0,0.0,0.0,0.0,0.0,0.0,0.0,0.0,0.0,0.0,0.0,0.0,0.0,0.0,0.0,0.0,0.0,0.0,0.0,0.0,0.0,0.0,0.0,0.0,0.0,0.0,0.0,0.0,0.0,0.0,0.0,0.0,0.0,0.0,0.0,0.0,0.0,0.0,0.0,1.6012,1.6396,1.6397,1.6432,1.6408,1.6432,1.6217,0.0,0.0,0.0,0.0,0.0,0.0,0.0,0.0,0.0,0.0,0.0,0.0,0.0,0.0,0.0,0.0,0.0,0.0,0.0,0.0,0.0,0.0,0.0,0.0,0.0,0.0,0.0,0.0,0.0,0.0,0.0,0.0,0.0,0.0,0.0,0.0,0.0,0.0,0.0,0.0,0.0,0.0,0.0,0.0,0.0,0.0,0.0,0.0,0.0,0.0,0.0,0.0,0.0,0.0,0.0,0.0,0.0,0.0,0.0,0.0,0.0,0.0,0.0,0.0,0.0,0.0,0.0,0.0,0.0,0.0,0.0,0.0,0.0,0.0,0.0,0.0,0.0,0.0,0.0,0.0,0.0,0.0,0.0,0.0,0.0,0.0,0.0,0.0,0.0,0.0,0.0,0.0,0.0,0.0,0.0,0.0,0.0,0.0,0.0,0.0,0.0,0.0,0.0,0.0,0.0,0.0,0.0,0.0,0.0,1.6603,1.6965,1.7177,1.7164,1.7164,1.7042,0.0,0.0,0.0,0.0,0.0,0.0,0.0,0.0,0.0,0.0,0.0,0.0,0.0,0.0,0.0,0.0,0.0,0.0,0.0,0.0,0.0,0.0,0.0,0.0,0.0,0.0,0.0,0.0,0.0,0.0,0.0,0.0,0.0,0.0,0.0,0.0,0.0,0.0,0.0,0.0,0.0,0.0,0.0,0.0,0.0,0.0,0.0,0.0,0.0,0.0,0.0,0.0,0.0,0.0,0.0,0.0,0.0,0.0,0.0,0.0,0.0,0.0,0.0,0.0,0.0,0.0,0.0,0.0,0.0,0.0,0.0,0.0,0.0,0.0,0.0,0.0,0.0,0.0,0.0,0.0,0.0,0.0,0.0,0.0,0.0,0.0,0.0,0.0,0.0,0.0,0.0,0.0,0.0,0.0,0.0,0.0,0.0,0.0,0.0,0.0,0.0,0.0,0.0,0.0,0.0,0.0,0.0,0.0,0.0,1.7779,1.7909,1.7961,1.7933,1.7925,1.7663,1.72,0.0,0.0,0.0,0.0,0.0,0.0,0.0,0.0,0.0,0.0,0.0,0.0,0.0,0.0,0.0,0.0,0.0,0.0,0.0,0.0,0.0,0.0,0.0,0.0,0.0,0.0,0.0,0.0,0.0,0.0,0.0,0.0,0.0,0.0,0.0,0.0,0.0,0.0,0.0,0.0,0.0,0.0,0.0,0.0,0.0,0.0,0.0,0.0,0.0,0.0,0.0,0.0,0.0,0.0,0.0,0.0,0.0,0.0,0.0,0.0,0.0,0.0,0.0,0.0,0.0,0.0,0.0,0.0,0.0,0.0,0.0,0.0,0.0,0.0,0.0,0.0,0.0,0.0,0.0,0.0,0.0,0.0,0.0,0.0,0.0,0.0,0.0,0.0,0.0,0.0,0.0,0.0,0.0,0.0,0.0,0.0,0.0,0.0,0.0,0.0,0.0,0.0,0.0,0.0,0.0,0.0,0.0,0.0,1.9667,1.9204,1.892,1.882,1.8696,1.821,0.0,0.0,0.0,0.0,0.0,0.0,0.0,0.0,0.0,0.0,0.0,0.0,0.0,0.0,0.0,0.0,0.0,0.0,0.0,0.0,0.0,0.0,0.0,0.0,0.0,0.0,0.0,0.0,0.0,0.0,0.0,0.0,0.0,0.0,0.0,0.0,0.0,0.0,0.0,0.0,0.0,0.0,0.0,0.0,0.0,0.0,0.0,0.0,0.0,0.0,0.0,0.0,0.0,0.0,0.0,0.0,0.0,0.0,0.0,0.0,0.0,0.0,0.0,0.0,0.0,0.0,0.0,0.0,0.0,0.0,0.0,0.0,0.0,0.0,0.0,0.0,0.0,0.0,0.0,0.0,0.0,0.0,0.0,0.0,0.0,0.0,0.0,0.0,0.0,0.0,0.0,0.0,0.0,0.0,0.0,0.0,0.0,0.0,0.0,0.0,0.0,0.0,0.0,0.0,0.0,0.0,0.0,0.0,0.0,2.0764,2.1395,2.1259,2.0305,2.0006,1.9525,0.0,0.0,0.0,0.0,0.0,0.0,0.0,0.0,0.0,0.0,0.0,0.0,0.0,0.0,0.0,0.0,0.0,0.0,0.0,0.0,0.0,0.0,0.0,0.0,0.0,0.0,0.0,0.0,0.0,0.0,0.0,0.0,0.0,0.0,0.0,0.0,0.0,0.0,0.0,0.0,0.0,0.0,0.0,0.0,0.0,0.0,0.0,0.0,0.0,0.0,0.0,0.0,0.0,0.0,0.0,0.0,0.0,0.0,0.0,0.0,0.0,0.0,0.0,0.0,0.0,0.0,0.0,0.0,0.0,0.0,0.0,0.0,0.0,0.0,0.0,0.0,0.0,0.0,0.0,0.0,0.0,0.0,0.0,0.0,0.0,0.0,0.0,0.0,0.0,0.0,0.0,0.0,0.0,0.0,0.0,0.0,0.0,0.0,0.0,0.0,0.0,0.0,0.0,0.0,0.0,0.0,0.0,0.0,2.0384,2.1827,2.2656,2.2737,2.1957,2.1358,2.0544,0.0,0.0,0.0,0.0,0.0,0.0,0.0,0.0,0.0,0.0,0.0,0.0,0.0,0.0,0.0,0.0,0.0,0.0,0.0,0.0,0.0,0.0,0.0,0.0,0.0,0.0,0.0,0.0,0.0,0.0,0.0,0.0,0.0,0.0,0.0,0.0,0.0,0.0,0.0,0.0,0.0,0.0,0.0,0.0,0.0,0.0,0.0,0.0,0.0,0.0,0.0,0.0,0.0,0.0,0.0,0.0,0.0,0.0,0.0,0.0,0.0,0.0,0.0,0.0,0.0,0.0,0.0,0.0,0.0,0.0,0.0,0.0,0.0,0.0,0.0,0.0,0.0,0.0,0.0,0.0,0.0,0.0,0.0,0.0,0.0,0.0,0.0,0.0,0.0,0.0,0.0,0.0,0.0,0.0,0.0,0.0,0.0,0.0,0.0,0.0,0.0,0.0,0.0,0.0,0.0,0.0,0.0,0.0,2.1086,2.2696,2.3346,2.3712,2.3674,2.2574,2.1332,0.0,0.0,0.0,0.0,0.0,0.0,0.0,0.0,0.0,0.0,0.0,0.0,0.0,0.0,0.0,0.0,0.0,0.0,0.0,0.0,0.0,0.0,0.0,0.0,0.0,0.0,0.0,0.0,0.0,0.0,0.0,0.0,0.0,0.0,0.0,0.0,0.0,0.0,0.0,0.0,0.0,0.0,0.0,0.0,0.0,0.0,0.0,0.0,0.0,0.0,0.0,0.0,0.0,0.0,0.0,0.0,0.0,0.0,0.0,0.0,0.0,0.0,0.0,0.0,0.0,0.0,0.0,0.0,0.0,0.0,0.0,0.0,0.0,0.0,0.0,0.0,0.0,0.0,0.0,0.0,0.0,0.0,0.0,0.0,0.0,0.0,0.0,0.0,0.0,0.0,0.0,0.0,0.0,0.0,0.0,0.0,0.0,0.0,0.0,0.0,0.0,0.0,0.0,0.0,0.0,0.0,0.0,0.0,2.2128,2.3016,2.4317,2.4997,2.4997,2.34,2.1831,0.0,0.0,0.0,0.0,0.0,0.0,0.0,0.0,0.0,0.0,0.0,0.0,0.0,0.0,0.0,0.0,0.0,0.0,0.0,0.0,0.0,0.0,0.0,0.0,0.0,0.0,0.0,0.0,0.0,0.0,0.0,0.0,0.0,0.0,0.0,0.0,0.0,0.0,0.0,0.0,0.0,0.0,0.0,0.0,0.0,0.0,0.0,0.0,2.0465,0.0,0.0,0.0,0.0,0.0,0.0,0.0,0.0,0.0,0.0,0.0,0.0,0.0,0.0,0.0,0.0,0.0,0.0,0.0,0.0,0.0,0.0,0.0,0.0,0.0,0.0,0.0,0.0,0.0,0.0,0.0,0.0,0.0,0.0,0.0,0.0,0.0,0.0,0.0,0.0,0.0,0.0,0.0,0.0,0.0,0.0,0.0,0.0,0.0,0.0,0.0,0.0,0.0,0.0,0.0,0.0,0.0,0.0,0.0,2.2329,2.3546,2.4693,2.5271,2.5212,2.4018,2.2615,0.0,0.0,0.0,0.0,0.0,0.0,0.0,0.0,0.0,0.0,0.0,0.0,0.0,0.0,0.0,0.0,0.0,0.0,0.0,0.0,0.0,0.0,0.0,0.0,0.0,0.0,0.0,0.0,0.0,0.0,0.0,0.0,0.0,0.0,0.0,0.0,0.0,0.0,0.0,0.0,0.0,0.0,0.0,0.0,0.0,0.0,0.0,0.0,0.0,0.0,0.0,0.0,0.0,0.0,0.0,0.0,0.0,0.0,0.0,0.0,0.0,0.0,0.0,0.0,0.0,0.0,0.0,0.0,0.0,0.0,0.0,0.0,0.0,0.0,0.0,0.0,0.0,0.0,0.0,0.0,0.0,0.0,0.0,0.0,0.0,0.0,0.0,0.0,0.0,0.0,0.0,0.0,0.0,0.0,0.0,0.0,0.0,0.0,0.0,0.0,0.0,0.0,0.0,0.0,0.0,0.0,0.0,2.0892,2.235,2.3935,2.4734,2.5128,2.5132,2.4523,2.3408,2.1739,0.0,0.0,0.0,0.0,0.0,0.0,0.0,0.0,0.0,0.0,0.0,0.0,0.0,0.0,0.0,0.0,0.0,0.0,0.0,0.0,0.0,0.0,0.0,0.0,0.0,0.0,0.0,0.0,0.0,0.0,0.0,0.0,0.0,0.0,0.0,0.0,0.0,0.0,1.9361,1.9577,0.0,0.0,0.0,0.0,0.0,0.0,0.0,0.0,2.1045,0.0,0.0,0.0,0.0,0.0,0.0,0.0,0.0,0.0,0.0,0.0,0.0,0.0,0.0,0.0,0.0,0.0,0.0,0.0,0.0,0.0,0.0,0.0,0.0,0.0,0.0,0.0,0.0,0.0,0.0,0.0,0.0,0.0,0.0,0.0,0.0,0.0,0.0,0.0,0.0,0.0,0.0,0.0,0.0,0.0,0.0,0.0,0.0,0.0,0.0,0.0,0.0,0.0,0.0,0.0,0.0,1.9692,2.1685,2.2993,2.3503,2.4649,2.5285,2.5247,2.4882,2.3853,2.2068,0.0,0.0,0.0,0.0,0.0,0.0,0.0,0.0,0.0,0.0,0.0,0.0,0.0,0.0,0.0,0.0,0.0,0.0,0.0,0.0,0.0,0.0,0.0,0.0,0.0,0.0,0.0,0.0,0.0,0.0,0.0,0.0,0.0,0.0,0.0,0.0,0.0,0.0,0.0,2.0059,2.0369,0.0,0.0,0.0,0.0,0.0,0.0,0.0,0.0,2.1029,0.0,0.0,0.0,0.0,0.0,0.0,0.0,0.0,0.0,0.0,0.0,0.0,0.0,0.0,0.0,0.0,0.0,0.0,0.0,0.0,0.0,0.0,0.0,0.0,0.0,0.0,0.0,0.0,0.0,0.0,0.0,0.0,0.0,0.0,0.0,0.0,0.0,0.0,0.0,0.0,0.0,0.0,0.0,0.0,0.0,0.0,0.0,0.0,0.0,0.0,0.0,0.0,0.0,0.0,0.0,2.0398,2.1929,2.3059,2.3835,2.4669,2.4993,2.4789,2.4318,2.3303,0.0,0.0,0.0,0.0,0.0,0.0,0.0,0.0,0.0,0.0,0.0,0.0,0.0,0.0,0.0,0.0,0.0,0.0,0.0,0.0,0.0,0.0,0.0,0.0,0.0,0.0,0.0,0.0,0.0,0.0,0.0,0.0,0.0,0.0,0.0,0.0,0.0,0.0,0.0,0.0,2.0374,2.0863,2.1149,0.0,0.0,0.0,0.0,0.0,0.0,2.2368,2.2148,0.0,0.0,0.0,0.0,0.0,0.0,0.0,0.0,0.0,0.0,0.0,0.0,0.0,0.0,0.0,0.0,0.0,0.0,0.0,0.0,0.0,0.0,0.0,0.0,0.0,0.0,0.0,0.0,0.0,0.0,0.0,0.0,0.0,0.0,0.0,0.0,0.0,0.0,0.0,0.0,0.0,0.0,0.0,0.0,0.0,0.0,0.0,0.0,0.0,0.0,0.0,0.0,0.0,0.0,0.0,2.0933,2.2012,2.3092,2.4116,2.4568,2.4635,2.4239,2.364,2.2621,0.0,0.0,0.0,0.0,0.0,0.0,0.0,0.0,0.0,0.0,0.0,0.0,0.0,0.0,0.0,0.0,0.0,0.0,0.0,0.0,0.0,0.0,0.0,0.0,0.0,0.0,0.0,0.0,0.0,0.0,0.0,0.0,0.0,0.0,0.0,0.0,0.0,0.0,0.0,0.0,0.0,2.1389,2.151,2.1834,0.0,0.0,0.0,0.0,2.343,2.3431,0.0,0.0,0.0,0.0,0.0,0.0,0.0,0.0,0.0,0.0,0.0,0.0,0.0,0.0,0.0,0.0,0.0,0.0,0.0,0.0,0.0,0.0,0.0,0.0,0.0,0.0,0.0,0.0,0.0,0.0,0.0,0.0,0.0,0.0,0.0,0.0,0.0,0.0,0.0,0.0,0.0,0.0,0.0,0.0,0.0,0.0,0.0,0.0,0.0,0.0,0.0,0.0,0.0,0.0,0.0,0.0,2.043,2.2234,2.3323,2.3607,2.4226,2.4367,2.3956,2.3432,2.2443,0.0,0.0,0.0,0.0,0.0,0.0,0.0,0.0,0.0,0.0,0.0,0.0,0.0,0.0,0.0,0.0,0.0,0.0,0.0,0.0,0.0,0.0,0.0,0.0,0.0,0.0,0.0,0.0,0.0,0.0,0.0,0.0,0.0,0.0,0.0,0.0,0.0,0.0,0.0,0.0,0.0,2.2005,2.2532,2.2683,2.2852,0.0,0.0,2.345,2.4006,2.3948,0.0,0.0,0.0,0.0,0.0,0.0,0.0,0.0,0.0,0.0,0.0,0.0,0.0,0.0,0.0,0.0,0.0,0.0,0.0,0.0,0.0,0.0,0.0,0.0,0.0,0.0,0.0,0.0,0.0,0.0,0.0,0.0,0.0,0.0,0.0,0.0,0.0,0.0,0.0,0.0,0.0,0.0,0.0,0.0,0.0,0.0,0.0,0.0,0.0,0.0,0.0,0.0,0.0,0.0,0.0,1.9626,2.0866,2.2233,2.3252,2.3865,2.4184,2.4122,2.3686,2.3154,2.2136,0.0,0.0,0.0,0.0,0.0,0.0,0.0,0.0,0.0,0.0,0.0,0.0,0.0,0.0,0.0,0.0,0.0,0.0,0.0,0.0,0.0,0.0,0.0,0.0,0.0,0.0,0.0,0.0,0.0,0.0,0.0,0.0,0.0,0.0,0.0,0.0,0.0,0.0,0.0,0.0,0.0,0.0,2.3122,2.3764,0.0,0.0,0.0,2.4481,2.5229,0.0,0.0,0.0,0.0,0.0,0.0,0.0,0.0,0.0,0.0,0.0,0.0,0.0,0.0,0.0,0.0,0.0,0.0,0.0,0.0,0.0,0.0,0.0,0.0,0.0,0.0,0.0,0.0,0.0,0.0,0.0,0.0,0.0,0.0,0.0,0.0,0.0,0.0,0.0,0.0,0.0,0.0,0.0,0.0,0.0,0.0,0.0,0.0,0.0,0.0,0.0,0.0,0.0,0.0,0.0,0.0,0.0,2.1174,2.2273,2.3293,2.4146,2.4202,2.3975,2.3523,2.2922,0.0,0.0,0.0,0.0,0.0,0.0,0.0,0.0,0.0,0.0,0.0,0.0,0.0,0.0,0.0,0.0,0.0,0.0,0.0,0.0,0.0,0.0,0.0,0.0,0.0,0.0,0.0,1.8815,0.0,0.0,0.0,0.0,0.0,0.0,0.0,0.0,0.0,0.0,0.0,0.0,0.0,0.0,2.3197,2.3511,2.4515,2.509,0.0,0.0,2.525,2.5895,2.5519,2.5007,0.0,0.0,0.0,0.0,0.0,0.0,0.0,0.0,0.0,0.0,0.0,0.0,0.0,0.0,0.0,0.0,0.0,0.0,0.0,0.0,0.0,0.0,0.0,0.0,0.0,0.0,0.0,0.0,0.0,0.0,0.0,0.0,0.0,0.0,0.0,0.0,0.0,0.0,0.0,0.0,0.0,0.0,0.0,0.0,0.0,0.0,0.0,0.0,0.0,0.0,0.0,0.0,0.0,0.0,1.9717,2.0836,2.2415,2.3547,2.4165,2.4202,2.3975,2.3499,2.2735,2.1857,0.0,0.0,0.0,0.0,0.0,0.0,0.0,0.0,0.0,0.0,0.0,0.0,0.0,0.0,0.0,0.0,0.0,0.0,0.0,0.0,0.0,0.0,0.0,0.0,0.0,0.0,0.0,0.0,0.0,0.0,0.0,0.0,0.0,0.0,0.0,0.0,0.0,0.0,0.0,0.0,0.0,2.3392,2.3723,2.4522,2.5085,0.0,2.5447,2.5658,2.5483,2.5311,2.4959,2.4252,0.0,0.0,0.0,0.0,0.0,0.0,0.0,0.0,0.0,0.0,0.0,0.0,0.0,0.0,0.0,0.0,0.0,0.0,0.0,0.0,0.0,0.0,0.0,0.0,0.0,0.0,0.0,0.0,0.0,0.0,0.0,0.0,0.0,0.0,0.0,0.0,0.0,0.0,0.0,0.0,0.0,0.0,0.0,0.0,0.0,0.0,0.0,0.0,0.0,0.0,0.0,0.0,0.0,1.9464,2.1144,2.2423,2.3417,2.4165,2.4202,2.4103,2.3938,2.334,2.252,0.0,0.0,0.0,0.0,0.0,0.0,0.0,0.0,0.0,0.0,0.0,0.0,0.0,0.0,0.0,0.0,0.0,0.0,0.0,0.0,0.0,0.0,0.0,0.0,0.0,0.0,0.0,0.0,2.0826,2.1108,2.1174,0.0,0.0,0.0,0.0,0.0,0.0,0.0,0.0,0.0,0.0,2.3461,2.4417,2.5058,0.0,0.0,2.5638,2.5781,2.5829,2.5449,2.4897,2.4212,2.3271,0.0,0.0,0.0,0.0,0.0,0.0,0.0,0.0,0.0,0.0,0.0,0.0,0.0,0.0,0.0,0.0,0.0,0.0,0.0,0.0,0.0,0.0,0.0,0.0,0.0,0.0,0.0,0.0,0.0,0.0,0.0,0.0,0.0,0.0,0.0,0.0,0.0,0.0,0.0,0.0,0.0,0.0,0.0,0.0,0.0,0.0,0.0,0.0,0.0,0.0,0.0,0.0,1.9435,2.1281,2.2359,2.3321,2.4158,2.4202,2.4202,2.4202,2.3724,2.3041,0.0,0.0,0.0,0.0,0.0,0.0,0.0,0.0,0.0,0.0,0.0,0.0,0.0,0.0,0.0,0.0,0.0,0.0,0.0,0.0,0.0,0.0,0.0,0.0,0.0,0.0,0.0,0.0,2.0994,2.0985,2.0675,0.0,0.0,0.0,0.0,0.0,0.0,0.0,0.0,0.0,0.0,2.3597,2.4632,2.5146,2.546,2.5484,2.5533,2.5591,2.5667,2.518,2.4625,2.4148,0.0,0.0,0.0,0.0,0.0,0.0,0.0,0.0,0.0,0.0,0.0,0.0,0.0,0.0,0.0,0.0,0.0,0.0,0.0,0.0,0.0,0.0,0.0,0.0,0.0,0.0,0.0,1.6415,0.0,0.0,1.5768,0.0,0.0,0.0,0.0,0.0,0.0,0.0,0.0,0.0,0.0,0.0,0.0,0.0,0.0,0.0,0.0,0.0,0.0,0.0,0.0,0.0,0.0,1.9672,2.1089,2.2291,2.3297,2.414,2.4202,2.4202,2.4177,2.3767,2.3297,2.2858,0.0,0.0,0.0,0.0,0.0,0.0,0.0,0.0,0.0,0.0,0.0,0.0,0.0,0.0,0.0,0.0,0.0,0.0,0.0,0.0,0.0,0.0,0.0,0.0,0.0,0.0,2.1482,2.088,2.0152,0.0,0.0,0.0,0.0,0.0,0.0,0.0,0.0,0.0,2.1926,2.2973,2.3835,2.425,2.4652,2.4898,2.4917,2.5137,2.5174,2.4813,2.4414,2.4086,0.0,0.0,0.0,0.0,0.0,0.0,0.0,0.0,0.0,0.0,0.0,0.0,0.0,0.0,0.0,0.0,0.0,0.0,0.0,0.0,0.0,0.0,0.0,0.0,0.0,0.0,0.0,1.7866,1.7734,0.0,0.0,0.0,0.0,0.0,0.0,0.0,0.0,0.0,0.0,0.0,1.8618,1.887,0.0,0.0,0.0,0.0,0.0,0.0,0.0,0.0,0.0,0.0,0.0,0.0,1.9277,2.0993,2.1962,2.2823,2.3644,2.3854,2.3911,2.3929,2.395,2.3639,2.2913,0.0,0.0,0.0,0.0,0.0,0.0,0.0,0.0,0.0,0.0,0.0,0.0,0.0,0.0,0.0,0.0,0.0,0.0,0.0,0.0,0.0,0.0,0.0,0.0,0.0,2.1552,0.0,0.0,0.0,0.0,0.0,0.0,0.0,0.0,0.0,0.0,0.0,2.161,2.2368,2.2561,2.3051,2.4277,2.4163,2.4133,0.0,0.0,0.0,0.0,0.0,0.0,0.0,0.0,0.0,0.0,0.0,0.0,0.0,0.0,2.2158,2.1172,2.1078,2.1152,2.1171,0.0,0.0,0.0,0.0,0.0,0.0,0.0,0.0,0.0,0.0,0.0,0.0,0.0,0.0,1.8689,0.0,1.7949,0.0,0.0,0.0,0.0,0.0,0.0,0.0,0.0,1.849,1.8762,1.9372,1.9646,1.9804,0.0,1.976,1.9416,0.0,0.0,0.0,0.0,0.0,0.0,0.0,0.0,1.9253,2.0884,2.1784,2.2578,2.3203,2.3605,2.3805,2.3805,2.4078,2.3865,2.3133,2.2222,2.1221,0.0,0.0,0.0,0.0,0.0,0.0,0.0,0.0,0.0,0.0,0.0,0.0,0.0,0.0,0.0,0.0,0.0,0.0,0.0,0.0,0.0,0.0,0.0,2.1653,0.0,0.0,0.0,0.0,0.0,0.0,0.0,0.0,0.0,2.0074,2.1114,2.2078,2.2606,2.2712,2.3084,2.4029,0.0,0.0,0.0,0.0,0.0,0.0,0.0,2.4401,2.4492,2.4467,2.4504,2.4802,2.475,2.4576,2.4343,0.0,0.0,2.2733,2.2531,2.258,2.258,2.2669,2.2706,2.2445,2.2501,2.2762,0.0,0.0,0.0,0.0,0.0,0.0,0.0,0.0,1.9308,1.9306,0.0,1.8502,0.0,0.0,0.0,0.0,1.8434,1.7875,0.0,0.0,1.9049,1.9312,2.0265,2.0331,2.0315,2.0322,2.051,2.0408,2.0003,1.8481,0.0,0.0,0.0,0.0,0.0,0.0,1.9633,2.074,2.1707,2.2423,2.2872,2.3466,2.3766,2.3773,2.4003,2.3944,2.3493,2.3067,2.2341,2.1196,2.0541,0.0,0.0,0.0,0.0,0.0,0.0,0.0,0.0,0.0,0.0,0.0,0.0,0.0,0.0,0.0,0.0,0.0,0.0,0.0,0.0,2.1549,0.0,0.0,0.0,0.0,0.0,0.0,0.0,0.0,0.0,0.0,2.0862,2.1916,2.2723,2.2729,0.0,0.0,0.0,0.0,2.4202,2.4238,2.4412,2.4405,2.4033,2.4294,2.4548,2.4591,0.0,0.0,2.6055,2.6126,2.5989,2.5677,2.5622,2.529,2.419,2.4122,2.4207,2.4207,2.4475,2.4794,2.4823,2.4908,2.5263,1.9608,0.0,0.0,0.0,0.0,1.9805,2.0085,2.0009,2.0142,2.0202,2.0167,1.9573,0.0,0.0,0.0,0.0,0.0,0.0,1.938,2.0242,2.0216,2.0404,2.081,2.0841,2.0825,2.0743,2.0778,2.0486,1.9859,1.8996,1.83,1.7825,0.0,0.0,0.0,0.0,1.8783,2.0039,2.0666,2.1438,2.2475,2.2816,2.3116,2.3296,2.3296,2.321,2.3061,2.305,2.2738,2.2124,2.1299,0.0,0.0,0.0,0.0,0.0,0.0,0.0,0.0,0.0,0.0,0.0,0.0,0.0,0.0,0.0,0.0,0.0,0.0,0.0,2.2389,2.2242,2.1773,0.0,0.0,0.0,0.0,0.0,0.0,0.0,0.0,0.0,2.1947,2.2411,2.2845,0.0,0.0,2.3503,2.4342,2.4305,2.4404,2.4966,2.5135,0.0,2.4995,2.5102,2.531,2.5609,2.6072,2.6433,2.659,2.6582,2.6574,2.6458,2.648,2.6404,2.6105,2.5551,2.5228,2.5201,2.529,2.5362,2.5397,2.5665,2.6077,2.0162,1.967,1.9847,1.9698,1.949,2.0152,2.0377,2.0321,2.0327,2.0399,2.0479,1.9907,1.9582,1.9445,1.9007,0.0,0.0,0.0,1.9774,2.0295,2.0457,2.0716,2.1009,2.1065,2.0966,2.0776,2.0639,2.0243,1.955,1.9088,1.8559,1.7963,0.0,0.0,1.6817,1.7566,1.8438,1.936,1.9984,2.077,2.1753,2.228,2.2623,2.2729,2.2673,2.2621,2.2585,2.276,2.2733,2.2433,2.1813,2.1137,0.0,0.0,0.0,0.0,0.0,0.0,0.0,0.0,0.0,0.0,0.0,1.9296,1.9767,0.0,0.0,0.0,2.2189,2.2847,2.3079,2.2586,0.0,0.0,0.0,0.0,0.0,0.0,0.0,2.0866,2.1379,2.1971,2.2715,2.3009,2.325,2.3407,2.3589,2.3892,2.4354,0.0,2.4663,2.5168,2.5232,2.5313,2.5449,2.5649,2.5915,2.6356,2.6654,2.6835,2.6725,2.6824,2.682,2.661,2.6546,2.6572,2.6589,2.6131,2.5866,2.6088,2.6226,2.6359,2.6359,2.6685,2.7033,2.0235,1.9597,1.925,1.9305,1.9664,1.9946,2.0181,2.0376,2.0084,2.0116,2.0376,1.974,1.9537,1.972,1.9633,0.0,1.9973,1.9613,1.9665,2.0047,2.0086,2.0439,2.1003,2.0884,2.0723,2.0456,2.0197,1.9762,1.9181,1.8918,1.848,1.7874,1.7377,1.7021,1.6874,1.7707,1.834,1.8776,1.9541,2.0294,2.0937,2.1719,2.2108,2.2048,2.2052,2.2037,2.1945,2.2283,2.2406,2.2267,2.2169,2.1613,2.0545,0.0,0.0,0.0,0.0,0.0,0.0,0.0,0.0,0.0,0.0,0.0,0.0,0.0,0.0,2.2015,2.2637,0.0,2.3589,2.2706,0.0,0.0,0.0,2.068,2.0406,2.0551,2.0833,2.1265,0.0,0.0,2.3105,2.3587,2.371,2.3326,2.4239,2.4699,2.4118,2.4594,2.5004,2.5154,2.5118,2.5214,2.5557,2.5905,2.6243,2.6599,2.6854,2.6817,2.6593,2.6768,2.6727,2.6216,2.6087,2.6119,2.6119,2.6088,2.6232,2.6686,2.7047,2.7311,2.7261,2.7515,2.7752,1.8409,1.8013,1.7743,1.8456,1.9801,2.0429,2.0601,2.0484,2.0385,2.0399,2.0427,2.0048,1.989,1.9922,1.9644,1.9688,2.0006,1.9918,2.0033,2.0371,2.0182,2.0177,2.0313,1.9796,1.9525,1.949,1.9627,1.9414,1.8852,1.8823,1.8404,1.7607,1.7476,1.729,1.7056,1.7248,1.7743,1.8479,1.8755,1.9417,2.0416,2.0622,2.0703,2.0689,2.0818,2.0789,2.0591,2.1404,2.1954,2.2147,2.2211,2.1881,2.1072,2.0637,0.0,0.0,0.0,0.0,0.0,0.0,0.0,0.0,0.0,1.9906,2.0899,0.0,2.239,0.0,2.2908,2.3027,2.2967,2.2715,0.0,0.0,2.1408,2.1357,2.1014,2.1081,2.1395,2.2104,2.2139,2.2193,2.2485,2.3068,2.3338,2.3064,2.4162,2.5023,2.5164,2.5371,2.5618,2.5855,2.5725,2.5634,2.5714,2.5864,2.594,2.5928,2.613,2.6294,2.6216,2.6263,2.6257,2.6126,2.6114,2.6103,2.6037,2.6085,2.6139,2.6282,2.6375,2.6422,2.6422,2.6745,2.6987,1.7697,1.752,1.7278,1.7781,1.8726,1.9231,1.9334,1.9226,1.9196,1.9226,1.92,1.9184,1.9302,1.9582,1.9421,1.9261,1.9144,1.9168,1.9086,1.8987,1.8974,1.9081,1.9186,1.8814,1.8646,1.8723,1.8896,1.876,1.8331,1.8482,1.8334,1.786,1.7615,1.7556,1.7653,1.7568,1.7821,1.8438,1.8704,1.9125,1.9666,1.9902,1.9935,1.9827,2.0047,2.0112,1.992,2.0601,2.119,2.1547,2.1753,2.1584,2.1035,2.068,1.9934,0.0,0.0,0.0,0.0,0.0,0.0,0.0,0.0,0.0,0.0,0.0,2.2208,2.2673,2.2955,2.3105,2.3104,2.2796,2.2389,2.1851,2.1744,2.1628,2.1517,2.1545,2.1745,2.2179,2.2225,2.2317,2.2535,2.3063,2.3406,2.3406,2.4208,2.4816,2.4878,2.5023,2.5201,2.5453,2.5343,2.5357,2.5654,2.5623,2.5546,2.5613,2.5767,2.5791,2.5467,2.5512,2.5541,2.5241,2.5189,2.5153,2.5187,2.5153,2.5153,2.5177,2.5193,2.5416,2.5959,2.6246,2.637,1.7383,1.7362,1.7174,1.7089,1.7113,1.7237,1.7366,1.7533,1.7533,1.7533,1.7553,1.7898,1.8348,1.8883,1.8883,1.8563,1.804,1.7978,1.7638,1.7123,1.7368,1.7607,1.7903,1.7835,1.7887,1.7998,1.8061,1.8007,1.7816,1.8168,1.8353,1.8324,1.7877,1.7919,1.8416,1.8205,1.8194,1.8435,1.8911,1.901,1.8794,1.9345,1.9464,1.9154,1.9525,1.9661,1.9561,1.9879,2.0292,2.0755,2.1053,2.1054,2.0725,2.0506,2.0002,0.0,1.8912,0.0,0.0,0.0,0.0,0.0,0.0,0.0,0.0,2.1246,2.17,2.2409,2.2749,2.3062,2.3357,2.2824,2.2452,2.2525,2.2064,2.1767,2.1827,2.1841,2.1834,2.1838,2.2049,2.2289,2.2604,2.3019,2.3347,2.3523,2.3848,2.3986,2.3874,2.4168,2.4547,2.4504,2.4476,2.4681,2.5109,2.5093,2.5025,2.5267,2.5295,2.5158,2.4594,2.4698,2.4699,2.419,2.4088,2.4068,2.4,2.4034,2.4034,2.4102,2.4094,2.4452,2.5412,2.5715,2.5843,1.6215,1.6196,1.5992,1.5938,1.5919,1.5713,1.6228,1.7098,1.7098,1.7098,1.7119,1.7481,1.7682,1.781,1.781,1.7725,1.7618,1.7342,1.7161,1.6989,1.6797,1.6722,1.6786,1.6796,1.6796,1.6851,1.7366,1.775,1.796,1.8354,1.8578,1.8645,1.8505,1.8533,1.8647,0.0,0.0,0.0,1.8201,1.8236,1.8177,1.8486,1.8521,1.8296,1.8988,0.0,1.87,1.9387,1.9931,2.0241,2.0514,0.0,0.0,0.0,0.0,0.0,0.0,0.0,0.0,0.0,0.0,0.0,2.0006,2.0531,2.1613,2.2139,2.2386,2.2329,2.2231,2.2151,2.2199,2.2113,2.1947,2.1742,2.1849,2.1869,2.1686,2.147,2.14,2.1638,2.1278,2.116,2.1521,2.1761,2.1992,2.2155,2.235,2.2508,2.2513,2.3656,2.4515,2.4563,2.4255,2.4084,2.3989,2.4129,2.4154,2.4012,2.4142,2.4246,2.4173,2.4133,2.419,2.3966,2.4,2.3966,2.3966,2.4,2.3918,2.4,2.3966,2.4088,2.434,2.4408,2.4408,1.6062,1.6034,1.5835,1.574,0.0,1.5489,1.574,1.6287,1.6065,1.6071,1.6266,1.6418,1.6613,1.6764,1.6775,1.6741,1.665,1.6486,1.6394,1.6297,1.6142,1.6142,1.6318,1.6473,1.6639,1.6871,1.7532,1.7861,1.7967,1.8499,1.8726,1.8657,1.8683,1.877,1.8902,1.895,1.8736,1.8365,1.8342,1.8205,1.7993,1.8353,1.8468,1.8227,1.8929,0.0,0.0,0.0,0.0,0.0,0.0,0.0,0.0,2.0292,0.0,1.9497,1.9514,1.9469,1.9226,1.9418,1.9618,1.9771,2.018,2.0726,2.1376,2.1703,2.1913,2.1951,2.1846,2.1841,2.1969,2.1723,2.1501,2.1362,2.1351,2.1317,2.1189,2.1191,2.126,2.1344,2.1135,2.1068,2.1346,2.1499,2.1681,2.1821,2.2006,2.2073,2.2167,2.2793,2.3355,2.3355,2.3261,2.3155,2.3318,2.3389,2.3624,2.3683,2.3888,2.3904,2.3747,2.3679,2.3645,2.3523,2.3475,2.3454,2.3441,2.3441,2.3475,2.3475,2.3441,2.3441,2.3475,2.3761,2.4,1.6223,1.6204,1.6024,1.5958,1.5939,1.5731,1.5627,1.557,0.0,0.0,0.0,1.5515,1.5669,1.5931,1.5921,1.5866,1.5768,1.5768,1.5731,1.5598,1.5598,1.5734,1.6006,1.6404,1.6777,1.7125,1.7801,1.8061,1.7995,1.8589,1.8823,1.8674,1.8768,1.8921,1.9099,1.9168,1.9056,1.8779,1.8723,1.8471,1.801,1.8479,1.8631,1.8342,1.8899,1.9068,1.8834,1.909,1.9245,1.9304,1.9761,2.0042,2.0042,2.019,2.0083,1.9667,1.9594,1.9436,1.9242,1.9545,1.9749,1.9877,2.0439,2.0788,2.078,2.0943,2.1108,2.1352,2.1354,2.1502,2.1744,2.1391,2.1119,2.1119,2.0927,2.0802,2.0816,2.0966,2.112,2.1159,2.1127,2.1208,2.1437,2.1493,2.1593,2.1846,2.1853,2.1929,2.1929,2.2073,2.2261,2.2261,2.2292,2.2332,2.2679,2.2902,2.312,2.3525,2.3692,2.3679,2.3406,2.3304,2.3201,2.2996,2.2893,2.2928,2.2893,2.2928,2.2893,2.2893,2.2893,2.2893,2.2928,2.3372,2.3747,1.6223,1.6214,1.615,1.6176,1.6157,1.5949,1.5759,1.5598,1.5532,1.5537,1.5571,1.5571,1.5605,1.5673,1.5639,1.5658,1.5619,1.5619,1.5638,1.5598,1.5598,1.5632,1.57,1.6302,1.6641,1.6743,1.7453,1.7914,1.8183,1.8619,1.8827,1.8879,1.9211,1.9306,1.9132,1.9103,1.9091,1.9047,1.8815,1.857,1.827,1.8563,1.8443,1.8023,1.858,1.8739,1.8465,1.8741,1.9016,1.9302,1.9385,1.944,1.944,1.9509,1.944,1.9358,1.9344,1.9442,1.9682,1.9977,2.0356,2.0891,2.1075,2.0898,2.0355,2.0585,2.0687,2.053,2.0558,2.0515,2.0543,2.0726,2.0779,2.0808,2.1002,2.1124,2.1094,2.0909,2.0865,2.1098,2.0923,2.0877,2.115,2.1173,2.1218,2.1254,2.1362,2.1299,2.1393,2.174,2.2041,2.2104,2.2104,2.2131,2.2254,2.2418,2.2607,2.2586,2.2937,2.3099,2.303,2.2996,2.2996,2.2893,2.2893,2.2893,2.2893,2.2893,2.2893,2.2893,2.2893,2.2893,2.2893,2.303,2.3099,1.6223,1.6223,1.6223,1.6223,1.6204,1.611,1.6015,1.593,1.593,1.5797,1.5608,1.5598,1.5598,1.5598,1.5598,1.5655,1.5759,1.5759,1.5826,1.593,1.593,1.593,1.5999,1.6659,1.6971,1.703,1.772,1.8114,1.8177,1.8495,1.8744,1.886,1.928,1.9431,1.9322,1.9177,1.9104,1.9104,1.8989,1.8763,1.8548,1.8772,1.8729,1.8346,1.8783,1.8889,1.8635,1.8869,1.909,1.9299,1.9606,1.9873,2.0045,2.0256,2.0253,2.008,2.0051,2.0062,2.0024,2.013,2.0321,2.0624,2.0651,2.0547,2.0225,2.069,2.0908,2.0804,2.0804,2.0804,2.0804,2.0722,2.0686,2.0702,2.084,2.0927,2.0954,2.0937,2.0979,2.107,2.1003,2.0962,2.1096,2.1109,2.1109,2.1109,2.1109,2.1109,2.1109,2.1362,2.1551,2.1583,2.1551,2.1656,2.1786,2.2051,2.225,2.2378,2.2672,2.2867,2.2893,2.2893,2.2893,2.2893,2.2893,2.2893,2.2893,2.2893,2.2893,2.2893,2.2893,2.2893,2.2893,2.2893,2.2893,1.6223,1.6223,1.6223,1.6223,1.6223,1.6223,1.6223,1.6223,1.6178,1.6034,1.5759,1.5731,1.5731,1.5731,1.574,1.5826,1.5958,1.5968,1.6053,1.6169,1.6223,1.6223,1.6259,1.6885,1.7203,1.7379,1.7977,1.8232,1.822,1.8509,1.8788,1.9025,1.939,1.9567,1.9588,1.9394,1.9285,1.9285,1.9285,1.9128,1.8814,1.8979,1.8969,1.8754,1.8944,1.899,1.8799,1.8996,1.9162,1.9279,1.9789,2.0207,2.0459,2.0785,2.0862,2.0621,2.0591,2.051,2.0334,2.037,2.0397,2.0397,2.0397,2.0397,2.0458,2.0856,2.1122,2.1011,2.0925,2.0925,2.0909,2.081,2.0699,2.0713,2.0742,2.0793,2.0833,2.0975,2.1109,2.1109,2.1109,2.1096,2.1109,2.1109,2.1109,2.1109,2.1109,2.1109,2.1109,2.1109,2.1109,2.1109,2.1109,2.1208,2.1462,2.1716,2.1997,2.2238,2.2552,2.2773,2.2853,2.2893,2.2893,2.2893,2.2893,2.2893,2.2893,2.2893,2.2893,2.2893,2.2893,2.2893,2.2893,2.2893,2.2893,1.6223,1.6223,1.6223,1.6223,1.6223,1.6223,1.6223,1.6223,1.6223,1.6169,1.6138,1.6131,1.6112,1.6157,1.6112,1.6157,1.6176,1.6185,1.6195,1.6214,1.6223,1.6223,1.6223,1.6593,1.6946,1.7308,1.7766,1.8131,1.8355,1.8775,1.9173,1.9596,1.9776,1.9845,1.9845,1.982,1.9796,1.9808,1.9842,1.9588,1.9104,1.91,1.8979,1.8724,1.8744,1.8734,1.8723,1.8728,1.8899,1.9196,1.9568,1.9776,1.9837,2.0136,2.0301,2.0284,2.0271,2.0347,2.0646,2.0882,2.0971,2.1029,2.0989,2.0989,2.1002,2.1065,2.0882,2.0523,2.0345,2.0402,2.0315,2.0542,2.0721,2.0734,2.09,2.1069,2.1056,2.1082,2.1109,2.1109,2.1109,2.1109,2.1109,2.1109,2.1109,2.1109,2.1109,2.1109,2.1109,2.1109,2.1109,2.1109,2.1109,2.1109,2.1203,2.1435,2.1756,2.2004,2.2271,2.2552,2.28,2.2893,2.2893,2.2893,2.2893,2.2893,2.2893,2.2893,2.2893,2.2893,2.2893,2.2893,2.2893,2.2859,2.2825,1.6223,1.6223,1.6223,1.6223,1.6223,1.6223,1.6223,1.6223,1.6223,1.6223,1.6223,1.6223,1.6223,1.6223,1.6223,1.6223,1.6223,1.6223,1.6223,1.6223,1.6223,1.6223,1.6249,1.6558,1.6911,1.7308,1.7731,1.8072,1.8433,1.9052,1.946,1.9657,1.9971,2.011,2.0144,1.9999,1.9881,1.9881,1.9881,1.9772,1.96,1.9431,1.9285,1.9177,1.9032,1.893,1.8959,1.8935,1.9092,1.9393,1.9562,1.9813,2.0201,2.0344,2.053,2.0717,2.0748,2.0802,2.0922,2.1042,2.1109,2.1109,2.1109,2.1109,2.1109,2.1109,2.0989,2.0815,2.0748,2.0717,2.0717,2.0869,2.0935,2.0949,2.1042,2.1109,2.1109,2.1109,2.1109,2.1109,2.1109,2.1109,2.1109,2.1109,2.1109,2.1109,2.1109,2.1109,2.1109,2.1109,2.1109,2.1109,2.1109,2.1109,2.1136,2.1395,2.1676,2.197,2.2231,2.2525,2.2813,2.2893,2.2893,2.2859,2.2825,2.2825,2.2893,2.2893,2.2893,2.2859,2.2859,2.2825,2.2585,2.2551,2.2482,1.6223,1.6223,1.6223,1.6223,1.6223,1.6223,1.6223,1.6223,1.6223,1.6223,1.6223,1.6223,1.6223,1.6223,1.6223,1.6223,1.6223,1.6223,1.6223,1.6223,1.6223,1.6223,1.6214,1.6452,1.6805,1.7308,1.759,1.7977,1.8433,1.9192,1.9576,1.9692,2.0128,2.0422,2.0398,2.0183,2.0132,2.0144,2.0132,2.0132,2.0062,1.9866,1.9684,1.96,1.9358,1.9213,1.9213,1.9152,1.92,1.9456,1.9539,1.9826,2.0284,2.0488,2.0761,2.1046,2.1109,2.1109,2.1109,2.1109,2.1109,2.1109,2.1109,2.1109,2.1109,2.1109,2.1109,2.1051,2.1109,2.1051,2.1109,2.1109,2.1109,2.1109,2.1109,2.1109,2.1109,2.1109,2.1109,2.1109,2.1109,2.1109,2.1109,2.1109,2.1109,2.1109,2.1109,2.1109,2.1109,2.1109,2.1109,2.1109,2.1109,2.1109,2.1091,2.1256,2.1596,2.1943,2.2191,2.2405,2.2752,2.2812,2.2722,2.2619,2.2654,2.2585,2.2448,2.2516,2.2585,2.2585,2.2585,2.2516,2.2207,2.2173,2.207,1.6223,1.6223,1.6223,1.6223,1.6223,1.6223,1.6223,1.6223,1.6223,1.6223,1.6223,1.6223,1.6223,1.6223,1.6223,1.6223,1.6223,1.6223,1.6223,1.6223,1.6223,1.6223,1.6223,1.6223,1.6603,1.7273,1.7344,1.7731,1.8433,1.9192,1.9576,1.9645,2.0283,2.0676,2.0664,2.0628,2.0652,2.0616,2.0603,2.064,2.0616,2.0386,2.011,1.9893,1.9636,1.9479,1.9443,1.9237,1.9116,1.9136,1.9424,1.9603,1.9699,2.0253,2.0729,2.1014,2.1077,2.1109,2.1109,2.1109,2.1109,2.1109,2.1109,2.1109,2.1109,2.1109,2.1109,2.1109,2.1109,2.1109,2.1109,2.1109,2.1109,2.1109,2.1109,2.1109,2.1109,2.1109,2.1109,2.1109,2.1109,2.1109,2.1109,2.1109,2.1109,2.1109,2.1109,2.1109,2.1109,2.1109,2.1109,2.1109,2.1109,2.1109,2.1077,2.1162,2.1416,2.1771,2.2051,2.2198,2.2477,2.2654,2.2448,2.2276,2.2138,2.2035,2.1897,2.1863,2.1932,2.1966,2.2001,2.1897,2.1829,2.1829,2.1738,1.6223,1.6223,1.6223,1.6223,1.6223,1.6223,1.6223,1.6223,1.6223,1.6223,1.6223,1.6223,1.6223,1.6223,1.6223,1.6223,1.6223,1.6223,1.6223,1.6223,1.6223,1.6223,1.6223,1.6223,1.6567,1.7203,1.7308,1.7696,1.8398,1.9238,1.9576,1.9715,2.0341,2.07,2.07,2.07,2.07,2.07,2.07,2.07,2.07,2.0616,2.0519,2.041,1.9953,1.9684,1.9503,1.9406,1.9285,1.9116,1.9232,1.9392,1.9635,2.0221,2.0634,2.0792,2.0982,2.1109,2.1109,2.1109,2.1109,2.1109,2.1109,2.1109,2.1109,2.1109,2.1109,2.1109,2.1109,2.1109,2.1109,2.1109,2.1109,2.1109,2.1109,2.1109,2.1109,2.1109,2.1109,2.1109,2.1109,2.1109,2.1109,2.1109,2.1109,2.1109,2.1077,2.1077,2.1077,2.1077,2.1046,2.1077,2.1109,2.1109,2.1109,2.1077,2.1251,2.1626,2.1925,2.2023,2.2191,2.2168,2.2001,2.1966,2.1794,2.1691,2.1656,2.1669,2.1669,2.1703,2.1703,2.1531,2.1462,2.1449,2.1323,1.6223,1.6223,1.6223,1.6223,1.6223,1.6223,1.6223,1.6223,1.6223,1.6223,1.6223,1.6223,1.6223,1.6223,1.6223,1.6223,1.6223,1.6223,1.6223,1.6223,1.6223,1.6223,1.6223,1.6223,1.6567,1.7238,1.7555,1.7942,1.8433,1.9238,1.9576,1.9645,2.0318,2.07,2.07,2.07,2.07,2.07,2.07,2.07,2.07,2.07,2.07,2.0652,2.035,2.0047,1.9769,1.9684,1.9515,1.9285,1.9237,1.9349,1.9628,2.003,2.038,2.0583,2.0824,2.0982,2.1077,2.1109,2.1109,2.1109,2.1109,2.1109,2.1109,2.1109,2.1109,2.1109,2.1109,2.1109,2.1109,2.1109,2.1109,2.1109,2.1109,2.1109,2.1109,2.1109,2.1109,2.1109,2.1109,2.1109,2.1109,2.1109,2.1109,2.1077,2.1014,2.0951,2.0919,2.0824,2.0792,2.0774,2.0729,2.0697,2.0705,2.0725,2.1018,2.1424,2.1502,2.1654,2.1816,2.173,2.1634,2.16,2.1565,2.1496,2.1462,2.1462,2.1462,2.1462,2.1358,2.1151,2.1116,2.1034,2.0977,1.6223,1.6223,1.6223,1.6223,1.6223,1.6223,1.6223,1.6223,1.6223,1.6223,1.6223,1.6223,1.6223,1.6223,1.6223,1.6223,1.6223,1.6223,1.6223,1.6223,1.6223,1.6223,1.6223,1.6223,1.6603,1.7308,1.8012,1.8328,1.8433,1.9168,1.9541,1.9715,2.0284,2.0631,2.07,2.07,2.07,2.07,2.07,2.07,2.07,2.07,2.07,2.07,2.0652,2.0531,2.0255,2.0047,1.976,1.9539,1.9503,1.9532,1.9594,1.9647,1.9934,2.0412,2.0583,2.0761,2.1014,2.1077,2.1077,2.1046,2.1077,2.1014,2.0951,2.0982,2.0982,2.0982,2.0982,2.1046,2.1014,2.0982,2.1046,2.1109,2.1109,2.1109,2.1109,2.1109,2.1109,2.1077,2.1077,2.1077,2.1077,2.0982,2.0919,2.0856,2.0697,2.0475,2.0412,2.0253,2.0138,2.0106,2.0106,2.0119,2.0176,2.0335,2.0765,2.1134,2.1084,2.1141,2.1454,2.1462,2.1289,2.122,2.1116,2.1047,2.1047,2.1047,2.0977,2.0943,2.0839,2.0873,2.0839,2.0839,2.0804,1.6223,1.6223,1.6223,1.6223,1.6223,1.6223,1.6223,1.6223,1.6223,1.6223,1.6223,1.6223,1.6223,1.6223,1.6223,1.6223,1.6223,1.6223,1.6223,1.6223,1.6223,1.6223,1.6223,1.6223,1.6603,1.7273,1.7791,1.8188,1.8468,1.8947,1.9297,1.9645,2.0075,2.0422,2.07,2.07,2.07,2.07,2.07,2.07,2.07,2.07,2.07,2.07,2.07,2.0664,2.0567,2.0325,2.0071,1.9805,1.9793,1.9693,1.9569,1.9586,1.9711,1.9903,2.0348,2.0615,2.0761,2.0951,2.0982,2.0824,2.0761,2.0634,2.0456,2.0412,2.0425,2.0425,2.0393,2.0425,2.0425,2.0393,2.057,2.1046,2.1109,2.1046,2.1046,2.1046,2.1109,2.1077,2.0887,2.0761,2.071,2.0615,2.0348,2.0113,1.9966,1.9839,1.9584,1.9424,1.9424,1.9392,1.9417,1.9418,1.9447,1.9507,1.9724,2.023,2.0407,2.0598,2.0931,2.1034,2.0873,2.077,2.0665,2.0631,2.0631,2.0596,2.0561,2.0631,2.07,2.07,2.07,2.07,2.07,1.6223,1.6223,1.6223,1.6223,1.6223,1.6223,1.6223,1.6223,1.6223,1.6223,1.6223,1.6223,1.6223,1.6223,1.6223,1.6223,1.6223,1.6223,1.6223,1.6223,1.6223,1.6223,1.6223,1.632,1.6709,1.7273,1.7685,1.8082,1.8398,1.8819,1.9192,1.9611,1.9936,2.033,2.0665,2.07,2.07,2.07,2.07,2.07,2.07,2.07,2.07,2.07,2.07,2.07,2.0688,2.0543,2.0337,2.0062,1.9975,1.9796,1.9648,1.9601,1.9636,1.9816,2.0125,2.0456,2.0615,2.0792,2.0824,2.0602,2.038,2.0157,1.9934,1.9839,1.9724,1.9724,1.9724,1.9724,1.9724,1.9724,1.9934,2.0316,2.0539,2.0697,2.0729,2.0729,2.0729,2.0634,2.0507,2.0393,2.0189,2.0062,1.9711,1.9348,1.9092,1.8868,1.8579,1.8399,1.8401,1.8395,1.8379,1.844,1.8645,1.8706,1.8732,1.9184,1.9629,1.9964,2.0327,2.0295,2.0202,2.0167,2.0098,2.0098,2.0098,2.0144,2.0144,2.0318,2.0457,2.0527,2.0561,2.0665,2.07,1.6223,1.6223,1.6223,1.6223,1.6223,1.6223,1.6223,1.6223,1.6223,1.6223,1.6223,1.6223,1.6223,1.6223,1.6223,1.6223,1.6223,1.6223,1.6223,1.6223,1.6223,1.6223,1.6214,1.6461,1.6815,1.7308,1.765,1.8002,1.8398,1.8749,1.9203,1.9611,1.9901,2.0284,2.0596,2.07,2.07,2.07,2.07,2.07,2.07,2.07,2.07,2.07,2.07,2.07,2.07,2.0676,2.0567,2.0337,2.0108,1.9929,1.9857,1.9672,1.9691,1.9964,2.0084,2.0298,2.0534,2.0599,2.0573,2.0426,1.99,1.9525,1.9406,1.9197,1.9068,1.9088,1.9128,1.9136,1.9149,1.9149,1.9181,1.9197,1.971,2.0011,2.0043,2.0043,2.0043,2.0043,2.0011,1.9883,1.9444,1.938,1.8932,1.8419,1.8001,1.7711,1.7335,1.7087,1.7054,1.7063,1.7149,1.7307,1.7444,1.754,1.7586,1.7882,1.8382,1.8885,1.9403,1.9518,1.9506,1.9506,1.9471,1.9471,1.9541,1.9576,1.9692,1.9831,2.0005,2.0249,2.0422,2.0492,2.0596,1.6223,1.6223,1.6223,1.6223,1.6223,1.6223,1.6223,1.6223,1.6223,1.6223,1.6223,1.6223,1.6223,1.6223,1.6223,1.6223,1.6223,1.6223,1.6223,1.6223,1.6223,1.6223,1.6214,1.6285,1.6673,1.7238,1.7449,1.7766,1.8363,1.8503,1.8924,1.9576,1.9727,2.0075,2.0596,2.0665,2.07,2.07,2.07,2.07,2.07,2.07,2.07,2.07,2.07,2.07,2.07,2.07,2.0688,2.0591,2.035,2.0217,2.0158,1.995,1.9851,1.9959,2.0175,2.0343,2.0409,2.0363,2.0265,1.9993,1.9262,1.8825,1.8571,1.8505,1.8438,1.8472,1.8671,1.8847,1.8858,1.8813,1.8813,1.8923,1.9078,1.9313,1.9409,1.936,1.9372,1.934,1.8904,1.8627,1.8413,1.8015,1.7519,1.6915,1.6622,1.6373,1.6032,1.5883,1.5913,1.5829,1.5883,1.6055,1.6211,1.6299,1.6416,1.6572,1.7017,1.7473,1.811,1.8646,1.8692,1.8727,1.8528,1.8493,1.8738,1.8912,1.9087,1.9098,1.9401,1.9541,2.0005,2.0214,2.0353,1.6223,1.6223,1.6223,1.6223,1.6223,1.6223,1.6223,1.6223,1.6223,1.6223,1.6223,1.6223,1.6223,1.6223,1.6223,1.6223,1.6223,1.6223,1.6223,1.6223,1.6223,1.6223,1.6223,1.6223,1.6497,1.6981,1.7238,1.7625,1.8117,1.8328,1.8784,1.9262,1.9541,1.9889,2.0388,2.0631,2.07,2.07,2.07,2.07,2.07,2.07,2.07,2.07,2.07,2.07,2.07,2.07,2.07,2.0676,2.0555,2.047,2.0446,2.0195,2.0096,2.0083,2.0121,2.0135,2.0069,1.9869,1.9456,1.9022,1.8284,1.7745,1.7499,1.7385,1.7284,1.751,1.7756,1.7857,1.7891,1.7891,1.7891,1.7837,1.7995,1.8288,1.8855,1.901,1.8888,1.8626,1.8222,1.7664,1.7423,1.6886,1.6303,1.5793,1.5623,1.5291,1.4943,1.4849,1.4864,1.486,1.4976,1.5192,1.5364,1.5446,1.542,1.5566,1.5664,1.6134,1.6725,1.7429,1.7499,1.7474,1.7474,1.7545,1.7685,1.7826,1.7861,1.8002,1.8412,1.8912,1.9297,1.9552,1.9761,1.6223,1.6223,1.6223,1.6223,1.6223,1.6223,1.6223,1.6223,1.6223,1.6223,1.6223,1.6223,1.6223,1.6223,1.6223,1.6223,1.6223,1.6223,1.6223,1.6223,1.6223,1.6223,1.6223,1.6223,1.6426,1.677,1.7122,1.752,1.7942,1.8258,1.8608,1.9052,1.9436,1.9796,2.0179,2.0492,2.0665,2.07,2.07,2.07,2.07,2.07,2.07,2.07,2.07,2.07,2.07,2.07,2.07,2.07,2.07,2.0676,2.0652,2.0458,2.0374,2.0291,2.0079,1.9891,1.9675,1.9183,1.853,1.8045,1.7083,1.643,1.6411,1.6226,1.6192,1.6553,1.6542,1.6704,1.6739,1.663,1.6694,1.6773,1.6688,1.7256,1.8159,1.8564,1.8429,1.8059,1.7644,1.7071,1.653,1.5987,1.5458,1.4533,1.4391,1.4179,1.3942,1.3883,1.3976,1.4146,1.4275,1.4482,1.4576,1.4662,1.4618,1.4617,1.4537,1.4822,1.5248,1.578,1.5957,1.6072,1.6169,1.6214,1.6285,1.6426,1.6558,1.6875,1.7334,1.7931,1.8457,1.8598,1.8773,1.6223,1.6223,1.6223,1.6223,1.6223,1.6223,1.6223,1.6223,1.6223,1.6223,1.6223,1.6223,1.6223,1.6223,1.6223,1.6223,1.6223,1.6223,1.6223,1.6223,1.6223,1.6223,1.6223,1.6223,1.6391,1.6699,1.7097,1.752,1.7861,1.8188,1.8573,1.8982,1.9332,1.975,2.0075,2.0422,2.07,2.07,2.07,2.07,2.0712,2.0724,2.0736,2.0749,2.0749,2.0724,2.07,2.07,2.07,2.07,2.0712,2.0736,2.0688,2.064,2.0591,2.051,2.021,1.9887,1.9508,1.8852,1.8157,1.7409,1.6424,1.5791,1.5756,1.5412,1.5421,1.5791,1.6081,1.6209,1.6209,1.6273,1.6209,1.6199,1.6244,1.6358,1.6723,1.6991,1.7109,1.6909,1.6434,1.5793,1.5292,1.4738,1.4113,1.3402,1.317,1.3059,1.3054,1.3071,1.3246,1.3517,1.3565,1.37,1.3768,1.3833,1.3833,1.3797,1.3761,1.3619,1.4039,1.4359,1.4652,1.4795,1.4901,1.4937,1.5008,1.5363,1.5603,1.5921,1.6204,1.6805,1.7263,1.7499,1.7826,1.6223,1.6223,1.6223,1.6223,1.6223,1.6223,1.6223,1.6223,1.6223,1.6223,1.6223,1.6223,1.6223,1.6223,1.6223,1.6223,1.6223,1.6223,1.6223,1.6223,1.6223,1.6223,1.6223,1.6223,1.632,1.6523,1.684,1.7228,1.7625,1.8012,1.8317,1.8714,1.9122,1.9471,1.9831,2.0214,2.0492,2.0665,2.07,2.07,2.0712,2.0833,2.0978,2.1051,2.1087,2.1087,2.1099,2.1064,2.1087,2.1051,2.0954,2.0821,2.0712,2.07,2.07,2.0631,2.0144,1.9727,1.9192,1.8387,1.7464,1.6583,1.5603,1.5106,1.4857,1.4573,1.4715,1.5035,1.539,1.5647,1.5647,1.5647,1.5647,1.5612,1.5612,1.5621,1.569,1.6085,1.6333,1.6115,1.5658,1.5102,1.4492,1.3911,1.3456,1.3048,1.2951,1.2838,1.2896,1.2887,1.2824,1.2948,1.2922,1.2917,1.2924,1.2968,1.3075,1.3111,1.3146,1.2939,1.2975,1.3225,1.344,1.3619,1.3868,1.3726,1.386,1.4252,1.4608,1.4786,1.5106,1.5638,1.6063,1.6381,1.6734,1.6223,1.6223,1.6223,1.6223,1.6223,1.6223,1.6223,1.6223,1.6223,1.6223,1.6223,1.6223,1.6223,1.6223,1.6223,1.6223,1.6223,1.6223,1.6223,1.6223,1.6223,1.6223,1.6223,1.6223,1.6214,1.6214,1.6558,1.6946,1.7344,1.7685,1.8153,1.8433,1.8819,1.9227,1.9576,1.9936,2.0318,2.0631,2.07,2.0749,2.0809,2.0978,2.1184,2.1389,2.1402,2.1402,2.139,2.1402,2.1438,2.1498,2.1281,2.1039,2.0833,2.0712,2.07,2.0665,2.004,1.9436,1.8808,1.7861,1.6779,1.5603,1.475,1.4225,1.3932,1.3753,1.3868,1.4261,1.4617,1.483,1.483,1.4724,1.4724,1.4688,1.4688,1.4652,1.4795,1.5328,1.5425,1.5566,1.5185,1.4674,1.4063,1.3488,1.308,1.2753,1.2681,1.2646,1.2646,1.261,1.2473,1.2394,1.2352,1.2323,1.233,1.2366,1.2402,1.2474,1.2545,1.2402,1.2158,1.2338,1.2617,1.276,1.2868,1.2868,1.2975,1.3325,1.3575,1.3646,1.3932,1.443,1.4857,1.5248,1.5683,1.6223,1.6223,1.6223,1.6223,1.6223,1.6223,1.6223,1.6223,1.6223,1.6223,1.6223,1.6223,1.6223,1.6223,1.6223,1.6223,1.6223,1.6223,1.6223,1.6223,1.6223,1.6223,1.6223,1.6223,1.6223,1.6285,1.6523,1.6875,1.7273,1.7731,1.8002,1.8398,1.8784,1.9157,1.9506,1.9936,2.0249,2.0608,2.0702,2.0821,2.0978,2.1135,2.1317,2.1523,2.1571,2.1559,2.1559,2.1498,2.1474,2.1474,2.1474,2.1305,2.1075,2.0857,2.0736,2.0527,2.0028,1.9332,1.8552,1.7464,1.631,1.5221,1.4189,1.3611,1.3325,1.2939,1.3047,1.3476,1.386,1.4082,1.4082,1.3896,1.3646,1.3575,1.3468,1.3333,1.3396,1.3718,1.4288,1.4724,1.4581,1.4296,1.3646,1.3082,1.2653,1.2295,1.2151,1.2079,1.2079,1.2008,1.1893,1.1821,1.1756,1.1727,1.1727,1.1792,1.1828,1.19,1.1972,1.1972,1.1799,1.1727,1.1835,1.2151,1.233,1.2438,1.2545,1.2617,1.2796,1.3047,1.3146,1.3253,1.3825,1.4395,1.4715,1.6119,1.6214,1.6223,1.6223,1.6223,1.6223,1.6223,1.6223,1.6223,1.6223,1.6223,1.6223,1.6223,1.6223,1.6223,1.6223,1.6223,1.6223,1.6223,1.6223,1.6223,1.6223,1.6223,1.6223,1.6223,1.6249,1.6391,1.6664,1.7026,1.7379,1.7791,1.8142,1.8503,1.8889,1.9262,1.9657,2.0005,2.0377,2.0681,2.0954,2.1135,2.1329,2.1643,2.1837,2.1909,2.1921,2.1921,2.1921,2.1921,2.1909,2.1788,2.1655,2.1438,2.1135,2.0845,2.0609,2.0005,1.9262,1.8377,1.7323,1.6204,1.5079,1.3932,1.3253,1.2968,1.2653,1.2474,1.2932,1.3325,1.3503,1.3361,1.3289,1.3218,1.3075,1.286,1.2789,1.2824,1.2932,1.3396,1.3904,1.3797,1.3575,1.3225,1.2689,1.2223,1.1907,1.1655,1.1584,1.1584,1.1584,1.1584,1.1619,1.1619,1.1619,1.1584,1.1584,1.1584,1.1584,1.1584,1.1584,1.1584,1.1619,1.1655,1.1835,1.1943,1.2079,1.2008,1.2043,1.2259,1.2438,1.2545,1.276,1.3075,1.3468,1.3825,1.5939,1.6091,1.6103,1.6157,1.6157,1.6169,1.6223,1.6223,1.6223,1.6223,1.6223,1.6223,1.6223,1.6223,1.6223,1.6223,1.6223,1.6223,1.6223,1.6223,1.6223,1.6223,1.6223,1.6223,1.6223,1.6223,1.6214,1.6391,1.677,1.7168,1.752,1.7931,1.8258,1.8608,1.9028,1.9343,1.9692,2.0168,2.0566,2.0921,2.1245,2.1692,2.2066,2.2272,2.2308,2.2272,2.2236,2.2236,2.2236,2.2187,2.2091,2.1946,2.1837,2.1438,2.1063,2.0728,2.004,1.9227,1.8342,1.7218,1.6098,1.5044,1.394,1.3253,1.2824,1.2545,1.2338,1.2653,1.3003,1.3111,1.2968,1.2968,1.2896,1.2753,1.2574,1.2545,1.251,1.2545,1.2653,1.2939,1.2968,1.2904,1.2653,1.2545,1.2122,1.1835,1.1584,1.1584,1.1584,1.1584,1.1584,1.1584,1.1619,1.1619,1.1584,1.1584,1.1584,1.1584,1.1584,1.1584,1.1584,1.1619,1.1655,1.1691,1.1691,1.1763,1.1619,1.1619,1.1871,1.2051,1.2051,1.2266,1.2617,1.2796,1.3047,1.5646,1.5684,1.5863,1.593,1.5968,1.6129,1.6214,1.6223,1.6223,1.6223,1.6223,1.6223,1.6223,1.6223,1.6223,1.6223,1.6223,1.6223,1.6223,1.6223,1.6223,1.6223,1.6223,1.6223,1.6223,1.6223,1.6223,1.6391,1.6664,1.7062,1.7485,1.7826,1.8188,1.8573,1.8889,1.9098,1.9448,1.9982,2.0203,2.0697,2.139,2.1958,2.2212,2.2284,2.2308,2.2308,2.2308,2.2308,2.2308,2.2296,2.2272,2.2127,2.1909,2.1631,2.1341,2.0863,2.0181,1.9251,1.8377,1.7228,1.6072,1.5115,1.4003,1.3253,1.276,1.2438,1.223,1.2266,1.2617,1.2753,1.261,1.251,1.2366,1.2187,1.2043,1.19,1.1864,1.2187,1.2266,1.2266,1.2402,1.2409,1.2266,1.2194,1.2086,1.1799,1.1584,1.1584,1.1584,1.1584,1.1584,1.1584,1.1584,1.1584,1.1584,1.1584,1.1584,1.1584,1.1584,1.1584,1.1584,1.1584,1.1584,1.1619,1.1584,1.1584,1.1584,1.1619,1.1655,1.1691,1.1799,1.1979,1.2194,1.2302,1.2373,1.5347,1.5608,1.5693,1.5797,1.5901,1.5996,1.611,1.6204,1.6223,1.6223,1.6223,1.6223,1.6223,1.6223,1.6223,1.6223,1.6223,1.6223,1.6223,1.6223,1.6223,1.6223,1.6223,1.6223,1.6223,1.6223,1.6223,1.6214,1.6532,1.6805,1.7157,1.759,1.7942,1.8293,1.8714,1.8878,1.9297,1.9877,2.0474,2.1174,2.1655,2.2079,2.2296,2.2296,2.2296,2.2308,2.2308,2.2308,2.2308,2.2308,2.2308,2.226,2.2054,2.1764,2.1438,2.1305,2.0427,1.9564,1.8738,1.751,1.6417,1.5363,1.4288,1.3333,1.2689,1.233,1.2086,1.1871,1.223,1.2366,1.2259,1.2194,1.2051,1.1907,1.1835,1.1763,1.1727,1.1691,1.1871,1.1835,1.1871,1.1943,1.1979,1.1907,1.1871,1.1763,1.1584,1.1584,1.1584,1.1584,1.1584,1.1584,1.1584,1.1584,1.1584,1.1584,1.1584,1.1584,1.1584,1.1584,1.1584,1.1584,1.1584,1.1584,1.1584,1.1584,1.1584,1.1619,1.1619,1.1619,1.1619,1.1763,1.1907,1.1878,1.2071,1.512,1.5437,1.546,1.5598,1.575,1.5845,1.5987,1.6129,1.616,1.6223,1.6223,1.6223,1.6223,1.6223,1.6223,1.6223,1.6223,1.6223,1.6223,1.6223,1.6223,1.6223,1.6223,1.6223,1.6223,1.6223,1.6223,1.6214,1.6285,1.6497,1.6815,1.7308,1.7766,1.8072,1.8398,1.8714,1.9052,1.9645,2.058,2.1234,2.1631,2.1994,2.2139,2.2212,2.226,2.2308,2.2308,2.2308,2.2308,2.2308,2.2308,2.2284,2.2199,2.18,2.1498,2.1294,2.065,2.0017,1.9157,1.8142,1.6971,1.578,1.4608,1.3511,1.276,1.2402,1.2194,1.1871,1.2051,1.2051,1.1907,1.2086,1.2158,1.2122,1.2008,1.1936,1.19,1.2015,1.2015,1.1979,1.1943,1.1799,1.1763,1.1655,1.1619,1.1619,1.1584,1.1584,1.1584,1.1584,1.1584,1.1584,1.1584,1.1584,1.1584,1.1584,1.1584,1.1584,1.1584,1.1584,1.1584,1.1584,1.1584,1.1584,1.1584,1.1584,1.1584,1.1584,1.1584,1.1584,1.1584,1.1584,1.1655,1.164,1.1805,1.4917,1.4988,1.5144,1.5238,1.5294,1.5731,1.5901,1.5968,1.6138,1.6223,1.6223,1.6223,1.6223,1.6223,1.6223,1.6223,1.6223,1.6223,1.6223,1.6223,1.6223,1.6223,1.6223,1.6223,1.6223,1.6223,1.6223,1.6223,1.6223,1.6259,1.6709,1.7238,1.759,1.8012,1.8328,1.8573,1.8947,1.9528,2.0356,2.0852,2.1258,2.1643,2.1921,2.1982,2.2151,2.2296,2.2296,2.2296,2.2308,2.2308,2.2308,2.2248,2.2151,2.1776,2.1498,2.1305,2.092,2.0319,1.9657,1.8633,1.7379,1.6143,1.4937,1.386,1.3225,1.2896,1.2581,1.2266,1.2266,1.223,1.2194,1.2194,1.2373,1.2438,1.2402,1.2402,1.2438,1.251,1.2438,1.223,1.2122,1.2051,1.1979,1.1972,1.1691,1.1655,1.1619,1.1584,1.1584,1.1584,1.1584,1.1584,1.1584,1.1584,1.1584,1.1584,1.1584,1.1584,1.1584,1.1584,1.1584,1.1584,1.1584,1.1584,1.1584,1.1584,1.1584,1.1584,1.1584,1.1584,1.1584,1.1597,1.1658,1.1755,1.1932,1.4898,1.4908,1.4983,1.5087,1.5219,1.5589,1.5778,1.592,1.6093,1.6223,1.6223,1.6223,1.6223,1.6223,1.6223,1.6223,1.6223,1.6223,1.6223,1.6223,1.6223,1.6223,1.6223,1.6223,1.6223,1.6223,1.6223,1.6223,1.6223,1.6223,1.6461,1.6911,1.7334,1.7721,1.8047,1.8538,1.9017,1.9493,2.0122,2.0663,2.1065,2.139,2.1667,2.1692,2.1921,2.2042,2.2079,2.2224,2.2272,2.2284,2.2272,2.2187,2.2042,2.1643,2.145,2.1281,2.0894,2.0528,2.0075,1.9098,1.7907,1.6426,1.5399,1.4608,1.3896,1.3547,1.3146,1.2832,1.2553,1.2567,1.2581,1.2581,1.2653,1.2753,1.286,1.2932,1.3003,1.3111,1.2932,1.2725,1.2617,1.251,1.2474,1.2395,1.2008,1.172,1.1655,1.1584,1.1584,1.1584,1.1584,1.1584,1.1584,1.1584,1.1584,1.1584,1.1584,1.1584,1.1584,1.1584,1.1584,1.1584,1.1584,1.1584,1.1584,1.1584,1.1584,1.1584,1.1584,1.1584,1.164,1.166,1.1748,1.1864,1.206,1.4898,1.4898,1.4898,1.4974,1.5134,1.5375,1.5545,1.5706,1.5961,1.6167,1.6214,1.6223,1.6223,1.6223,1.6223,1.6223,1.6223,1.6223,1.6223,1.6223,1.6223,1.6223,1.6223,1.6223,1.6223,1.6223,1.6223,1.6223,1.6223,1.6223,1.6355,1.6603,1.6946,1.7369,1.7966,1.8468,1.9017,1.9517,1.9935,2.0521,2.0897,2.1232,2.1389,2.1426,2.1643,2.1776,2.1825,2.1921,2.1994,2.2006,2.2006,2.1946,2.1764,2.1547,2.1305,2.1087,2.0847,2.0539,2.0179,1.9378,1.8317,1.7026,1.6417,1.5567,1.4759,1.433,1.4029,1.3261,1.3113,1.3064,1.3141,1.3182,1.344,1.3654,1.3797,1.3868,1.3833,1.3833,1.3547,1.3261,1.319,1.3075,1.2753,1.2646,1.2402,1.2086,1.1943,1.1799,1.1584,1.1584,1.1584,1.1584,1.1584,1.1584,1.1584,1.1584,1.1584,1.1584,1.1584,1.1584,1.1584,1.1584,1.1584,1.1584,1.1584,1.1584,1.1584,1.1584,1.1584,1.1584,1.164,1.1674,1.1857,1.1986,1.2135,1.4898,1.4898,1.4898,1.4908,1.4955,1.5125,1.5228,1.5366,1.5725,1.6024,1.6176,1.6204,1.6223,1.6223,1.6223,1.6223,1.6223,1.6223,1.6223,1.6223,1.6223,1.6223,1.6223,1.6223,1.6223,1.6223,1.6223,1.6223,1.6223,1.6223,1.6259,1.6355,1.6734,1.7228,1.7861,1.8223,1.8773,1.9401,1.9564,2.0075,2.06,2.0932,2.1087,2.1172,2.1365,2.151,2.1547,2.1631,2.1692,2.1692,2.168,2.1619,2.151,2.1293,2.1123,2.1039,2.0833,2.0678,2.0596,1.9587,1.8759,1.7952,1.7389,1.6748,1.5844,1.5355,1.5028,1.4339,1.395,1.3834,1.3878,1.3975,1.4332,1.4581,1.4724,1.4759,1.4759,1.4724,1.4474,1.4252,1.3967,1.3682,1.3182,1.286,1.2725,1.2481,1.2266,1.2051,1.1835,1.1828,1.19,1.1864,1.1864,1.1763,1.1763,1.1655,1.1584,1.1584,1.1584,1.1584,1.1584,1.1584,1.1584,1.1584,1.1584,1.1584,1.1584,1.1584,1.1584,1.1584,1.1647,1.1714,1.1955,1.2132,1.2237,1.4898,1.4898,1.4898,1.4898,1.4927,1.5115,1.52,1.5276,1.5693,1.593,1.6024,1.6138,1.6223,1.6223,1.6223,1.6223,1.6223,1.6223,1.6223,1.6223,1.6223,1.6223,1.6223,1.6223,1.6223,1.6223,1.6223,1.6223,1.6223,1.6223,1.6223,1.632,1.6744,1.7379,1.7861,1.8258,1.8679,1.9157,1.9471,1.9831,2.0261,2.0623,2.0857,2.0834,2.1111,2.1232,2.1244,2.1353,2.1438,2.1414,2.1438,2.1389,2.1281,2.1075,2.1002,2.0894,2.0712,2.0712,2.0726,2.032,1.9841,1.9023,1.8432,1.7938,1.7112,1.6829,1.6277,1.5667,1.5223,1.5152,1.5254,1.5141,1.531,1.5621,1.5718,1.5753,1.5718,1.5718,1.5612,1.547,1.5257,1.483,1.4359,1.4039,1.3833,1.344,1.3225,1.2725,1.2402,1.2438,1.2474,1.2366,1.2295,1.2122,1.1979,1.1871,1.1727,1.1691,1.1655,1.1584,1.1584,1.1584,1.1584,1.1584,1.1584,1.1584,1.1584,1.1584,1.1584,1.159,1.1701,1.1796,1.2009,1.2186,1.2298,1.4898,1.4898,1.4898,1.4898,1.4917,1.504,1.5125,1.5238,1.5526,1.5712,1.5826,1.6006,1.61,1.6119,1.6185,1.6223,1.6223,1.6223,1.6223,1.6223,1.6223,1.6223,1.6223,1.6223,1.6223,1.6223,1.6223,1.6223,1.6223,1.6223,1.6223,1.6365,1.6779,1.7193,1.7685,1.8117,1.8608,1.8982,1.9297,1.9622,2.0005,2.0342,2.0585,2.0726,2.0869,2.0954,2.1015,2.1123,2.1244,2.1244,2.122,2.116,2.1015,2.093,2.0869,2.0749,2.07,2.07,2.0726,2.0907,2.0427,1.9911,1.9598,1.9173,1.8543,1.8091,1.7536,1.7021,1.6671,1.6531,1.65,1.633,1.6503,1.6777,1.6921,1.6946,1.6946,1.6946,1.677,1.6664,1.6417,1.5992,1.5576,1.5363,1.5115,1.4679,1.4217,1.3646,1.3075,1.3003,1.3003,1.2896,1.2717,1.2545,1.2295,1.2086,1.1943,1.1835,1.1727,1.1655,1.1584,1.1584,1.1584,1.1584,1.1584,1.1584,1.1584,1.1584,1.1611,1.1728,1.183,1.1932,1.2084,1.2234,1.2352,1.4898,1.4898,1.4898,1.4898,1.4908,1.4917,1.5021,1.5181,1.521,1.5366,1.5598,1.5797,1.5911,1.5949,1.611,1.6204,1.6223,1.6223,1.6223,1.6223,1.6223,1.6223,1.6223,1.6223,1.6223,1.6223,1.6223,1.6223,1.6223,1.6223,1.6223,1.6285,1.6593,1.6946,1.7404,1.7942,1.8468,1.8773,1.9052,1.9448,1.9866,2.011,2.0388,2.0585,2.0749,2.0773,2.0785,2.0821,2.0809,2.0785,2.0761,2.0736,2.0712,2.0712,2.07,2.07,2.07,2.07,2.0749,2.0954,2.1123,2.0769,2.0852,2.0441,1.9938,1.9338,1.8848,1.8289,1.7896,1.7769,1.7671,1.7755,1.7857,1.8082,1.8293,1.8307,1.8307,1.8201,1.7956,1.7745,1.7499,1.7112,1.6628,1.6391,1.6394,1.5921,1.5416,1.4822,1.4217,1.3503,1.3468,1.3361,1.3182,1.2968,1.2717,1.2545,1.2295,1.2223,1.1907,1.1763,1.1691,1.1619,1.1584,1.1584,1.1584,1.1597,1.1638,1.1665,1.1714,1.1816,1.1959,1.2047,1.2186,1.2288,1.2386,1.4898,1.4898,1.4898,1.4898,1.4898,1.4898,1.4936,1.5002,1.5125,1.5281,1.5337,1.5589,1.574,1.5901,1.5958,1.6081,1.6167,1.6223,1.6223,1.6223,1.6223,1.6223,1.6223,1.6223,1.6223,1.6223,1.6223,1.6223,1.6223,1.6223,1.6223,1.6259,1.6487,1.6734,1.7122,1.7661,1.8142,1.8528,1.8808,1.9227,1.9657,1.9936,2.0249,2.0527,2.07,2.07,2.07,2.07,2.07,2.07,2.07,2.07,2.07,2.07,2.07,2.07,2.07,2.0712,2.0749,2.0942,2.116,2.1365,2.1462,2.1387,2.0943,2.0529,2.0109,1.9596,1.9213,1.9096,1.9002,1.9022,1.9077,1.9184,1.9341,1.9329,1.9329,1.9259,1.9014,1.8893,1.8647,1.8294,1.7799,1.7743,1.7693,1.7198,1.6699,1.6108,1.539,1.4679,1.4217,1.4145,1.3896,1.3753,1.3361,1.3154,1.2868,1.2581,1.2259,1.2015,1.1943,1.1835,1.1691,1.164,1.1687,1.1728,1.1732,1.1796,1.1823,1.1965,1.2108,1.2176,1.2244,1.2345,1.2413,1.4898,1.4898,1.4898,1.4898,1.4898,1.4898,1.4898,1.4927,1.503,1.5078,1.5106,1.5337,1.5498,1.5611,1.5807,1.5968,1.6081,1.6185,1.6223,1.6223,1.6223,1.6223,1.6223,1.6223,1.6223,1.6223,1.6223,1.6223,1.6223,1.6223,1.6223,1.6223,1.6461,1.6558,1.6875,1.7334,1.7791,1.8177,1.8563,1.8947,1.9332,1.9727,2.011,2.0422,2.0596,2.0665,2.07,2.07,2.07,2.07,2.07,2.07,2.07,2.07,2.07,2.07,2.07,2.07,2.0749,2.0942,2.122,2.1486,2.174,2.1786,2.1647,2.1356,2.1104,2.0793,2.0579,2.0407,2.0303,2.0234,2.0235,2.0204,2.0216,2.0204,2.0192,2.0192,2.0122,2.0026,1.9766,1.9457,1.9222,1.9189,1.9003,1.8616,1.828,1.7849,1.6996,1.6028,1.5532,1.5292,1.4928,1.4608,1.4252,1.3896,1.3503,1.3146,1.2717,1.2474,1.2295,1.2072,1.1906,1.1823,1.1782,1.1843,1.1911,1.1925,1.1965,1.2115,1.223,1.2277,1.2338,1.2413,1.2467,1.4898,1.4898,1.4898,1.4898,1.4898,1.4898,1.4898,1.4898,1.4917,1.4908,1.4946,1.5096,1.52,1.5332,1.5583,1.5816,1.5949,1.6081,1.6176,1.6214,1.6223,1.6223,1.6223,1.6223,1.6223,1.6223,1.6223,1.6223,1.6223,1.6223,1.6223,1.6223,1.6223,1.6355,1.6628,1.7017,1.7439,1.7826,1.8188,1.8608,1.9017,1.9401,1.975,2.011,2.0422,2.0631,2.0665,2.07,2.07,2.07,2.07,2.07,2.07,2.07,2.07,2.07,2.07,2.07,2.0736,2.0894,2.1135,2.1426,2.1716,2.1885,2.1833,2.1851,2.1686,2.1585,2.1368,2.1203,2.1067,2.1035,2.0993,2.09,2.0816,2.0852,2.0816,2.0816,2.0793,2.0721,2.0566,2.0291,2.0255,2.0185,2.0032,1.9832,1.9645,1.9306,1.8684,1.7582,1.7005,1.658,1.6072,1.5709,1.5425,1.4999,1.4288,1.3825,1.3325,1.2896,1.2653,1.241,1.2135,1.2088,1.2052,1.2074,1.2104,1.2081,1.2128,1.225,1.2345,1.2379,1.2433,1.2481,1.2494,1.4898,1.4898,1.4898,1.4898,1.4898,1.4898,1.4898,1.4898,1.4898,1.4898,1.4917,1.4964,1.5059,1.521,1.5323,1.5555,1.5863,1.5968,1.6072,1.6176,1.6223,1.6223,1.6223,1.6223,1.6223,1.6223,1.6223,1.6223,1.6223,1.6223,1.6223,1.6223,1.6223,1.6285,1.6391,1.6744,1.7087,1.752,1.7907,1.8398,1.8924,1.9133,1.9378,1.9866,2.0261,2.0457,2.0561,2.07,2.07,2.07,2.07,2.07,2.07,2.07,2.07,2.07,2.07,2.07,2.0724,2.0797,2.0978,2.1208,2.1474,2.1728,2.1921,2.2064,2.2147,2.2109,2.2024,2.1892,2.1785,2.1738,2.1666,2.1523,2.1414,2.1414,2.1414,2.1402,2.139,2.1354,2.1246,2.1221,2.1197,2.1089,2.1006,2.0814,2.0647,2.0385,2.0099,1.9302,1.8727,1.8201,1.7314,1.6895,1.6613,1.6091,1.5364,1.4661,1.4181,1.3646,1.3126,1.2772,1.2538,1.2432,1.2382,1.233,1.2292,1.223,1.2298,1.2386,1.242,1.244,1.2454,1.2494,1.2501,1.4898,1.4898,1.4898,1.4898,1.4898,1.4898,1.4898,1.4898,1.4898,1.4898,1.4898,1.4908,1.4964,1.5096,1.5153,1.5375,1.574,1.5863,1.6034,1.6167,1.6214,1.6223,1.6223,1.6223,1.6223,1.6223,1.6223,1.6223,1.6223,1.6223,1.6223,1.6223,1.6223,1.6223,1.6249,1.6523,1.6875,1.7308,1.7696,1.8188,1.8749,1.8924,1.9238,1.9727,2.004,2.0284,2.0561,2.07,2.07,2.07,2.07,2.07,2.07,2.07,2.07,2.07,2.07,2.07,2.07,2.0736,2.0821,2.1063,2.1353,2.1667,2.1921,2.2065,2.2247,2.2221,2.2221,2.2076,2.2064,2.2041,2.1896,2.1788,2.1704,2.1692,2.1752,2.1788,2.1836,2.186,2.1798,2.1798,2.181,2.1774,2.1653,2.1485,2.1352,2.1221,2.0955,2.0773,2.0277,1.9795,1.891,1.8212,1.7836,1.7176,1.6399,1.5711,1.5114,1.4451,1.3914,1.3324,1.2925,1.2848,1.27,1.2571,1.2512,1.2397,1.2386,1.2454,1.2474,1.2494,1.2501,1.2501,1.2501,1.487,1.4898,1.4898,1.4898,1.4898,1.4898,1.4898,1.4898,1.4898,1.4898,1.4898,1.4898,1.4898,1.4964,1.5078,1.5319,1.5541,1.5721,1.5949,1.6119,1.616,1.6214,1.6223,1.6223,1.6223,1.6223,1.6223,1.6223,1.6223,1.6223,1.6223,1.6223,1.6223,1.6223,1.6285,1.6461,1.677,1.7157,1.7545,1.7942,1.8363,1.8703,1.9087,1.9471,1.9866,2.0249,2.0492,2.0665,2.0665,2.07,2.07,2.07,2.07,2.07,2.07,2.07,2.07,2.07,2.07,2.0712,2.0833,2.1039,2.1341,2.1607,2.1861,2.2079,2.2224,2.2308,2.2308,2.2296,2.2284,2.2248,2.2103,2.2018,2.1982,2.1946,2.2054,2.2139,2.2199,2.226,2.226,2.2248,2.226,2.2272,2.2187,2.2006,2.1897,2.1788,2.1667,2.152,2.1229,2.0977,2.053,1.9862,1.9244,1.8441,1.7622,1.6982,1.6362,1.5479,1.4686,1.4098,1.3627,1.3286,1.3144,1.2888,1.2685,1.2531,1.2526,1.2501,1.2501,1.2501,1.2501,1.2501,1.2501,1.4757,1.4898,1.4898,1.4898,1.4898,1.4898,1.4898,1.4898,1.4898,1.4898,1.4898,1.4898,1.4898,1.4898,1.4927,1.5087,1.5356,1.557,1.5759,1.5939,1.6065,1.615,1.6178,1.616,1.6214,1.6223,1.6223,1.6223,1.6223,1.6223,1.6223,1.6223,1.6223,1.6223,1.6223,1.6391,1.6532,1.6911,1.7298,1.7661,1.8047,1.8387,1.8714,1.9087,1.9506,1.9866,2.0179,2.0527,2.0631,2.07,2.0712,2.0712,2.0749,2.0761,2.0773,2.0821,2.0809,2.0761,2.0773,2.0724,2.0821,2.0845,2.1148,2.1486,2.1764,2.2042,2.2187,2.2296,2.2308,2.2308,2.2296,2.2296,2.2199,2.2199,2.2175,2.2175,2.2224,2.2248,2.2272,2.2284,2.2284,2.2284,2.2284,2.2296,2.2284,2.2175,2.2163,2.2079,2.2054,2.2079,2.2091,2.1919,2.171,2.1337,2.0643,1.9804,1.9025,1.8378,1.758,1.6681,1.578,1.4923,1.4438,1.3999,1.3478,1.3053,1.2888,1.2656,1.254,1.2501,1.2501,1.2501,1.2501,1.2501,1.2501]},{"header":{"parameterUnit":"m.s-1","parameterCategory":1,"la1":31.0,"la2":29.5877,"lo1":-88.7671,"lo2":-86.6584,"dy":0.0162,"dx":0.0185,"nx":115,"ny":88,"refTime":"2023-09-18T06:00:00:Z","depth":0,"parameterNumber":3,"parameterNumberName":"V-component_of_WINDS"},"data":[0.0,0.0,0.0,0.0,0.0,0.0,0.0,0.0,0.0,0.0,0.0,0.0,0.0,0.0,0.0,0.0,0.0,0.0,0.0,0.0,0.0,0.0,0.0,0.0,0.0,0.0,0.0,0.0,0.0,0.0,0.0,0.0,0.0,0.0,0.0,0.0,0.0,0.0,0.0,0.0,0.0,0.0,0.0,0.0,0.0,0.0,0.0,0.0,0.0,0.0,0.0,0.0,0.0,0.0,0.0,0.0,0.0,0.0,0.0,0.0,0.0,0.0,0.0,0.0,0.0,0.0,0.0,0.0,0.0,0.0,0.0,0.0,0.0,0.0,0.0,0.0,0.0,0.0,0.0,0.0,0.0,0.0,0.0,0.0,0.0,0.0,0.0,0.0,0.0,0.0,0.0,0.0,0.0,0.0,0.0,0.0,0.0,0.0,0.0,0.0,0.0,0.0,0.0,0.0,0.0,0.0,0.0,0.0,0.0,0.0,0.0,0.0,0.0,0.0,0.0,0.0,0.0,0.0,0.0,0.0,0.0,0.0,0.0,0.0,0.0,0.0,0.0,0.0,0.0,0.0,0.0,0.0,0.0,0.0,0.0,0.0,0.0,0.0,0.0,0.0,0.0,0.0,0.0,0.0,0.0,0.0,0.0,0.0,0.0,0.0,0.0,0.0,0.0,0.0,0.0,0.0,0.0,0.0,0.0,0.0,0.0,0.0,0.0,0.0,0.0,0.0,0.0,0.0,0.0,0.0,0.0,0.0,0.0,0.0,0.0,0.0,0.0,0.0,0.0,0.0,0.0,0.0,0.0,0.0,0.0,0.0,0.0,0.0,0.0,0.0,0.0,0.0,0.0,0.0,0.0,0.0,0.0,0.0,0.0,0.0,0.0,0.0,0.0,0.0,0.0,0.0,0.0,0.0,0.0,0.0,0.0,0.0,0.0,0.0,0.0,0.0,0.0,0.0,0.0,0.0,0.0,0.0,0.0,0.0,0.0,0.0,0.0,0.0,0.0,0.0,0.0,0.0,0.0,0.0,0.0,0.0,0.0,0.0,0.0,0.0,0.0,0.0,0.0,0.0,0.0,0.0,0.0,0.0,0.0,0.0,0.0,0.0,0.0,0.0,0.0,0.0,0.0,0.0,0.0,0.0,0.0,0.0,0.0,0.0,0.0,0.0,0.0,0.0,0.0,0.0,0.0,0.0,0.0,0.0,0.0,0.0,0.0,0.0,0.0,0.0,0.0,0.0,0.0,0.0,0.0,0.0,0.0,0.0,0.0,0.0,0.0,0.0,0.0,0.0,0.0,0.0,0.0,0.0,0.0,0.0,0.0,0.0,0.0,0.0,0.0,0.0,0.0,0.0,0.0,0.0,0.0,0.0,0.0,0.0,0.0,0.0,0.0,0.0,0.0,0.0,0.0,0.0,0.0,0.0,0.0,0.0,0.0,0.0,0.0,0.0,0.0,0.0,0.0,0.0,0.0,0.0,0.0,0.0,0.0,0.0,0.0,0.0,0.0,0.0,0.0,0.0,0.0,0.0,0.0,0.0,0.0,0.0,0.0,0.0,0.0,0.0,0.0,0.0,0.0,0.0,0.0,0.0,0.0,0.0,0.0,0.0,0.0,0.0,0.0,0.0,0.0,0.0,0.0,0.0,0.0,0.0,0.0,0.0,0.0,0.0,0.0,0.0,0.0,0.0,0.0,0.0,0.0,0.0,0.0,0.0,0.0,0.0,0.0,0.0,0.0,0.0,0.0,0.0,0.0,0.0,0.0,0.0,0.0,0.0,0.0,0.0,0.0,0.0,0.0,0.0,0.0,0.0,0.0,0.0,0.0,0.0,0.0,0.0,0.0,0.0,0.0,0.0,0.0,0.0,0.0,0.0,0.0,0.0,0.0,0.0,0.0,0.0,0.0,0.0,0.0,0.0,0.0,0.0,0.0,0.0,0.0,0.0,0.0,0.0,0.0,0.0,0.0,0.0,0.0,0.0,0.0,0.0,0.0,0.0,0.0,0.0,0.0,0.0,0.0,0.0,0.0,0.0,0.0,0.0,0.0,0.0,0.0,0.0,0.0,0.0,0.0,0.0,0.0,0.0,0.0,0.0,0.0,0.0,0.0,0.0,0.0,0.0,0.0,0.0,0.0,0.0,0.0,0.0,0.0,0.0,0.0,0.0,0.0,0.0,0.0,0.0,0.0,0.0,0.0,0.0,0.0,0.0,0.0,0.0,0.0,0.0,0.0,0.0,0.0,0.0,0.0,0.0,0.0,0.0,0.0,0.0,0.0,0.0,0.0,0.0,0.0,0.0,0.0,0.0,0.0,0.0,0.0,0.0,0.0,0.0,0.0,0.0,0.0,0.0,0.0,0.0,0.0,0.0,0.0,0.0,0.0,0.0,0.0,0.0,0.0,0.0,0.0,0.0,0.0,0.0,0.0,0.0,0.0,0.0,0.0,0.0,0.0,0.0,0.0,0.0,0.0,0.0,0.0,0.0,0.0,0.0,0.0,0.0,0.0,0.0,0.0,0.0,0.0,0.0,0.0,0.0,0.0,0.0,0.0,0.0,0.0,0.0,0.0,0.0,0.0,0.0,0.0,0.0,0.0,0.0,0.0,0.0,0.0,0.0,0.0,0.0,0.0,0.0,0.0,0.0,0.0,0.0,0.0,0.0,0.0,0.0,0.0,0.0,0.0,0.0,0.0,0.0,0.0,0.0,0.0,0.0,0.0,0.0,0.0,0.0,0.0,0.0,0.0,0.0,0.0,0.0,0.0,0.0,0.0,0.0,0.0,0.0,0.0,0.0,0.0,0.0,0.0,0.0,0.0,0.0,0.0,0.0,0.0,0.0,0.0,0.0,0.0,0.0,0.0,0.0,0.0,0.0,0.0,0.0,0.0,0.0,0.0,0.0,0.0,0.0,0.0,0.0,0.0,0.0,0.0,0.0,0.0,0.0,0.0,0.0,0.0,0.0,0.0,0.0,0.0,0.0,0.0,0.0,0.0,0.0,0.0,0.0,0.0,0.0,0.0,0.0,0.0,0.0,0.0,0.0,0.0,0.0,0.0,0.0,0.0,0.0,0.0,0.0,0.0,0.0,0.0,0.0,0.0,0.0,0.0,0.0,0.0,0.0,0.0,0.0,0.0,0.0,0.0,0.0,0.0,0.0,0.0,0.0,0.0,0.0,0.0,0.0,0.0,0.0,0.0,0.0,0.0,0.0,0.0,0.0,0.0,0.0,0.0,0.0,0.0,0.0,0.0,0.0,0.0,0.0,0.0,0.0,0.0,0.0,0.0,0.0,0.0,0.0,0.0,0.0,0.0,0.0,0.0,0.0,0.0,0.0,0.0,0.0,0.0,0.0,0.0,0.0,0.0,0.0,0.0,0.0,0.0,0.0,0.0,0.0,0.0,0.0,0.0,0.0,0.0,0.0,0.0,0.0,0.0,0.0,0.0,0.0,0.0,0.0,0.0,0.0,0.0,0.0,0.0,0.0,0.0,0.0,0.0,0.0,0.0,0.0,0.0,0.0,0.0,0.0,0.0,0.0,0.0,0.0,0.0,0.0,0.0,0.0,0.0,0.0,0.0,0.0,0.0,0.0,0.0,0.0,0.0,0.0,0.0,0.0,0.0,0.0,0.0,0.0,0.0,0.0,0.0,0.0,0.0,0.0,0.0,0.0,0.0,0.0,0.0,0.0,0.0,0.0,0.0,0.0,0.0,0.0,0.0,0.0,0.0,0.0,0.0,0.0,0.0,0.0,0.0,0.0,0.0,0.0,0.0,0.0,0.0,0.0,0.0,0.0,0.0,0.0,0.0,0.0,0.0,0.0,0.0,0.0,0.0,0.0,0.0,0.0,0.0,0.0,0.0,0.0,0.0,0.0,0.0,0.0,0.0,0.0,0.0,0.0,0.0,0.0,0.0,0.0,0.0,0.0,0.0,0.0,0.0,0.0,0.0,0.0,0.0,0.0,0.0,0.0,0.0,0.0,0.0,0.0,0.0,0.0,0.0,0.0,0.0,0.0,0.0,0.0,0.0,0.0,0.0,0.0,0.0,0.0,0.0,0.0,0.0,0.0,0.0,0.0,0.0,0.0,0.0,0.0,0.0,0.0,0.0,0.0,0.0,0.0,0.0,0.0,0.0,0.0,0.0,0.0,0.0,0.0,0.0,0.0,0.0,0.0,0.0,0.0,0.0,0.0,0.0,0.0,0.0,0.0,0.0,0.0,0.0,0.0,0.0,0.0,0.0,0.0,0.0,0.0,0.0,0.0,2.0242,0.0,0.0,0.0,0.0,0.0,0.0,0.0,0.0,0.0,0.0,0.0,0.0,0.0,0.0,0.0,0.0,0.0,0.0,0.0,0.0,0.0,0.0,0.0,0.0,0.0,0.0,0.0,0.0,0.0,0.0,0.0,0.0,0.0,0.0,0.0,0.0,0.0,0.0,0.0,0.0,0.0,0.0,0.0,0.0,0.0,0.0,0.0,0.0,0.0,0.0,0.0,0.0,0.0,0.0,0.0,0.0,0.0,0.0,0.0,0.0,0.0,0.0,0.0,0.0,0.0,0.0,0.0,0.0,0.0,0.0,0.0,0.0,0.0,0.0,0.0,0.0,0.0,0.0,0.0,0.0,0.0,0.0,0.0,0.0,0.0,0.0,0.0,0.0,0.0,0.0,0.0,0.0,0.0,0.0,0.0,0.0,0.0,0.0,0.0,0.0,0.0,0.0,0.0,0.0,0.0,0.0,0.0,0.0,0.0,0.0,2.0311,2.0311,2.0311,2.0337,2.0363,0.0,0.0,0.0,0.0,0.0,0.0,0.0,0.0,0.0,0.0,0.0,0.0,0.0,0.0,0.0,0.0,0.0,0.0,0.0,0.0,0.0,0.0,0.0,0.0,0.0,0.0,0.0,0.0,0.0,0.0,0.0,0.0,0.0,0.0,0.0,0.0,0.0,0.0,0.0,0.0,0.0,0.0,0.0,0.0,0.0,0.0,0.0,0.0,0.0,0.0,0.0,0.0,0.0,0.0,0.0,0.0,0.0,0.0,0.0,0.0,0.0,0.0,0.0,0.0,0.0,0.0,0.0,0.0,0.0,0.0,0.0,0.0,0.0,0.0,0.0,0.0,0.0,0.0,0.0,0.0,0.0,0.0,0.0,0.0,0.0,0.0,0.0,0.0,0.0,0.0,0.0,0.0,0.0,0.0,0.0,0.0,0.0,0.0,0.0,0.0,0.0,0.0,0.0,0.0,0.0,0.0,0.0,0.0,0.0,0.0,0.0,0.0,2.0311,2.032,2.0337,0.0,0.0,0.0,0.0,0.0,0.0,0.0,0.0,0.0,0.0,0.0,0.0,0.0,0.0,0.0,0.0,0.0,0.0,0.0,0.0,0.0,0.0,0.0,0.0,0.0,0.0,0.0,0.0,0.0,0.0,0.0,0.0,0.0,0.0,0.0,0.0,0.0,0.0,0.0,0.0,0.0,0.0,0.0,0.0,0.0,0.0,0.0,0.0,0.0,0.0,0.0,0.0,0.0,0.0,0.0,0.0,0.0,0.0,0.0,0.0,0.0,0.0,0.0,0.0,0.0,0.0,0.0,0.0,0.0,0.0,0.0,0.0,0.0,0.0,0.0,0.0,0.0,0.0,0.0,0.0,0.0,0.0,0.0,0.0,0.0,0.0,0.0,0.0,0.0,0.0,0.0,0.0,0.0,0.0,0.0,0.0,0.0,0.0,0.0,0.0,0.0,0.0,0.0,0.0,0.0,0.0,0.0,0.0,0.0,0.0,2.0311,2.0311,2.0311,0.0,2.0388,0.0,0.0,0.0,0.0,0.0,0.0,0.0,0.0,0.0,0.0,0.0,0.0,0.0,0.0,0.0,0.0,0.0,0.0,0.0,0.0,0.0,0.0,0.0,0.0,0.0,0.0,0.0,0.0,0.0,0.0,0.0,0.0,0.0,0.0,0.0,0.0,0.0,0.0,0.0,0.0,0.0,0.0,0.0,0.0,0.0,0.0,0.0,0.0,0.0,0.0,0.0,0.0,0.0,0.0,0.0,0.0,0.0,0.0,0.0,0.0,0.0,0.0,0.0,0.0,0.0,0.0,0.0,0.0,0.0,0.0,0.0,0.0,0.0,0.0,0.0,0.0,0.0,0.0,0.0,0.0,0.0,0.0,0.0,0.0,0.0,0.0,0.0,0.0,0.0,0.0,0.0,0.0,0.0,0.0,0.0,0.0,0.0,0.0,0.0,0.0,0.0,0.0,0.0,0.0,0.0,0.0,0.0,0.0,0.0,0.0,2.0311,2.0311,2.0311,2.0337,0.0,0.0,0.0,0.0,0.0,0.0,0.0,0.0,0.0,0.0,0.0,0.0,0.0,0.0,0.0,0.0,0.0,0.0,0.0,0.0,0.0,0.0,0.0,0.0,0.0,0.0,0.0,0.0,0.0,0.0,0.0,0.0,0.0,0.0,0.0,0.0,0.0,0.0,0.0,0.0,0.0,0.0,0.0,0.0,0.0,0.0,0.0,0.0,0.0,0.0,0.0,0.0,0.0,0.0,0.0,0.0,0.0,0.0,0.0,0.0,0.0,0.0,0.0,0.0,0.0,0.0,0.0,0.0,0.0,0.0,0.0,0.0,0.0,0.0,0.0,0.0,0.0,0.0,0.0,0.0,0.0,0.0,0.0,0.0,0.0,0.0,0.0,0.0,0.0,0.0,0.0,0.0,0.0,0.0,0.0,0.0,0.0,0.0,0.0,0.0,0.0,0.0,0.0,0.0,0.0,0.0,0.0,0.0,0.0,0.0,2.0311,2.0311,2.0311,2.0311,2.0311,2.0311,0.0,0.0,0.0,0.0,0.0,0.0,0.0,0.0,0.0,0.0,0.0,0.0,0.0,0.0,0.0,0.0,0.0,0.0,0.0,0.0,0.0,0.0,0.0,0.0,0.0,0.0,0.0,0.0,0.0,0.0,0.0,0.0,0.0,0.0,0.0,0.0,0.0,0.0,0.0,0.0,0.0,0.0,0.0,0.0,0.0,0.0,0.0,0.0,0.0,0.0,0.0,0.0,0.0,0.0,0.0,0.0,0.0,0.0,0.0,0.0,0.0,0.0,0.0,0.0,0.0,0.0,0.0,0.0,0.0,0.0,0.0,0.0,0.0,0.0,0.0,0.0,0.0,0.0,0.0,0.0,0.0,0.0,0.0,0.0,0.0,0.0,0.0,0.0,0.0,0.0,0.0,0.0,0.0,0.0,0.0,0.0,0.0,0.0,0.0,0.0,0.0,0.0,0.0,0.0,0.0,0.0,0.0,0.0,2.0311,2.0311,2.0311,2.0311,2.0311,2.0311,0.0,0.0,0.0,0.0,0.0,0.0,0.0,0.0,0.0,0.0,0.0,0.0,0.0,0.0,0.0,0.0,0.0,0.0,0.0,0.0,0.0,0.0,0.0,0.0,0.0,0.0,0.0,0.0,0.0,0.0,0.0,0.0,0.0,0.0,0.0,0.0,0.0,0.0,0.0,0.0,0.0,0.0,0.0,0.0,0.0,0.0,0.0,0.0,0.0,0.0,0.0,0.0,0.0,0.0,0.0,0.0,0.0,0.0,0.0,0.0,0.0,0.0,0.0,0.0,0.0,0.0,0.0,0.0,0.0,0.0,0.0,0.0,0.0,0.0,0.0,0.0,0.0,0.0,0.0,0.0,0.0,0.0,0.0,0.0,0.0,0.0,0.0,0.0,0.0,0.0,0.0,0.0,0.0,0.0,0.0,0.0,0.0,0.0,0.0,0.0,0.0,0.0,0.0,0.0,0.0,0.0,0.0,0.0,0.0,2.0311,2.0311,2.0311,2.0311,2.0311,2.0311,0.0,0.0,0.0,0.0,0.0,0.0,0.0,0.0,0.0,0.0,0.0,0.0,0.0,0.0,0.0,0.0,0.0,0.0,0.0,0.0,0.0,0.0,0.0,0.0,0.0,0.0,0.0,0.0,0.0,0.0,0.0,0.0,0.0,0.0,0.0,0.0,0.0,0.0,0.0,0.0,0.0,0.0,0.0,0.0,0.0,0.0,0.0,0.0,0.0,0.0,0.0,0.0,0.0,0.0,0.0,0.0,0.0,0.0,0.0,0.0,0.0,0.0,0.0,0.0,0.0,0.0,0.0,0.0,0.0,0.0,0.0,0.0,0.0,0.0,0.0,0.0,0.0,0.0,0.0,0.0,0.0,0.0,0.0,0.0,0.0,0.0,0.0,0.0,0.0,0.0,0.0,0.0,0.0,0.0,0.0,0.0,0.0,0.0,0.0,0.0,0.0,0.0,0.0,0.0,0.0,0.0,0.0,0.0,0.0,2.0623,0.0,2.0663,2.0663,2.0663,2.0553,0.0,0.0,0.0,0.0,0.0,0.0,0.0,0.0,0.0,0.0,0.0,0.0,0.0,0.0,0.0,0.0,0.0,0.0,0.0,0.0,0.0,0.0,0.0,0.0,0.0,0.0,0.0,0.0,0.0,0.0,0.0,0.0,0.0,0.0,0.0,0.0,0.0,0.0,0.0,0.0,0.0,0.0,0.0,0.0,0.0,0.0,0.0,0.0,0.0,0.0,0.0,0.0,0.0,0.0,0.0,0.0,0.0,0.0,0.0,0.0,0.0,0.0,0.0,0.0,0.0,0.0,0.0,0.0,0.0,0.0,0.0,0.0,0.0,0.0,0.0,0.0,0.0,0.0,0.0,0.0,0.0,0.0,0.0,0.0,0.0,0.0,0.0,0.0,0.0,0.0,0.0,0.0,0.0,0.0,0.0,0.0,0.0,0.0,0.0,0.0,0.0,0.0,0.0,0.0,0.0,0.0,0.0,0.0,2.0703,2.1392,2.1441,2.1463,2.1432,2.1463,2.1087,0.0,0.0,0.0,0.0,0.0,0.0,0.0,0.0,0.0,0.0,0.0,0.0,0.0,0.0,0.0,0.0,0.0,0.0,0.0,0.0,0.0,0.0,0.0,0.0,0.0,0.0,0.0,0.0,0.0,0.0,0.0,0.0,0.0,0.0,0.0,0.0,0.0,0.0,0.0,0.0,0.0,0.0,0.0,0.0,0.0,0.0,0.0,0.0,0.0,0.0,0.0,0.0,0.0,0.0,0.0,0.0,0.0,0.0,0.0,0.0,0.0,0.0,0.0,0.0,0.0,0.0,0.0,0.0,0.0,0.0,0.0,0.0,0.0,0.0,0.0,0.0,0.0,0.0,0.0,0.0,0.0,0.0,0.0,0.0,0.0,0.0,0.0,0.0,0.0,0.0,0.0,0.0,0.0,0.0,0.0,0.0,0.0,0.0,0.0,0.0,0.0,0.0,0.0,0.0,0.0,0.0,0.0,0.0,0.0,2.2361,2.2823,2.3055,2.3064,2.3064,2.2667,0.0,0.0,0.0,0.0,0.0,0.0,0.0,0.0,0.0,0.0,0.0,0.0,0.0,0.0,0.0,0.0,0.0,0.0,0.0,0.0,0.0,0.0,0.0,0.0,0.0,0.0,0.0,0.0,0.0,0.0,0.0,0.0,0.0,0.0,0.0,0.0,0.0,0.0,0.0,0.0,0.0,0.0,0.0,0.0,0.0,0.0,0.0,0.0,0.0,0.0,0.0,0.0,0.0,0.0,0.0,0.0,0.0,0.0,0.0,0.0,0.0,0.0,0.0,0.0,0.0,0.0,0.0,0.0,0.0,0.0,0.0,0.0,0.0,0.0,0.0,0.0,0.0,0.0,0.0,0.0,0.0,0.0,0.0,0.0,0.0,0.0,0.0,0.0,0.0,0.0,0.0,0.0,0.0,0.0,0.0,0.0,0.0,0.0,0.0,0.0,0.0,0.0,0.0,0.0,0.0,0.0,0.0,0.0,0.0,2.5509,2.537,2.5238,2.5258,2.4928,2.42,2.3086,0.0,0.0,0.0,0.0,0.0,0.0,0.0,0.0,0.0,0.0,0.0,0.0,0.0,0.0,0.0,0.0,0.0,0.0,0.0,0.0,0.0,0.0,0.0,0.0,0.0,0.0,0.0,0.0,0.0,0.0,0.0,0.0,0.0,0.0,0.0,0.0,0.0,0.0,0.0,0.0,0.0,0.0,0.0,0.0,0.0,0.0,0.0,0.0,0.0,0.0,0.0,0.0,0.0,0.0,0.0,0.0,0.0,0.0,0.0,0.0,0.0,0.0,0.0,0.0,0.0,0.0,0.0,0.0,0.0,0.0,0.0,0.0,0.0,0.0,0.0,0.0,0.0,0.0,0.0,0.0,0.0,0.0,0.0,0.0,0.0,0.0,0.0,0.0,0.0,0.0,0.0,0.0,0.0,0.0,0.0,0.0,0.0,0.0,0.0,0.0,0.0,0.0,0.0,0.0,0.0,0.0,0.0,0.0,3.0358,2.898,2.8183,2.7968,2.7108,2.5827,0.0,0.0,0.0,0.0,0.0,0.0,0.0,0.0,0.0,0.0,0.0,0.0,0.0,0.0,0.0,0.0,0.0,0.0,0.0,0.0,0.0,0.0,0.0,0.0,0.0,0.0,0.0,0.0,0.0,0.0,0.0,0.0,0.0,0.0,0.0,0.0,0.0,0.0,0.0,0.0,0.0,0.0,0.0,0.0,0.0,0.0,0.0,0.0,0.0,0.0,0.0,0.0,0.0,0.0,0.0,0.0,0.0,0.0,0.0,0.0,0.0,0.0,0.0,0.0,0.0,0.0,0.0,0.0,0.0,0.0,0.0,0.0,0.0,0.0,0.0,0.0,0.0,0.0,0.0,0.0,0.0,0.0,0.0,0.0,0.0,0.0,0.0,0.0,0.0,0.0,0.0,0.0,0.0,0.0,0.0,0.0,0.0,0.0,0.0,0.0,0.0,0.0,0.0,0.0,0.0,0.0,0.0,0.0,0.0,3.2671,3.4074,3.3652,3.1341,3.037,2.8812,0.0,0.0,0.0,0.0,0.0,0.0,0.0,0.0,0.0,0.0,0.0,0.0,0.0,0.0,0.0,0.0,0.0,0.0,0.0,0.0,0.0,0.0,0.0,0.0,0.0,0.0,0.0,0.0,0.0,0.0,0.0,0.0,0.0,0.0,0.0,0.0,0.0,0.0,0.0,0.0,0.0,0.0,0.0,0.0,0.0,0.0,0.0,0.0,0.0,0.0,0.0,0.0,0.0,0.0,0.0,0.0,0.0,0.0,0.0,0.0,0.0,0.0,0.0,0.0,0.0,0.0,0.0,0.0,0.0,0.0,0.0,0.0,0.0,0.0,0.0,0.0,0.0,0.0,0.0,0.0,0.0,0.0,0.0,0.0,0.0,0.0,0.0,0.0,0.0,0.0,0.0,0.0,0.0,0.0,0.0,0.0,0.0,0.0,0.0,0.0,0.0,0.0,0.0,0.0,0.0,0.0,0.0,0.0,3.1615,3.5186,3.729,3.7515,3.5656,3.3728,3.1372,0.0,0.0,0.0,0.0,0.0,0.0,0.0,0.0,0.0,0.0,0.0,0.0,0.0,0.0,0.0,0.0,0.0,0.0,0.0,0.0,0.0,0.0,0.0,0.0,0.0,0.0,0.0,0.0,0.0,0.0,0.0,0.0,0.0,0.0,0.0,0.0,0.0,0.0,0.0,0.0,0.0,0.0,0.0,0.0,0.0,0.0,0.0,0.0,0.0,0.0,0.0,0.0,0.0,0.0,0.0,0.0,0.0,0.0,0.0,0.0,0.0,0.0,0.0,0.0,0.0,0.0,0.0,0.0,0.0,0.0,0.0,0.0,0.0,0.0,0.0,0.0,0.0,0.0,0.0,0.0,0.0,0.0,0.0,0.0,0.0,0.0,0.0,0.0,0.0,0.0,0.0,0.0,0.0,0.0,0.0,0.0,0.0,0.0,0.0,0.0,0.0,0.0,0.0,0.0,0.0,0.0,0.0,0.0,3.3622,3.7448,3.929,4.0254,4.014,3.6882,3.3606,0.0,0.0,0.0,0.0,0.0,0.0,0.0,0.0,0.0,0.0,0.0,0.0,0.0,0.0,0.0,0.0,0.0,0.0,0.0,0.0,0.0,0.0,0.0,0.0,0.0,0.0,0.0,0.0,0.0,0.0,0.0,0.0,0.0,0.0,0.0,0.0,0.0,0.0,0.0,0.0,0.0,0.0,0.0,0.0,0.0,0.0,0.0,0.0,0.0,0.0,0.0,0.0,0.0,0.0,0.0,0.0,0.0,0.0,0.0,0.0,0.0,0.0,0.0,0.0,0.0,0.0,0.0,0.0,0.0,0.0,0.0,0.0,0.0,0.0,0.0,0.0,0.0,0.0,0.0,0.0,0.0,0.0,0.0,0.0,0.0,0.0,0.0,0.0,0.0,0.0,0.0,0.0,0.0,0.0,0.0,0.0,0.0,0.0,0.0,0.0,0.0,0.0,0.0,0.0,0.0,0.0,0.0,0.0,3.5413,3.8305,4.1076,4.2489,4.2489,3.8848,3.5321,0.0,0.0,0.0,0.0,0.0,0.0,0.0,0.0,0.0,0.0,0.0,0.0,0.0,0.0,0.0,0.0,0.0,0.0,0.0,0.0,0.0,0.0,0.0,0.0,0.0,0.0,0.0,0.0,0.0,0.0,0.0,0.0,0.0,0.0,0.0,0.0,0.0,0.0,0.0,0.0,0.0,0.0,0.0,0.0,0.0,0.0,0.0,0.0,2.791,0.0,0.0,0.0,0.0,0.0,0.0,0.0,0.0,0.0,0.0,0.0,0.0,0.0,0.0,0.0,0.0,0.0,0.0,0.0,0.0,0.0,0.0,0.0,0.0,0.0,0.0,0.0,0.0,0.0,0.0,0.0,0.0,0.0,0.0,0.0,0.0,0.0,0.0,0.0,0.0,0.0,0.0,0.0,0.0,0.0,0.0,0.0,0.0,0.0,0.0,0.0,0.0,0.0,0.0,0.0,0.0,0.0,0.0,0.0,3.6482,3.9626,4.2078,4.3279,4.3178,4.0572,3.7406,0.0,0.0,0.0,0.0,0.0,0.0,0.0,0.0,0.0,0.0,0.0,0.0,0.0,0.0,0.0,0.0,0.0,0.0,0.0,0.0,0.0,0.0,0.0,0.0,0.0,0.0,0.0,0.0,0.0,0.0,0.0,0.0,0.0,0.0,0.0,0.0,0.0,0.0,0.0,0.0,0.0,0.0,0.0,0.0,0.0,0.0,0.0,0.0,0.0,0.0,0.0,0.0,0.0,0.0,0.0,0.0,0.0,0.0,0.0,0.0,0.0,0.0,0.0,0.0,0.0,0.0,0.0,0.0,0.0,0.0,0.0,0.0,0.0,0.0,0.0,0.0,0.0,0.0,0.0,0.0,0.0,0.0,0.0,0.0,0.0,0.0,0.0,0.0,0.0,0.0,0.0,0.0,0.0,0.0,0.0,0.0,0.0,0.0,0.0,0.0,0.0,0.0,0.0,0.0,0.0,0.0,0.0,3.3927,3.7474,4.0939,4.2733,4.3633,4.3586,4.1997,3.9345,3.5561,0.0,0.0,0.0,0.0,0.0,0.0,0.0,0.0,0.0,0.0,0.0,0.0,0.0,0.0,0.0,0.0,0.0,0.0,0.0,0.0,0.0,0.0,0.0,0.0,0.0,0.0,0.0,0.0,0.0,0.0,0.0,0.0,0.0,0.0,0.0,0.0,0.0,0.0,2.5957,2.6914,0.0,0.0,0.0,0.0,0.0,0.0,0.0,0.0,3.1274,0.0,0.0,0.0,0.0,0.0,0.0,0.0,0.0,0.0,0.0,0.0,0.0,0.0,0.0,0.0,0.0,0.0,0.0,0.0,0.0,0.0,0.0,0.0,0.0,0.0,0.0,0.0,0.0,0.0,0.0,0.0,0.0,0.0,0.0,0.0,0.0,0.0,0.0,0.0,0.0,0.0,0.0,0.0,0.0,0.0,0.0,0.0,0.0,0.0,0.0,0.0,0.0,0.0,0.0,0.0,0.0,3.1361,3.5823,3.9181,4.1278,4.3457,4.4578,4.451,4.2828,4.0443,3.7324,0.0,0.0,0.0,0.0,0.0,0.0,0.0,0.0,0.0,0.0,0.0,0.0,0.0,0.0,0.0,0.0,0.0,0.0,0.0,0.0,0.0,0.0,0.0,0.0,0.0,0.0,0.0,0.0,0.0,0.0,0.0,0.0,0.0,0.0,0.0,0.0,0.0,0.0,0.0,2.8681,2.9465,0.0,0.0,0.0,0.0,0.0,0.0,0.0,0.0,3.1847,0.0,0.0,0.0,0.0,0.0,0.0,0.0,0.0,0.0,0.0,0.0,0.0,0.0,0.0,0.0,0.0,0.0,0.0,0.0,0.0,0.0,0.0,0.0,0.0,0.0,0.0,0.0,0.0,0.0,0.0,0.0,0.0,0.0,0.0,0.0,0.0,0.0,0.0,0.0,0.0,0.0,0.0,0.0,0.0,0.0,0.0,0.0,0.0,0.0,0.0,0.0,0.0,0.0,0.0,0.0,3.3451,3.7043,4.0091,4.2615,4.4163,4.4743,4.432,4.2656,4.0312,0.0,0.0,0.0,0.0,0.0,0.0,0.0,0.0,0.0,0.0,0.0,0.0,0.0,0.0,0.0,0.0,0.0,0.0,0.0,0.0,0.0,0.0,0.0,0.0,0.0,0.0,0.0,0.0,0.0,0.0,0.0,0.0,0.0,0.0,0.0,0.0,0.0,0.0,0.0,0.0,2.9888,3.1113,3.1392,0.0,0.0,0.0,0.0,0.0,0.0,3.4984,3.4475,0.0,0.0,0.0,0.0,0.0,0.0,0.0,0.0,0.0,0.0,0.0,0.0,0.0,0.0,0.0,0.0,0.0,0.0,0.0,0.0,0.0,0.0,0.0,0.0,0.0,0.0,0.0,0.0,0.0,0.0,0.0,0.0,0.0,0.0,0.0,0.0,0.0,0.0,0.0,0.0,0.0,0.0,0.0,0.0,0.0,0.0,0.0,0.0,0.0,0.0,0.0,0.0,0.0,0.0,0.0,3.5317,3.8125,4.0972,4.3844,4.4666,4.4673,4.3955,4.2321,3.9982,0.0,0.0,0.0,0.0,0.0,0.0,0.0,0.0,0.0,0.0,0.0,0.0,0.0,0.0,0.0,0.0,0.0,0.0,0.0,0.0,0.0,0.0,0.0,0.0,0.0,0.0,0.0,0.0,0.0,0.0,0.0,0.0,0.0,0.0,0.0,0.0,0.0,0.0,0.0,0.0,0.0,3.2546,3.2887,3.3422,0.0,0.0,0.0,0.0,3.7178,3.7362,0.0,0.0,0.0,0.0,0.0,0.0,0.0,0.0,0.0,0.0,0.0,0.0,0.0,0.0,0.0,0.0,0.0,0.0,0.0,0.0,0.0,0.0,0.0,0.0,0.0,0.0,0.0,0.0,0.0,0.0,0.0,0.0,0.0,0.0,0.0,0.0,0.0,0.0,0.0,0.0,0.0,0.0,0.0,0.0,0.0,0.0,0.0,0.0,0.0,0.0,0.0,0.0,0.0,0.0,0.0,0.0,3.57,3.9348,4.2185,4.4165,4.4852,4.482,4.4065,4.2437,4.0127,0.0,0.0,0.0,0.0,0.0,0.0,0.0,0.0,0.0,0.0,0.0,0.0,0.0,0.0,0.0,0.0,0.0,0.0,0.0,0.0,0.0,0.0,0.0,0.0,0.0,0.0,0.0,0.0,0.0,0.0,0.0,0.0,0.0,0.0,0.0,0.0,0.0,0.0,0.0,0.0,0.0,3.3683,3.5157,3.5478,3.5741,0.0,0.0,3.7212,3.8936,3.8559,0.0,0.0,0.0,0.0,0.0,0.0,0.0,0.0,0.0,0.0,0.0,0.0,0.0,0.0,0.0,0.0,0.0,0.0,0.0,0.0,0.0,0.0,0.0,0.0,0.0,0.0,0.0,0.0,0.0,0.0,0.0,0.0,0.0,0.0,0.0,0.0,0.0,0.0,0.0,0.0,0.0,0.0,0.0,0.0,0.0,0.0,0.0,0.0,0.0,0.0,0.0,0.0,0.0,0.0,0.0,3.3276,3.707,4.0109,4.2714,4.4824,4.5185,4.4952,4.4255,4.2589,4.0297,0.0,0.0,0.0,0.0,0.0,0.0,0.0,0.0,0.0,0.0,0.0,0.0,0.0,0.0,0.0,0.0,0.0,0.0,0.0,0.0,0.0,0.0,0.0,0.0,0.0,0.0,0.0,0.0,0.0,0.0,0.0,0.0,0.0,0.0,0.0,0.0,0.0,0.0,0.0,0.0,0.0,0.0,3.7003,3.7937,0.0,0.0,0.0,3.9561,4.1119,0.0,0.0,0.0,0.0,0.0,0.0,0.0,0.0,0.0,0.0,0.0,0.0,0.0,0.0,0.0,0.0,0.0,0.0,0.0,0.0,0.0,0.0,0.0,0.0,0.0,0.0,0.0,0.0,0.0,0.0,0.0,0.0,0.0,0.0,0.0,0.0,0.0,0.0,0.0,0.0,0.0,0.0,0.0,0.0,0.0,0.0,0.0,0.0,0.0,0.0,0.0,0.0,0.0,0.0,0.0,0.0,0.0,3.815,4.0756,4.3181,4.5294,4.5397,4.5031,4.4298,4.2715,0.0,0.0,0.0,0.0,0.0,0.0,0.0,0.0,0.0,0.0,0.0,0.0,0.0,0.0,0.0,0.0,0.0,0.0,0.0,0.0,0.0,0.0,0.0,0.0,0.0,0.0,0.0,2.5778,0.0,0.0,0.0,0.0,0.0,0.0,0.0,0.0,0.0,0.0,0.0,0.0,0.0,0.0,3.6632,3.8461,3.9907,4.0792,0.0,0.0,4.161,4.2726,4.2314,4.1619,0.0,0.0,0.0,0.0,0.0,0.0,0.0,0.0,0.0,0.0,0.0,0.0,0.0,0.0,0.0,0.0,0.0,0.0,0.0,0.0,0.0,0.0,0.0,0.0,0.0,0.0,0.0,0.0,0.0,0.0,0.0,0.0,0.0,0.0,0.0,0.0,0.0,0.0,0.0,0.0,0.0,0.0,0.0,0.0,0.0,0.0,0.0,0.0,0.0,0.0,0.0,0.0,0.0,0.0,3.5072,3.8425,4.1391,4.3709,4.5328,4.5397,4.5031,4.4311,4.2815,4.0892,0.0,0.0,0.0,0.0,0.0,0.0,0.0,0.0,0.0,0.0,0.0,0.0,0.0,0.0,0.0,0.0,0.0,0.0,0.0,0.0,0.0,0.0,0.0,0.0,0.0,0.0,0.0,0.0,0.0,0.0,0.0,0.0,0.0,0.0,0.0,0.0,0.0,0.0,0.0,0.0,0.0,3.7571,3.9384,4.0863,4.18,0.0,4.2403,4.2914,4.3155,4.2439,4.1694,4.1069,0.0,0.0,0.0,0.0,0.0,0.0,0.0,0.0,0.0,0.0,0.0,0.0,0.0,0.0,0.0,0.0,0.0,0.0,0.0,0.0,0.0,0.0,0.0,0.0,0.0,0.0,0.0,0.0,0.0,0.0,0.0,0.0,0.0,0.0,0.0,0.0,0.0,0.0,0.0,0.0,0.0,0.0,0.0,0.0,0.0,0.0,0.0,0.0,0.0,0.0,0.0,0.0,0.0,3.5525,3.9147,4.1786,4.3868,4.5328,4.5397,4.5272,4.4962,4.3953,4.2354,0.0,0.0,0.0,0.0,0.0,0.0,0.0,0.0,0.0,0.0,0.0,0.0,0.0,0.0,0.0,0.0,0.0,0.0,0.0,0.0,0.0,0.0,0.0,0.0,0.0,0.0,0.0,0.0,3.1841,3.2543,3.222,0.0,0.0,0.0,0.0,0.0,0.0,0.0,0.0,0.0,0.0,3.8949,4.1607,4.2861,0.0,0.0,4.3743,4.3931,4.3903,4.3311,4.2638,4.2042,4.0104,0.0,0.0,0.0,0.0,0.0,0.0,0.0,0.0,0.0,0.0,0.0,0.0,0.0,0.0,0.0,0.0,0.0,0.0,0.0,0.0,0.0,0.0,0.0,0.0,0.0,0.0,0.0,0.0,0.0,0.0,0.0,0.0,0.0,0.0,0.0,0.0,0.0,0.0,0.0,0.0,0.0,0.0,0.0,0.0,0.0,0.0,0.0,0.0,0.0,0.0,0.0,0.0,3.603,3.9606,4.1997,4.3919,4.5376,4.5397,4.5397,4.5397,4.4678,4.3448,0.0,0.0,0.0,0.0,0.0,0.0,0.0,0.0,0.0,0.0,0.0,0.0,0.0,0.0,0.0,0.0,0.0,0.0,0.0,0.0,0.0,0.0,0.0,0.0,0.0,0.0,0.0,0.0,3.2756,3.2901,3.1799,0.0,0.0,0.0,0.0,0.0,0.0,0.0,0.0,0.0,0.0,4.0412,4.3152,4.4163,4.4659,4.4645,4.4617,4.4493,4.4179,4.3558,4.2976,4.2573,0.0,0.0,0.0,0.0,0.0,0.0,0.0,0.0,0.0,0.0,0.0,0.0,0.0,0.0,0.0,0.0,0.0,0.0,0.0,0.0,0.0,0.0,0.0,0.0,0.0,0.0,0.0,2.4596,0.0,0.0,2.3571,0.0,0.0,0.0,0.0,0.0,0.0,0.0,0.0,0.0,0.0,0.0,0.0,0.0,0.0,0.0,0.0,0.0,0.0,0.0,0.0,0.0,0.0,3.6612,3.9664,4.2033,4.3931,4.5341,4.5397,4.5397,4.541,4.4699,4.3931,4.3103,0.0,0.0,0.0,0.0,0.0,0.0,0.0,0.0,0.0,0.0,0.0,0.0,0.0,0.0,0.0,0.0,0.0,0.0,0.0,0.0,0.0,0.0,0.0,0.0,0.0,0.0,3.3278,3.3013,3.2133,0.0,0.0,0.0,0.0,0.0,0.0,0.0,0.0,0.0,3.7362,3.969,4.1808,4.3636,4.453,4.4974,4.5009,4.4886,4.4551,4.3858,4.3096,4.2519,0.0,0.0,0.0,0.0,0.0,0.0,0.0,0.0,0.0,0.0,0.0,0.0,0.0,0.0,0.0,0.0,0.0,0.0,0.0,0.0,0.0,0.0,0.0,0.0,0.0,0.0,0.0,2.9047,2.8623,0.0,0.0,0.0,0.0,0.0,0.0,0.0,0.0,0.0,0.0,0.0,3.5623,3.6153,0.0,0.0,0.0,0.0,0.0,0.0,0.0,0.0,0.0,0.0,0.0,0.0,3.713,4.0596,4.247,4.4136,4.5602,4.5581,4.5507,4.5541,4.5221,4.4458,4.3207,0.0,0.0,0.0,0.0,0.0,0.0,0.0,0.0,0.0,0.0,0.0,0.0,0.0,0.0,0.0,0.0,0.0,0.0,0.0,0.0,0.0,0.0,0.0,0.0,0.0,3.379,0.0,0.0,0.0,0.0,0.0,0.0,0.0,0.0,0.0,0.0,0.0,3.6596,3.9137,4.0285,4.18,4.4424,4.4619,4.468,0.0,0.0,0.0,0.0,0.0,0.0,0.0,0.0,0.0,0.0,0.0,0.0,0.0,0.0,4.0285,3.8196,3.8025,3.8208,3.8242,0.0,0.0,0.0,0.0,0.0,0.0,0.0,0.0,0.0,0.0,0.0,0.0,0.0,0.0,3.2781,0.0,3.1089,0.0,0.0,0.0,0.0,0.0,0.0,0.0,0.0,3.6436,3.7786,3.9663,4.0224,4.0103,0.0,3.9471,3.785,0.0,0.0,0.0,0.0,0.0,0.0,0.0,0.0,3.8458,4.166,4.3219,4.4612,4.5784,4.571,4.5607,4.5607,4.5463,4.4824,4.3621,4.1849,3.9859,0.0,0.0,0.0,0.0,0.0,0.0,0.0,0.0,0.0,0.0,0.0,0.0,0.0,0.0,0.0,0.0,0.0,0.0,0.0,0.0,0.0,0.0,0.0,3.5248,0.0,0.0,0.0,0.0,0.0,0.0,0.0,0.0,0.0,3.4508,3.6479,3.8628,4.0573,4.1451,4.2627,4.4603,0.0,0.0,0.0,0.0,0.0,0.0,0.0,4.4534,4.5108,4.5299,4.5723,4.6892,4.661,4.6039,4.5543,0.0,0.0,4.1707,4.1283,4.1479,4.1479,4.1697,4.1766,4.1285,4.1388,4.1869,0.0,0.0,0.0,0.0,0.0,0.0,0.0,0.0,3.6408,3.6453,0.0,3.489,0.0,0.0,0.0,0.0,3.3907,3.4337,0.0,0.0,3.9602,4.0948,4.309,4.3231,4.3196,4.3149,4.306,4.2546,4.1527,3.6966,0.0,0.0,0.0,0.0,0.0,0.0,4.0534,4.282,4.426,4.5345,4.6125,4.5869,4.5715,4.5667,4.5502,4.5092,4.4358,4.3611,4.2183,3.9917,3.8229,0.0,0.0,0.0,0.0,0.0,0.0,0.0,0.0,0.0,0.0,0.0,0.0,0.0,0.0,0.0,0.0,0.0,0.0,0.0,0.0,3.6087,0.0,0.0,0.0,0.0,0.0,0.0,0.0,0.0,0.0,0.0,3.7251,3.9034,4.0731,4.1753,0.0,0.0,0.0,0.0,4.5397,4.5466,4.5373,4.5066,4.4379,4.486,4.5388,4.5409,0.0,0.0,4.9984,5.0255,5.0326,5.053,5.0558,4.9368,4.5315,4.5129,4.5527,4.5527,4.6092,4.6631,4.6748,4.6968,4.7576,4.1931,0.0,0.0,0.0,0.0,3.8352,3.9525,4.0132,4.0677,4.0909,4.0839,3.9258,0.0,0.0,0.0,0.0,0.0,0.0,4.0179,4.2798,4.4232,4.5561,4.6878,4.7504,4.7469,4.6864,4.6806,4.6081,4.4735,4.2853,4.0683,3.828,0.0,0.0,0.0,0.0,4.1879,4.4098,4.5744,4.7109,4.8266,4.8105,4.7658,4.6917,4.6219,4.5737,4.5506,4.4634,4.3563,4.2386,4.0216,0.0,0.0,0.0,0.0,0.0,0.0,0.0,0.0,0.0,0.0,0.0,0.0,0.0,0.0,0.0,0.0,0.0,0.0,0.0,3.8584,3.9164,3.8532,0.0,0.0,0.0,0.0,0.0,0.0,0.0,0.0,0.0,4.1331,4.1437,4.1912,0.0,0.0,4.4087,4.5721,4.5652,4.5776,4.6893,4.7024,0.0,4.6701,4.7396,4.8169,4.8674,5.0151,5.146,5.1906,5.2524,5.3009,5.3067,5.3623,5.3616,5.2501,5.0418,4.918,4.9062,4.9236,4.9375,4.9444,4.9966,5.0632,4.8008,4.3793,4.1905,4.1067,4.1209,4.297,4.4201,4.4914,4.5125,4.535,4.5528,4.3557,4.2417,4.1878,4.053,0.0,0.0,0.0,4.396,4.6123,4.7543,4.8877,5.0025,5.0933,5.0931,5.008,5.0137,4.9328,4.7712,4.7394,4.6007,4.3635,0.0,0.0,4.1107,4.2277,4.3902,4.5888,4.7151,4.8344,4.9365,4.9172,4.8585,4.7585,4.7005,4.6509,4.6179,4.5526,4.4796,4.4028,4.2239,4.0389,0.0,0.0,0.0,0.0,0.0,0.0,0.0,0.0,0.0,0.0,0.0,2.9714,3.0805,0.0,0.0,0.0,3.7342,3.9673,4.1158,4.0852,0.0,0.0,0.0,0.0,0.0,0.0,0.0,3.9296,4.0527,4.1981,4.4103,4.4083,4.4133,4.4845,4.5014,4.5472,4.6597,0.0,4.6877,4.8155,4.8342,4.8432,4.8758,4.9535,5.0452,5.1587,5.2881,5.397,5.4417,5.5151,5.576,5.5947,5.6366,5.6742,5.6778,5.5094,5.3401,5.2684,5.2746,5.2941,5.2941,5.3521,5.422,5.3321,5.1641,4.7497,4.6038,4.6608,4.7421,4.872,5.0118,4.9477,4.9633,5.0118,4.7803,4.6661,4.6457,4.5559,0.0,4.6348,4.6629,4.7623,4.9155,5.0108,5.1313,5.2729,5.3615,5.3636,5.2859,5.2959,5.2247,5.0796,5.0853,5.0515,4.9613,4.5715,4.4053,4.4611,4.5169,4.6263,4.7896,4.8517,4.9223,4.9928,4.9508,4.8864,4.8033,4.7902,4.7393,4.653,4.6326,4.5875,4.5029,4.4162,4.2648,4.0431,0.0,0.0,0.0,0.0,0.0,0.0,0.0,0.0,0.0,0.0,0.0,0.0,0.0,0.0,3.7988,4.0421,0.0,4.2886,4.1766,0.0,0.0,0.0,3.8996,3.9096,3.9901,4.0722,4.1511,0.0,0.0,4.5965,4.6859,4.7104,4.6466,4.7317,4.7827,4.7335,4.7881,4.8549,4.9569,4.9631,4.9889,5.0635,5.1465,5.2563,5.4087,5.5136,5.6065,5.6948,5.7815,5.8478,5.8624,5.8852,5.8924,5.8924,5.8766,5.8317,5.6343,5.6388,5.6781,5.6675,5.7203,5.7696,5.7188,5.6167,5.4406,5.2391,5.0348,5.1696,5.2551,5.3016,5.2845,5.2882,5.2955,5.1803,5.09,5.0174,4.9317,4.9426,5.0225,5.0973,5.185,5.2809,5.38,5.451,5.4877,5.5231,5.5328,5.5133,5.5043,5.4538,5.3701,5.3711,5.3071,5.1776,5.0664,4.8909,4.6544,4.6597,4.7456,4.9015,4.983,5.0832,5.1995,5.1282,5.0448,4.9566,4.8749,4.7953,4.7145,4.6695,4.6353,4.6044,4.5101,4.3826,4.209,4.034,0.0,0.0,0.0,0.0,0.0,0.0,0.0,0.0,0.0,3.3836,3.5971,0.0,3.9574,0.0,4.2634,4.3941,4.4237,4.3927,0.0,0.0,4.2358,4.2603,4.2729,4.3523,4.4542,4.5891,4.6481,4.719,4.8218,4.9541,5.0406,5.0317,4.9539,4.911,4.952,5.0335,5.1172,5.1927,5.2166,5.2341,5.265,5.3922,5.5313,5.6567,5.742,5.8032,5.8281,5.9073,5.9674,5.9817,6.0418,6.0848,6.0877,6.0898,6.0748,6.0175,5.9152,5.8231,5.8231,5.8857,5.939,5.9983,5.9505,5.8681,5.7264,5.5562,5.5555,5.556,5.5639,5.5649,5.5639,5.5565,5.4744,5.4039,5.3439,5.2999,5.3099,5.3597,5.4128,5.4654,5.5143,5.6097,5.6514,5.652,5.7056,5.707,5.6675,5.6576,5.6169,5.5488,5.5438,5.4993,5.4162,5.342,5.1999,5.0023,4.9183,4.9383,5.0572,5.1389,5.2192,5.295,5.2444,5.1511,5.0253,4.9619,4.8706,4.7432,4.7098,4.6836,4.6672,4.6059,4.5188,4.3978,4.2284,4.0257,0.0,0.0,0.0,0.0,0.0,0.0,0.0,0.0,0.0,0.0,0.0,4.1988,4.3554,4.499,4.5965,4.6402,4.6162,4.584,4.5493,4.5587,4.5859,4.6342,4.6802,4.7441,4.8317,4.8768,4.9327,5.0171,5.1347,5.2264,5.2649,5.2285,5.1956,5.2012,5.2463,5.2984,5.3815,5.404,5.4378,5.5016,5.6063,5.7126,5.8037,5.8908,5.9494,5.9633,6.0378,6.1002,6.1126,6.157,6.1964,6.195,6.1964,6.1964,6.1828,6.1104,6.0334,6.006,6.0361,6.0648,6.2024,6.1949,6.115,6.0849,6.068,5.8897,5.8044,5.7912,5.7912,5.7912,5.7865,5.6982,5.6469,5.6333,5.6333,5.6398,5.6568,5.6588,5.6695,5.6893,5.7594,5.793,5.788,5.8678,5.8621,5.7851,5.7831,5.7439,5.6721,5.665,5.659,5.6395,5.502,5.4143,5.377,5.2313,5.1738,5.215,5.2851,5.3314,5.3349,5.3151,5.2233,5.0556,5.0371,4.9437,4.7666,4.7407,4.7232,4.703,4.694,4.6468,4.5674,4.4227,4.2652,0.0,3.9538,0.0,0.0,0.0,0.0,0.0,0.0,0.0,0.0,4.2789,4.4307,4.6395,4.7229,4.7945,4.8627,4.8188,4.8147,4.8931,4.8627,4.8675,4.946,4.971,4.9841,4.9925,5.0557,5.1262,5.2063,5.2862,5.3614,5.4261,5.4929,5.5082,5.4662,5.4362,5.4492,5.5281,5.5379,5.5844,5.7149,5.7796,5.8335,5.9166,6.0046,6.0738,6.0968,6.1516,6.2105,6.2305,6.2344,6.2394,6.242,6.2407,6.2407,6.2381,6.2258,6.2076,6.1732,6.1606,6.1722,6.3268,6.3192,6.2397,6.2048,6.1972,6.0896,5.9911,5.9018,5.9018,5.9018,5.8972,5.8662,5.852,5.8481,5.8481,5.8547,5.8539,5.8662,5.8756,5.8765,5.9064,5.9167,5.9148,5.9308,5.9308,5.913,5.8981,5.8744,5.8517,5.8435,5.8036,5.7276,5.6952,5.6409,5.563,0.0,0.0,0.0,5.3141,5.3625,5.3645,5.3498,5.2575,5.0872,5.0535,0.0,4.801,4.761,4.7385,4.7254,4.7178,0.0,0.0,0.0,0.0,0.0,0.0,0.0,0.0,0.0,0.0,0.0,4.4027,4.4345,4.4437,4.6481,4.8006,4.8505,4.8851,4.9102,4.9209,4.9162,4.915,4.9412,4.9877,5.0295,5.0629,5.1357,5.2147,5.2809,5.3166,5.3633,5.4372,5.5243,5.574,5.5886,5.6649,5.7048,5.6878,5.6328,5.613,5.6322,5.637,5.691,5.8093,5.8796,5.9503,6.057,6.1485,6.1947,6.206,6.2159,6.2305,6.2433,6.242,6.2433,6.2433,6.242,6.241,6.242,6.2433,6.2344,6.2288,6.2262,6.2262,6.4273,6.4159,6.3364,6.2985,0.0,6.2122,6.1413,6.0785,5.9955,5.9589,5.9536,5.9454,5.94,5.9317,5.9355,5.9608,6.0039,6.0084,6.0392,6.0823,6.0905,6.0905,6.0898,6.0816,6.0771,6.0707,6.0519,6.0179,5.9698,5.9577,5.9055,5.8175,5.7715,5.7235,5.6698,5.6228,5.5394,5.4199,5.462,5.4707,5.4365,5.4162,5.3256,5.1561,5.1224,0.0,0.0,0.0,0.0,0.0,0.0,0.0,0.0,4.7232,0.0,4.6212,4.5695,4.5247,4.4884,4.5608,4.6288,4.6647,4.7831,4.8023,4.6837,4.8318,4.9508,4.9961,5.0092,5.0307,5.0677,5.0868,5.0962,5.1021,5.1787,5.235,5.2528,5.3284,5.3971,5.4358,5.4524,5.4884,5.5698,5.6099,5.6574,5.6938,5.7328,5.7595,5.7559,5.7313,5.7087,5.7087,5.7125,5.7674,5.8912,5.9472,6.0261,6.1496,6.2128,6.2373,6.2475,6.25,6.2513,6.2601,6.2578,6.2627,6.259,6.259,6.2578,6.2578,6.259,6.259,6.2578,6.2511,6.242,6.4917,6.4842,6.4122,6.3856,6.3781,6.2947,6.253,6.2303,0.0,0.0,0.0,6.0261,6.0181,6.0112,6.0074,6.0533,6.1245,6.1245,6.1658,6.2416,6.2416,6.2382,6.2313,6.2169,6.2069,6.2015,6.1824,6.1342,6.0628,6.0448,5.9926,5.9113,5.8303,5.7802,5.7497,5.6773,5.644,5.6533,5.6263,5.5812,5.5223,5.5027,5.4109,5.2431,5.2191,5.1255,4.9549,4.9409,4.9013,4.8233,4.8681,4.8988,4.8988,4.897,4.9014,4.914,4.8496,4.8181,4.8384,4.9147,4.9738,4.9981,5.123,5.1131,4.9104,4.9714,5.0492,5.1152,5.1236,5.1513,5.2173,5.253,5.2767,5.2767,5.364,5.4191,5.4228,5.4798,5.5199,5.5393,5.5489,5.5793,5.6583,5.6729,5.69,5.7472,5.7679,5.7691,5.7691,5.7595,5.7522,5.7522,5.751,5.8081,5.937,5.9954,6.0624,6.189,6.2329,6.25,6.2603,6.2641,6.2679,6.2755,6.2793,6.278,6.2793,6.278,6.2793,6.2793,6.2793,6.2793,6.278,6.2616,6.2475,6.4917,6.488,6.4775,6.4728,6.4652,6.3818,6.306,6.2416,6.2151,6.2029,6.202,6.202,6.2012,6.1995,6.2003,6.2079,6.221,6.221,6.2286,6.2416,6.2416,6.2408,6.2391,6.2196,6.2106,6.2079,6.1883,6.171,6.1509,6.1379,6.0866,5.999,5.9679,5.9197,5.8555,5.8359,5.8322,5.8295,5.685,5.6108,5.6125,5.5987,5.5121,5.3573,5.3299,5.2373,5.0645,5.046,5.0274,5.0039,5.0091,5.0153,5.0153,5.0168,5.0153,5.0185,5.0065,5.032,5.1023,5.1788,5.2856,5.4157,5.4547,5.3652,5.1347,5.176,5.2266,5.2537,5.2526,5.2585,5.2742,5.3383,5.3781,5.3854,5.4533,5.503,5.5042,5.5279,5.5713,5.6335,5.6525,5.6875,5.7524,5.7682,5.7707,5.7902,5.7904,5.7927,5.7892,5.7763,5.7607,5.7583,5.7583,5.8032,5.903,5.9761,6.0567,6.1532,6.2278,6.2717,6.2743,6.2755,6.2755,6.2793,6.2793,6.2793,6.2793,6.2793,6.2793,6.2793,6.2793,6.2793,6.2793,6.2743,6.2717,6.4917,6.4917,6.4917,6.4917,6.4842,6.4463,6.4084,6.3743,6.3743,6.3212,6.2454,6.2416,6.2416,6.2416,6.2416,6.2644,6.306,6.306,6.3326,6.3743,6.3743,6.3743,6.3725,6.3556,6.3473,6.3417,6.3228,6.2913,6.2488,6.2313,6.179,6.0855,6.0231,5.969,5.9356,5.891,5.8687,5.8687,5.7903,5.732,5.6979,5.6823,5.6179,5.503,5.4841,5.4185,5.2991,5.2825,5.2538,5.1962,5.2264,5.2455,5.239,5.2769,5.3021,5.3087,5.3098,5.3303,5.3734,5.4111,5.4624,5.5345,5.5418,5.4956,5.3826,5.39,5.4025,5.4107,5.4107,5.4107,5.4107,5.4515,5.4779,5.4731,5.5555,5.6065,5.6138,5.6562,5.6962,5.7304,5.7412,5.7593,5.796,5.7997,5.7997,5.7997,5.7997,5.7997,5.7997,5.7904,5.7834,5.7822,5.7834,5.8212,5.8955,5.9773,6.0616,6.1484,6.2291,6.2719,6.2793,6.2793,6.2793,6.2793,6.2793,6.2793,6.2793,6.2793,6.2793,6.2793,6.2793,6.2793,6.2793,6.2793,6.2793,6.4917,6.4917,6.4917,6.4917,6.4917,6.4917,6.4917,6.4917,6.4888,6.4159,6.306,6.2947,6.2947,6.2947,6.2985,6.3326,6.3856,6.3894,6.4235,6.485,6.4917,6.4917,6.4909,6.4708,6.4624,6.4577,6.4413,6.3976,6.3411,6.3245,6.2674,6.1745,6.0688,6.0221,6.0173,5.9579,5.9245,5.9245,5.9245,5.8762,5.7796,5.766,5.7211,5.6459,5.6313,5.5844,5.5083,5.4974,5.4586,5.3881,5.4278,5.4499,5.4447,5.495,5.5339,5.5429,5.544,5.5595,5.5868,5.6062,5.6136,5.6136,5.6136,5.6136,5.6113,5.5967,5.5658,5.5366,5.5231,5.5231,5.5279,5.5567,5.5733,5.577,5.6509,5.7031,5.7141,5.7629,5.7997,5.7997,5.7997,5.796,5.7997,5.7997,5.7997,5.7997,5.7997,5.7997,5.7997,5.7997,5.7997,5.7997,5.7997,5.8168,5.8866,5.9563,6.0334,6.1202,6.1961,6.2462,6.2683,6.2793,6.2793,6.2793,6.2793,6.2793,6.2793,6.2793,6.2793,6.2793,6.2793,6.2793,6.2793,6.2793,6.2793,6.4917,6.4917,6.4917,6.4917,6.4917,6.4917,6.4917,6.4917,6.4917,6.485,6.4576,6.4699,6.4623,6.4652,6.4623,6.4652,6.4728,6.4766,6.4804,6.488,6.4917,6.4917,6.4917,6.4743,6.4652,6.4596,6.4472,6.4289,6.4144,6.4023,6.3455,6.2508,6.1549,6.1076,6.1076,6.1001,6.0927,6.0964,6.0953,6.0173,5.8687,5.8566,5.8194,5.7414,5.7367,5.6918,5.6058,5.5973,5.5875,5.5649,5.5644,5.5653,5.5631,5.5607,5.5588,5.5636,5.56,5.5904,5.6627,5.7373,5.7714,5.7776,5.7666,5.7666,5.7703,5.768,5.7081,5.6006,5.5614,5.5676,5.5625,5.6249,5.6641,5.6678,5.7324,5.7886,5.785,5.7923,5.7997,5.7997,5.7997,5.7997,5.7997,5.7997,5.7997,5.7997,5.7997,5.7997,5.7997,5.7997,5.7997,5.7997,5.7997,5.7997,5.8253,5.8792,5.9673,6.0456,6.119,6.1961,6.2536,6.2793,6.2793,6.2793,6.2793,6.2793,6.2793,6.2793,6.2793,6.2793,6.2793,6.2793,6.2793,6.2805,6.2818,6.4917,6.4917,6.4917,6.4917,6.4917,6.4917,6.4917,6.4917,6.4917,6.4917,6.4917,6.4917,6.4917,6.4917,6.4917,6.4917,6.4917,6.4917,6.4917,6.4917,6.4917,6.4917,6.4871,6.4752,6.4661,6.4596,6.4481,6.4346,6.4284,6.4063,6.3777,6.3307,6.2389,6.1893,6.1882,6.1436,6.1187,6.1187,6.1187,6.0853,6.021,5.969,5.9245,5.891,5.8465,5.8046,5.7707,5.7633,5.7581,5.7439,5.7423,5.7337,5.7243,5.7151,5.7084,5.7017,5.7005,5.7152,5.7483,5.7813,5.7997,5.7997,5.7997,5.7997,5.7997,5.7997,5.7666,5.7189,5.7005,5.7017,5.7017,5.7336,5.7519,5.7556,5.7813,5.7997,5.7997,5.7997,5.7997,5.7997,5.7997,5.7997,5.7997,5.7997,5.7997,5.7997,5.7997,5.7997,5.7997,5.7997,5.7997,5.7997,5.7997,5.7997,5.807,5.8682,5.9453,6.026,6.108,6.1887,6.2572,6.2793,6.2793,6.2805,6.2818,6.2818,6.2793,6.2793,6.2793,6.2805,6.2805,6.2818,6.2904,6.2917,6.2941,6.4917,6.4917,6.4917,6.4917,6.4917,6.4917,6.4917,6.4917,6.4917,6.4917,6.4917,6.4917,6.4917,6.4917,6.4917,6.4917,6.4917,6.4917,6.4917,6.4917,6.4917,6.4917,6.488,6.4779,6.4689,6.4596,6.452,6.4413,6.4284,6.4021,6.3905,6.3787,6.3118,6.2736,6.2662,6.2116,6.1845,6.1882,6.1845,6.1845,6.1744,6.1028,6.047,6.021,5.9467,5.9022,5.9022,5.8836,5.8656,5.8572,5.8503,5.8406,5.829,5.826,5.8122,5.802,5.7997,5.7997,5.7997,5.7997,5.7997,5.7997,5.7997,5.7997,5.7997,5.7997,5.7997,5.7935,5.7997,5.7935,5.7997,5.7997,5.7997,5.7997,5.7997,5.7997,5.7997,5.7997,5.7997,5.7997,5.7997,5.7997,5.7997,5.7997,5.7997,5.7997,5.7997,5.7997,5.7997,5.7997,5.7997,5.7997,5.7997,5.7997,5.8045,5.84,5.9233,6.0187,6.097,6.1557,6.2511,6.2781,6.2855,6.2892,6.288,6.2904,6.2953,6.2929,6.2904,6.2904,6.2904,6.2929,6.3039,6.3051,6.3087,6.4917,6.4917,6.4917,6.4917,6.4917,6.4917,6.4917,6.4917,6.4917,6.4917,6.4917,6.4917,6.4917,6.4917,6.4917,6.4917,6.4917,6.4917,6.4917,6.4917,6.4917,6.4917,6.4917,6.4917,6.4781,6.4606,6.4587,6.4481,6.4284,6.4021,6.3905,6.3883,6.3602,6.3516,6.3479,6.3368,6.3442,6.333,6.3293,6.3405,6.333,6.2625,6.1893,6.1224,6.0322,5.9839,5.9728,5.9096,5.8725,5.8677,5.8582,5.8481,5.8449,5.8301,5.8133,5.8031,5.8008,5.7997,5.7997,5.7997,5.7997,5.7997,5.7997,5.7997,5.7997,5.7997,5.7997,5.7997,5.7997,5.7997,5.7997,5.7997,5.7997,5.7997,5.7997,5.7997,5.7997,5.7997,5.7997,5.7997,5.7997,5.7997,5.7997,5.7997,5.7997,5.7997,5.7997,5.7997,5.7997,5.7997,5.7997,5.7997,5.7997,5.7997,5.8008,5.8143,5.8841,5.9917,6.0688,6.1092,6.2071,6.288,6.2953,6.3014,6.3063,6.3099,6.3147,6.3159,6.3135,6.3123,6.3111,6.3147,6.3171,6.3171,6.3243,6.4917,6.4917,6.4917,6.4917,6.4917,6.4917,6.4917,6.4917,6.4917,6.4917,6.4917,6.4917,6.4917,6.4917,6.4917,6.4917,6.4917,6.4917,6.4917,6.4917,6.4917,6.4917,6.4917,6.4917,6.479,6.4624,6.4596,6.4491,6.4294,6.4048,6.3905,6.3862,6.3665,6.359,6.359,6.359,6.359,6.359,6.359,6.359,6.359,6.333,6.3033,6.2699,6.141,6.047,5.9913,5.9616,5.9245,5.8725,5.8646,5.8593,5.8471,5.8312,5.8167,5.8111,5.8042,5.7997,5.7997,5.7997,5.7997,5.7997,5.7997,5.7997,5.7997,5.7997,5.7997,5.7997,5.7997,5.7997,5.7997,5.7997,5.7997,5.7997,5.7997,5.7997,5.7997,5.7997,5.7997,5.7997,5.7997,5.7997,5.7997,5.7997,5.7997,5.7997,5.8008,5.8008,5.8008,5.8008,5.802,5.8008,5.7997,5.7997,5.7997,5.8008,5.8485,5.972,6.0651,6.1446,6.234,6.2928,6.3111,6.3123,6.3183,6.3218,6.323,6.3267,6.3267,6.3255,6.3255,6.3314,6.3338,6.3301,6.3384,6.4917,6.4917,6.4917,6.4917,6.4917,6.4917,6.4917,6.4917,6.4917,6.4917,6.4917,6.4917,6.4917,6.4917,6.4917,6.4917,6.4917,6.4917,6.4917,6.4917,6.4917,6.4917,6.4917,6.4917,6.479,6.4615,6.453,6.4423,6.4284,6.4048,6.3905,6.3883,6.3714,6.359,6.359,6.359,6.359,6.359,6.359,6.359,6.359,6.359,6.359,6.3442,6.2513,6.1585,6.073,6.047,5.995,5.9245,5.9096,5.8895,5.8556,5.8378,5.8257,5.8227,5.8099,5.8042,5.8008,5.7997,5.7997,5.7997,5.7997,5.7997,5.7997,5.7997,5.7997,5.7997,5.7997,5.7997,5.7997,5.7997,5.7997,5.7997,5.7997,5.7997,5.7997,5.7997,5.7997,5.7997,5.7997,5.7997,5.7997,5.7997,5.7997,5.8008,5.8031,5.8054,5.8065,5.8099,5.8111,5.8159,5.8133,5.8145,5.8266,5.8425,5.8943,6.0083,6.0719,6.1577,6.2472,6.2998,6.3279,6.3291,6.3302,6.3326,6.3338,6.3338,6.3338,6.3338,6.3373,6.3442,6.3454,6.344,6.35,6.4917,6.4917,6.4917,6.4917,6.4917,6.4917,6.4917,6.4917,6.4917,6.4917,6.4917,6.4917,6.4917,6.4917,6.4917,6.4917,6.4917,6.4917,6.4917,6.4917,6.4917,6.4917,6.4917,6.4917,6.4781,6.4596,6.4403,6.4314,6.4284,6.4069,6.3915,6.3862,6.3725,6.3613,6.359,6.359,6.359,6.359,6.359,6.359,6.359,6.359,6.359,6.359,6.3442,6.307,6.2339,6.1585,6.0815,6.0025,5.9913,5.9452,5.8773,5.8508,5.8411,5.8246,5.8227,5.8122,5.8031,5.8008,5.8008,5.802,5.8008,5.8031,5.8054,5.8042,5.8042,5.8042,5.8042,5.802,5.8031,5.8042,5.802,5.7997,5.7997,5.7997,5.7997,5.7997,5.7997,5.8008,5.8008,5.8008,5.8008,5.8042,5.8065,5.8088,5.8145,5.8223,5.8246,5.8301,5.8382,5.8393,5.8393,5.843,5.87,5.9058,5.9777,6.0517,6.0907,6.1507,6.2639,6.3338,6.3396,6.3419,6.3454,6.3477,6.3477,6.3477,6.35,6.3511,6.3545,6.3534,6.3545,6.3545,6.3557,6.4917,6.4917,6.4917,6.4917,6.4917,6.4917,6.4917,6.4917,6.4917,6.4917,6.4917,6.4917,6.4917,6.4917,6.4917,6.4917,6.4917,6.4917,6.4917,6.4917,6.4917,6.4917,6.4917,6.4917,6.4781,6.4606,6.4424,6.4354,6.4274,6.4094,6.399,6.3883,6.3791,6.368,6.359,6.359,6.359,6.359,6.359,6.359,6.359,6.359,6.359,6.359,6.359,6.3479,6.3182,6.2439,6.1659,6.0842,6.0805,6.0385,5.9563,5.8858,5.8486,5.8422,5.8268,5.8215,5.8122,5.8054,5.8042,5.8099,5.8122,5.8167,5.8271,5.8246,5.8282,5.8282,5.8294,5.8282,5.8282,5.8294,5.819,5.802,5.7997,5.802,5.802,5.802,5.7997,5.8008,5.8077,5.8122,5.8182,5.8215,5.8268,5.8308,5.84,5.8443,5.8529,5.8582,5.8582,5.8593,5.8667,5.8996,5.9521,6.0035,6.0704,6.1237,6.1549,6.1897,6.2898,6.344,6.3534,6.3568,6.3602,6.3613,6.3613,6.3624,6.3635,6.3613,6.359,6.359,6.359,6.359,6.359,6.4917,6.4917,6.4917,6.4917,6.4917,6.4917,6.4917,6.4917,6.4917,6.4917,6.4917,6.4917,6.4917,6.4917,6.4917,6.4917,6.4917,6.4917,6.4917,6.4917,6.4917,6.4917,6.4917,6.4853,6.4754,6.4606,6.4453,6.4384,6.4294,6.4172,6.4021,6.3894,6.3834,6.3751,6.3602,6.359,6.359,6.359,6.359,6.359,6.359,6.359,6.359,6.359,6.359,6.359,6.3553,6.3108,6.2476,6.1744,6.1362,6.0927,6.0359,5.9552,5.9006,5.8904,5.8552,5.8271,5.8215,5.8111,5.8099,5.8179,5.8257,5.8334,5.8411,5.8443,5.8523,5.8523,5.8523,5.8523,5.8523,5.8523,5.8411,5.8279,5.8201,5.8145,5.8133,5.8133,5.8133,5.8167,5.8212,5.8294,5.8323,5.8367,5.8486,5.8566,5.865,5.8723,5.8815,5.8912,5.9034,5.9241,5.9532,5.9963,6.0513,6.1066,6.163,6.2023,6.2375,6.272,6.3383,6.3639,6.3709,6.372,6.3742,6.3742,6.3742,6.3769,6.3769,6.3714,6.3669,6.3647,6.3635,6.3602,6.359,6.4917,6.4917,6.4917,6.4917,6.4917,6.4917,6.4917,6.4917,6.4917,6.4917,6.4917,6.4917,6.4917,6.4917,6.4917,6.4917,6.4917,6.4917,6.4917,6.4917,6.4917,6.4917,6.488,6.4817,6.4726,6.4596,6.4463,6.4366,6.4294,6.4193,6.4058,6.3894,6.3845,6.3725,6.3624,6.359,6.359,6.359,6.359,6.359,6.359,6.359,6.359,6.359,6.359,6.359,6.359,6.3516,6.3182,6.2476,6.177,6.1336,6.1113,6.0433,5.9934,5.9885,5.9061,5.874,5.8492,5.8677,5.8603,5.8696,5.8835,5.8672,5.8959,5.9191,5.9233,5.9185,5.909,5.9006,5.9043,5.9043,5.9032,5.8863,5.8693,5.8426,5.8415,5.8415,5.8415,5.8415,5.8426,5.8469,5.8535,5.8556,5.8702,5.8865,5.8994,5.9082,5.9234,5.9469,5.9844,6.0125,6.0426,6.1112,6.1723,6.2061,6.2616,6.3142,6.3323,6.3501,6.3712,6.3841,6.3926,6.3926,6.3937,6.3937,6.3915,6.3905,6.391,6.3867,6.3812,6.3736,6.368,6.3658,6.3624,6.4917,6.4917,6.4917,6.4917,6.4917,6.4917,6.4917,6.4917,6.4917,6.4917,6.4917,6.4917,6.4917,6.4917,6.4917,6.4917,6.4917,6.4917,6.4917,6.4917,6.4917,6.4917,6.488,6.4862,6.4763,6.4615,6.4558,6.4472,6.4304,6.4264,6.4142,6.3905,6.3899,6.3791,6.3624,6.3602,6.359,6.359,6.359,6.359,6.359,6.359,6.359,6.359,6.359,6.359,6.359,6.359,6.3553,6.3256,6.2513,6.2105,6.2041,6.1288,6.0868,6.075,6.0515,6.0252,6.023,6.0204,6.0237,6.041,6.0401,6.0743,6.0862,6.0883,6.0903,6.0893,6.0832,6.0696,6.0733,6.0706,6.0706,6.059,5.9599,5.8784,5.8752,5.8604,5.8641,5.8651,5.8834,5.8964,5.9072,5.9154,5.9261,5.9477,5.956,5.9669,5.9964,6.0327,6.0844,6.1068,6.1417,6.222,6.2825,6.3165,6.3619,6.4224,6.435,6.4228,6.4214,6.4101,6.4128,6.4118,6.4216,6.4227,6.4155,6.4104,6.4052,6.409,6.3958,6.3915,6.3812,6.3747,6.3702,6.4917,6.4917,6.4917,6.4917,6.4917,6.4917,6.4917,6.4917,6.4917,6.4917,6.4917,6.4917,6.4917,6.4917,6.4917,6.4917,6.4917,6.4917,6.4917,6.4917,6.4917,6.4917,6.4917,6.4917,6.4808,6.4643,6.4615,6.451,6.4374,6.4314,6.4183,6.4,6.3915,6.3808,6.3691,6.3613,6.359,6.359,6.359,6.359,6.359,6.359,6.359,6.359,6.359,6.359,6.359,6.359,6.359,6.3516,6.3145,6.2885,6.281,6.2153,6.1733,6.1696,6.1355,6.1063,6.1084,6.115,6.1241,6.1378,6.1602,6.1759,6.1788,6.1902,6.193,6.1826,6.1796,6.1767,6.1757,6.1757,6.1757,6.157,6.075,6.005,5.9916,5.9949,5.9905,5.9987,6.007,6.0237,6.0266,6.0378,6.0579,6.0794,6.0959,6.1044,6.121,6.1554,6.1912,6.2195,6.2528,6.328,6.3841,6.4183,6.4229,6.4837,6.4934,6.4859,6.4669,6.4483,6.4464,6.4511,6.4511,6.4492,6.4453,6.4415,6.4405,6.4366,6.4209,6.4104,6.399,6.3953,6.3888,6.4917,6.4917,6.4917,6.4917,6.4917,6.4917,6.4917,6.4917,6.4917,6.4917,6.4917,6.4917,6.4917,6.4917,6.4917,6.4917,6.4917,6.4917,6.4917,6.4917,6.4917,6.4917,6.4917,6.4917,6.4826,6.4698,6.4605,6.4539,6.4423,6.4334,6.4234,6.4063,6.3947,6.3878,6.3758,6.3658,6.3602,6.359,6.359,6.359,6.359,6.359,6.359,6.359,6.359,6.359,6.359,6.359,6.359,6.359,6.359,6.3516,6.3442,6.2848,6.2588,6.245,6.2026,6.1676,6.1581,6.19,6.1936,6.216,6.2391,6.2405,6.2611,6.274,6.2749,6.2735,6.2415,6.2615,6.2606,6.2473,6.2577,6.2596,6.2417,6.2222,6.1923,6.1681,6.1599,6.1708,6.1788,6.1949,6.2095,6.2237,6.229,6.1871,6.2024,6.2033,6.2247,6.262,6.304,6.3482,6.3893,6.4327,6.4747,6.5128,6.5097,6.5258,6.5236,6.5172,6.5073,6.4946,6.4903,6.4915,6.485,6.488,6.4862,6.4826,6.4752,6.467,6.4549,6.4385,6.4237,6.4196,6.4145,6.4917,6.4917,6.4917,6.4917,6.4917,6.4917,6.4917,6.4917,6.4917,6.4917,6.4917,6.4917,6.4917,6.4917,6.4917,6.4917,6.4917,6.4917,6.4917,6.4917,6.4917,6.4917,6.4917,6.4917,6.4835,6.4716,6.4652,6.4539,6.4405,6.4354,6.4244,6.4083,6.3979,6.3851,6.3791,6.368,6.359,6.359,6.359,6.359,6.3628,6.3665,6.3702,6.3739,6.3739,6.3665,6.359,6.359,6.359,6.359,6.3628,6.3702,6.3553,6.3405,6.3256,6.3241,6.3256,6.3194,6.3313,6.3389,6.3713,6.3719,6.394,6.4381,6.4389,6.4352,6.439,6.4381,6.4349,6.4116,6.4116,6.422,6.4116,6.4078,6.4107,6.4118,6.3943,6.2861,6.2222,6.2155,6.2282,6.2327,6.2492,6.2745,6.2849,6.2884,6.2973,6.2957,6.3277,6.3712,6.4035,6.4457,6.4687,6.4977,6.5123,6.5429,6.5429,6.5436,6.5444,6.5474,6.5345,6.5275,6.525,6.5218,6.5194,6.5185,6.5169,6.5086,6.4989,6.4912,6.4842,6.4689,6.4568,6.4464,6.4415,6.4917,6.4917,6.4917,6.4917,6.4917,6.4917,6.4917,6.4917,6.4917,6.4917,6.4917,6.4917,6.4917,6.4917,6.4917,6.4917,6.4917,6.4917,6.4917,6.4917,6.4917,6.4917,6.4917,6.4917,6.4853,6.4761,6.4679,6.4577,6.451,6.4403,6.4277,6.4203,6.4042,6.3937,6.3867,6.3747,6.3658,6.3602,6.359,6.359,6.3628,6.3999,6.4445,6.4668,6.4779,6.4779,6.4816,6.4828,6.4779,6.4668,6.4371,6.3962,6.3628,6.359,6.359,6.3613,6.3769,6.3899,6.4021,6.4257,6.4473,6.4705,6.4989,6.5106,6.5164,6.5228,6.5196,6.5123,6.504,6.5019,6.5019,6.5019,6.5019,6.5027,6.5027,6.5065,6.4888,6.4066,6.3439,6.3454,6.3689,6.3823,6.3884,6.3734,6.3991,6.4315,6.4374,6.4357,6.4465,6.4785,6.4838,6.5092,6.5336,6.5496,6.5534,6.5566,6.5544,6.5537,6.553,6.5611,6.5604,6.5554,6.551,6.5474,6.5421,6.5451,6.5383,6.5298,6.522,6.518,6.5106,6.4981,6.4877,6.4797,6.4707,6.4917,6.4917,6.4917,6.4917,6.4917,6.4917,6.4917,6.4917,6.4917,6.4917,6.4917,6.4917,6.4917,6.4917,6.4917,6.4917,6.4917,6.4917,6.4917,6.4917,6.4917,6.4917,6.4917,6.4917,6.488,6.488,6.4752,6.4652,6.4587,6.4453,6.4364,6.4284,6.4172,6.4011,6.3905,6.3834,6.3714,6.3613,6.359,6.3739,6.3925,6.4445,6.5076,6.5708,6.5868,6.5868,6.5831,6.5868,6.5979,6.6042,6.5373,6.4631,6.3999,6.3628,6.359,6.3602,6.3802,6.3947,6.4135,6.4405,6.4736,6.4989,6.5188,6.5344,6.5368,6.5405,6.5421,6.5337,6.5258,6.521,6.521,6.5234,6.5234,6.5242,6.5242,6.525,6.5218,6.5095,6.4871,6.4837,6.4647,6.4684,6.494,6.5022,6.5384,6.5608,6.5622,6.5629,6.5629,6.5635,6.5503,6.5478,6.5645,6.569,6.5728,6.5722,6.5715,6.5701,6.5688,6.5715,6.58,6.5767,6.5674,6.5646,6.5625,6.5625,6.5604,6.5494,6.5443,6.5428,6.5368,6.5259,6.5164,6.5073,6.501,6.4917,6.4917,6.4917,6.4917,6.4917,6.4917,6.4917,6.4917,6.4917,6.4917,6.4917,6.4917,6.4917,6.4917,6.4917,6.4917,6.4917,6.4917,6.4917,6.4917,6.4917,6.4917,6.4917,6.4917,6.4917,6.4862,6.4761,6.467,6.4606,6.4481,6.4366,6.4294,6.4183,6.4031,6.3926,6.3834,6.3736,6.3661,6.3713,6.3962,6.4445,6.4928,6.5485,6.6239,6.6388,6.6351,6.6228,6.6165,6.6091,6.6091,6.5968,6.5448,6.4742,6.4073,6.3702,6.3647,6.3764,6.3979,6.4169,6.4473,6.4815,6.512,6.5352,6.5435,6.5494,6.5611,6.559,6.5503,6.5383,6.5375,6.5375,6.5375,6.5428,6.5443,6.5465,6.5532,6.5479,6.5413,6.5291,6.5234,6.5266,6.5329,6.5428,6.5583,6.5667,6.5735,6.5762,6.5775,6.5775,6.5788,6.5769,6.5782,6.5833,6.5878,6.5878,6.5827,6.5821,6.5808,6.5795,6.5795,6.5865,6.5878,6.5859,6.5762,6.5728,6.5708,6.5688,6.5674,6.5639,6.559,6.553,6.5509,6.539,6.5267,6.5196,6.4501,6.488,6.4917,6.4917,6.4917,6.4917,6.4917,6.4917,6.4917,6.4917,6.4917,6.4917,6.4917,6.4917,6.4917,6.4917,6.4917,6.4917,6.4917,6.4917,6.4917,6.4917,6.4917,6.4917,6.4917,6.4871,6.4835,6.4725,6.4671,6.4577,6.4424,6.4326,6.4264,6.4152,6.4,6.3921,6.3812,6.3777,6.4007,6.4371,6.4928,6.5522,6.6488,6.7082,6.7305,6.7342,6.7342,6.7342,6.7342,6.7305,6.6933,6.6525,6.5856,6.4928,6.4036,6.3784,6.3812,6.4,6.4219,6.4511,6.4842,6.5153,6.5368,6.5509,6.5566,6.5667,6.5701,6.5573,6.5494,6.5457,6.5487,6.5501,6.5516,6.5544,6.5587,6.5601,6.5594,6.5573,6.5479,6.5413,6.5436,6.5443,6.5554,6.566,6.5748,6.5846,6.5891,6.5904,6.5904,6.5904,6.5904,6.5897,6.5897,6.5897,6.5904,6.5904,6.5904,6.5904,6.5904,6.5904,6.5904,6.5897,6.5891,6.5859,6.584,6.5775,6.5788,6.5781,6.5742,6.5708,6.5688,6.5646,6.5544,6.5465,6.539,6.3781,6.4387,6.4585,6.4652,6.4652,6.485,6.4917,6.4917,6.4917,6.4917,6.4917,6.4917,6.4917,6.4917,6.4917,6.4917,6.4917,6.4917,6.4917,6.4917,6.4917,6.4917,6.4917,6.4917,6.4917,6.4917,6.488,6.4835,6.4698,6.4634,6.4539,6.4385,6.4334,6.4234,6.4111,6.4016,6.391,6.3966,6.4249,6.4628,6.5385,6.6636,6.7788,6.8419,6.8531,6.8419,6.8308,6.8308,6.8308,6.8159,6.7862,6.7416,6.7082,6.5856,6.4705,6.4033,6.3924,6.4011,6.4229,6.4539,6.4868,6.5161,6.5406,6.5509,6.5594,6.5688,6.5767,6.5667,6.5559,6.5537,6.5566,6.5566,6.558,6.5608,6.5642,6.5688,6.5694,6.5688,6.5667,6.5611,6.5566,6.5618,6.5667,6.5688,6.5807,6.5859,6.5904,6.5904,6.5904,6.5904,6.5904,6.5904,6.5897,6.5897,6.5904,6.5904,6.5904,6.5904,6.5904,6.5904,6.5904,6.5897,6.5891,6.5885,6.5885,6.5872,6.5897,6.5897,6.5852,6.582,6.582,6.578,6.5674,6.5639,6.559,6.2606,6.2757,6.3477,6.3743,6.3894,6.4538,6.488,6.4917,6.4917,6.4917,6.4917,6.4917,6.4917,6.4917,6.4917,6.4917,6.4917,6.4917,6.4917,6.4917,6.4917,6.4917,6.4917,6.4917,6.4917,6.4917,6.4917,6.4835,6.4725,6.4662,6.4549,6.4415,6.4354,6.4244,6.4152,6.409,6.3985,6.3861,6.3955,6.4659,6.5954,6.7453,6.8233,6.8456,6.8531,6.8531,6.8531,6.8531,6.8531,6.8493,6.8419,6.7973,6.7305,6.6451,6.5559,6.4811,6.4249,6.3963,6.4219,6.4577,6.4915,6.5144,6.5352,6.5509,6.5646,6.5708,6.5787,6.578,6.5674,6.5608,6.5635,6.5694,6.5722,6.5755,6.5781,6.5808,6.5814,6.5755,6.578,6.578,6.5715,6.5753,6.578,6.5793,6.5813,6.5865,6.5904,6.5904,6.5904,6.5904,6.5904,6.5904,6.5904,6.5904,6.5904,6.5904,6.5904,6.5904,6.5904,6.5904,6.5904,6.5904,6.5904,6.5897,6.5904,6.5904,6.5904,6.5897,6.5891,6.5885,6.5865,6.5833,6.5793,6.5773,6.576,6.1553,6.2454,6.2795,6.3212,6.3629,6.4008,6.4463,6.4842,6.4917,6.4917,6.4917,6.4917,6.4917,6.4917,6.4917,6.4917,6.4917,6.4917,6.4917,6.4917,6.4917,6.4917,6.4917,6.4917,6.4917,6.4917,6.4917,6.488,6.4799,6.4689,6.4596,6.452,6.4423,6.4324,6.4203,6.4114,6.399,6.4139,6.4689,6.5654,6.6771,6.7825,6.8493,6.8493,6.8493,6.8531,6.8531,6.8531,6.8531,6.8531,6.8531,6.8382,6.7751,6.6859,6.5856,6.5571,6.4417,6.399,6.4155,6.4501,6.4788,6.5086,6.5291,6.5532,6.566,6.5728,6.5813,6.5852,6.5787,6.5722,6.5742,6.5793,6.582,6.5846,6.5859,6.5872,6.5878,6.5885,6.5852,6.5859,6.5852,6.584,6.5833,6.5846,6.5852,6.5872,6.5904,6.5904,6.5904,6.5904,6.5904,6.5904,6.5904,6.5904,6.5904,6.5904,6.5904,6.5904,6.5904,6.5904,6.5904,6.5904,6.5904,6.5904,6.5904,6.5904,6.5904,6.5897,6.5897,6.5897,6.5897,6.5872,6.5846,6.5891,6.6134,6.0643,6.1772,6.2008,6.2416,6.3023,6.3402,6.397,6.4538,6.4813,6.4917,6.4917,6.4917,6.4917,6.4917,6.4917,6.4917,6.4917,6.4917,6.4917,6.4917,6.4917,6.4917,6.4917,6.4917,6.4917,6.4917,6.4917,6.488,6.4862,6.4808,6.4726,6.4596,6.4472,6.4346,6.4294,6.4203,6.4063,6.4006,6.5024,6.584,6.6574,6.7565,6.8011,6.8233,6.8382,6.8531,6.8531,6.8531,6.8531,6.8531,6.8531,6.8456,6.8196,6.6971,6.6165,6.5657,6.4633,6.385,6.4031,6.4326,6.4605,6.4946,6.522,6.5496,6.5646,6.5715,6.5793,6.5852,6.582,6.582,6.5846,6.5813,6.58,6.5807,6.5788,6.5801,6.5808,6.5826,6.5826,6.5833,6.584,6.5865,6.5872,6.5891,6.5897,6.5897,6.5904,6.5904,6.5904,6.5904,6.5904,6.5904,6.5904,6.5904,6.5904,6.5904,6.5904,6.5904,6.5904,6.5904,6.5904,6.5904,6.5904,6.5904,6.5904,6.5904,6.5904,6.5904,6.5904,6.5904,6.5904,6.5904,6.5891,6.6013,6.6737,5.9969,6.0113,6.0879,6.1258,6.1486,6.2947,6.3629,6.3894,6.4576,6.4917,6.4917,6.4917,6.4917,6.4917,6.4917,6.4917,6.4917,6.4917,6.4917,6.4917,6.4917,6.4917,6.4917,6.4917,6.4917,6.4917,6.4917,6.4917,6.4917,6.4909,6.4754,6.4615,6.452,6.4403,6.4314,6.4244,6.4094,6.4123,6.4808,6.5142,6.5668,6.6488,6.7342,6.7528,6.8048,6.8493,6.8493,6.8493,6.8531,6.8531,6.8531,6.8345,6.8048,6.6896,6.6165,6.5571,6.4505,6.3836,6.3921,6.4186,6.4577,6.4897,6.5185,6.5383,6.5554,6.558,6.5681,6.578,6.578,6.5787,6.5793,6.5793,6.576,6.5708,6.5715,6.5715,6.5708,6.5694,6.5708,6.5787,6.5807,6.582,6.5833,6.5795,6.5885,6.5891,6.5897,6.5904,6.5904,6.5904,6.5904,6.5904,6.5904,6.5904,6.5904,6.5904,6.5904,6.5904,6.5904,6.5904,6.5904,6.5904,6.5904,6.5904,6.5904,6.5904,6.5904,6.5904,6.5904,6.5904,6.5904,6.5981,6.6327,6.6667,6.7667,5.9893,5.9931,6.0235,6.0652,6.1182,6.2378,6.3136,6.3705,6.4547,6.4917,6.4917,6.4917,6.4917,6.4917,6.4917,6.4917,6.4917,6.4917,6.4917,6.4917,6.4917,6.4917,6.4917,6.4917,6.4917,6.4917,6.4917,6.4917,6.4917,6.4917,6.4817,6.4661,6.4549,6.4444,6.4394,6.4254,6.4073,6.4134,6.4554,6.4916,6.5074,6.5831,6.6562,6.6636,6.7342,6.7713,6.7825,6.8271,6.8419,6.8456,6.8419,6.8159,6.7713,6.6611,6.5893,6.5373,6.4185,6.3769,6.3791,6.409,6.4433,6.4826,6.5078,6.522,6.5375,6.5488,6.553,6.5632,6.5726,6.5803,6.5681,6.5681,6.5667,6.5608,6.5587,6.5573,6.5559,6.5537,6.5573,6.5653,6.5674,6.5694,6.5701,6.5676,6.5788,6.584,6.5891,6.5904,6.5904,6.5904,6.5904,6.5904,6.5904,6.5904,6.5904,6.5904,6.5904,6.5904,6.5904,6.5904,6.5904,6.5904,6.5904,6.5904,6.5904,6.5904,6.5904,6.5904,6.5904,6.5904,6.6013,6.6128,6.6628,6.7282,6.8398,5.9893,5.9893,5.9893,6.0197,6.0841,6.1667,6.2349,6.2993,6.4017,6.469,6.488,6.4917,6.4917,6.4917,6.4917,6.4917,6.4917,6.4917,6.4917,6.4917,6.4917,6.4917,6.4917,6.4917,6.4917,6.4917,6.4917,6.4917,6.4917,6.4917,6.4844,6.4781,6.4652,6.4539,6.4376,6.4274,6.4073,6.4086,6.4325,6.4592,6.4553,6.5225,6.5708,6.5819,6.6488,6.6896,6.7045,6.7342,6.7565,6.7602,6.7602,6.7416,6.6859,6.6191,6.5448,6.4779,6.4159,6.3684,6.3758,6.4006,6.4277,6.4671,6.4788,6.4998,6.5226,6.5482,6.5826,6.5547,6.5736,6.5865,6.569,6.5523,6.551,6.5466,6.5436,6.5421,6.5429,6.5429,6.5488,6.5547,6.5561,6.5544,6.5608,6.5629,6.5715,6.5813,6.584,6.5865,6.5904,6.5904,6.5904,6.5904,6.5904,6.5904,6.5904,6.5904,6.5904,6.5904,6.5904,6.5904,6.5904,6.5904,6.5904,6.5904,6.5904,6.5904,6.5904,6.5904,6.5904,6.5904,6.6013,6.6205,6.7244,6.7975,6.8821,5.9893,5.9893,5.9893,5.9931,6.0121,6.0803,6.122,6.1629,6.3069,6.4122,6.4728,6.4842,6.4917,6.4917,6.4917,6.4917,6.4917,6.4917,6.4917,6.4917,6.4917,6.4917,6.4917,6.4917,6.4917,6.4917,6.4917,6.4917,6.4917,6.4917,6.4909,6.4844,6.4707,6.4577,6.4405,6.4344,6.4145,6.3958,6.399,6.3913,6.3993,6.4542,6.4779,6.5039,6.5633,6.6079,6.6191,6.6451,6.6636,6.6636,6.6599,6.6413,6.6079,6.5411,6.4891,6.4631,6.3999,6.3639,6.3624,6.3942,6.423,6.4461,6.4615,6.4905,6.5212,6.569,6.6246,6.6039,6.6162,6.6147,6.5818,6.5398,6.5321,6.5266,6.5234,6.5226,6.5226,6.5234,6.529,6.5298,6.536,6.542,6.5523,6.5587,6.5653,6.574,6.578,6.582,6.5859,6.5821,6.5808,6.5814,6.5814,6.5872,6.5872,6.5891,6.5904,6.5904,6.5904,6.5904,6.5904,6.5904,6.5904,6.5904,6.5904,6.5904,6.5904,6.5904,6.5904,6.5904,6.6051,6.6436,6.7583,6.8584,6.9398,5.9893,5.9893,5.9893,5.9893,6.0007,6.0765,6.1106,6.141,6.2795,6.3743,6.4122,6.4576,6.4917,6.4917,6.4917,6.4917,6.4917,6.4917,6.4917,6.4917,6.4917,6.4917,6.4917,6.4917,6.4917,6.4917,6.4917,6.4917,6.4917,6.4917,6.4917,6.4853,6.4745,6.4577,6.4405,6.4334,6.4213,6.4031,6.3937,6.3867,6.3773,6.3944,6.4073,6.4122,6.4853,6.5225,6.5262,6.5596,6.5856,6.5905,6.5856,6.5708,6.5373,6.4742,6.4519,6.4185,6.3628,6.3628,6.3788,6.4082,6.4395,6.4479,6.4813,6.5235,6.5577,6.6416,6.6675,6.67,6.6602,6.6458,6.6074,6.5419,6.5179,6.5065,6.5001,6.4993,6.5001,6.5001,6.5027,6.5061,6.5111,6.521,6.5275,6.5345,6.5429,6.551,6.5554,6.5653,6.5715,6.5708,6.5701,6.5722,6.5735,6.5807,6.5833,6.5852,6.5878,6.5885,6.5891,6.5904,6.5904,6.5904,6.5904,6.5904,6.5904,6.5904,6.5904,6.5904,6.5904,6.5942,6.6359,6.6898,6.7891,6.8891,6.9744,5.9893,5.9893,5.9893,5.9893,5.9969,6.0462,6.0803,6.1258,6.2273,6.2871,6.3326,6.4046,6.4425,6.4501,6.4766,6.4917,6.4917,6.4917,6.4917,6.4917,6.4917,6.4917,6.4917,6.4917,6.4917,6.4917,6.4917,6.4917,6.4917,6.4917,6.4917,6.4882,6.4736,6.4587,6.4453,6.4374,6.4234,6.4083,6.399,6.3931,6.3812,6.3788,6.371,6.3788,6.411,6.4371,6.4556,6.4891,6.5262,6.5262,6.5188,6.5002,6.4556,6.4296,6.411,6.3739,6.359,6.359,6.3788,6.4345,6.454,6.4496,6.5245,6.5778,6.6161,6.6934,6.7203,6.7174,6.702,6.6612,6.6177,6.5495,6.5129,6.5019,6.4699,6.4652,6.4652,6.4652,6.4698,6.4725,6.4788,6.4894,6.5036,6.5086,6.5144,6.5204,6.5306,6.5428,6.5544,6.5559,6.5559,6.558,6.5615,6.5688,6.5735,6.5813,6.584,6.5859,6.5878,6.5891,6.5904,6.5904,6.5904,6.5904,6.5904,6.5904,6.5904,6.5904,6.6058,6.6513,6.709,6.7667,6.8314,6.9161,7.0052,5.9893,5.9893,5.9893,5.9893,5.9931,5.9969,6.0386,6.1031,6.1144,6.1629,6.2416,6.3212,6.3667,6.3818,6.4463,6.4842,6.4917,6.4917,6.4917,6.4917,6.4917,6.4917,6.4917,6.4917,6.4917,6.4917,6.4917,6.4917,6.4917,6.4917,6.4917,6.4862,6.4743,6.4652,6.453,6.4423,6.4274,6.4145,6.4063,6.3985,6.3856,6.378,6.3691,6.371,6.3739,6.3813,6.385,6.3962,6.3925,6.385,6.3776,6.3702,6.3628,6.3628,6.359,6.359,6.359,6.359,6.3739,6.4371,6.4891,6.5005,6.5757,6.6213,6.6774,6.7438,6.782,6.7811,6.7674,6.6899,6.6238,6.5689,6.5217,6.479,6.4324,6.4239,6.4239,6.4269,6.4338,6.4396,6.4464,6.4568,6.4734,6.4835,6.4996,6.4912,6.4993,6.5172,6.5306,6.5457,6.5465,6.5487,6.5523,6.5566,6.5615,6.5688,6.5735,6.5748,6.5846,6.5872,6.5885,6.5897,6.5904,6.5904,6.5904,6.5981,6.6211,6.6365,6.6436,6.7013,6.7821,6.8321,6.8891,6.9468,7.0244,5.9893,5.9893,5.9893,5.9893,5.9893,5.9893,6.0045,6.031,6.0803,6.1288,6.1515,6.2378,6.2985,6.3629,6.3856,6.4349,6.469,6.4917,6.4917,6.4917,6.4917,6.4917,6.4917,6.4917,6.4917,6.4917,6.4917,6.4917,6.4917,6.4917,6.4917,6.4909,6.477,6.4707,6.4605,6.4501,6.4326,6.4216,6.4135,6.4011,6.3921,6.3834,6.3736,6.3647,6.359,6.359,6.359,6.359,6.359,6.359,6.359,6.359,6.359,6.359,6.359,6.359,6.359,6.3628,6.3739,6.4333,6.5002,6.5633,6.6423,6.694,6.7448,6.7943,6.8435,6.834,6.8124,6.7426,6.6681,6.6066,6.5318,6.4635,6.4262,6.4224,6.4224,6.4246,6.4319,6.4558,6.4629,6.473,6.4868,6.4802,6.4897,6.4747,6.4716,6.4906,6.504,6.5204,6.5306,6.5322,6.5375,6.5405,6.5487,6.5568,6.5625,6.5681,6.5742,6.5826,6.584,6.5859,6.5885,6.6013,6.6282,6.6513,6.675,6.6898,6.7051,6.7859,6.8667,6.9052,6.9436,7.0014,7.0398,5.9893,5.9893,5.9893,5.9893,5.9893,5.9893,5.9893,6.0007,6.0424,6.0614,6.0727,6.1515,6.2159,6.2614,6.325,6.3894,6.4349,6.4766,6.4917,6.4917,6.4917,6.4917,6.4917,6.4917,6.4917,6.4917,6.4917,6.4917,6.4917,6.4917,6.4917,6.4917,6.4817,6.4752,6.467,6.4549,6.4424,6.4317,6.4206,6.4094,6.3979,6.3899,6.378,6.368,6.3624,6.3602,6.359,6.359,6.359,6.359,6.359,6.359,6.359,6.359,6.359,6.359,6.359,6.359,6.3739,6.4333,6.5188,6.6005,6.6785,6.7427,6.7882,6.8383,6.8625,6.8679,6.8376,6.7939,6.7195,6.644,6.5418,6.4446,6.4361,6.4323,6.4286,6.4286,6.4554,6.487,6.5031,6.5165,6.5153,6.5041,6.4933,6.4923,6.4815,6.4773,6.4841,6.4886,6.5006,6.5103,6.5147,6.522,6.5298,6.5375,6.5457,6.553,6.5615,6.5701,6.5735,6.5935,6.6045,6.6417,6.6821,6.7167,6.7552,6.7628,6.7859,6.8706,6.936,6.9629,6.9975,7.0398,7.0706,5.9893,5.9893,5.9893,5.9893,5.9893,5.9893,5.9893,5.9893,5.9969,5.9931,6.0083,6.0689,6.1106,6.1637,6.2501,6.3288,6.3818,6.4349,6.4728,6.488,6.4917,6.4917,6.4917,6.4917,6.4917,6.4917,6.4917,6.4917,6.4917,6.4917,6.4917,6.4917,6.4917,6.4844,6.4734,6.4633,6.4521,6.4415,6.4354,6.4234,6.4073,6.3958,6.3851,6.378,6.368,6.3613,6.3602,6.359,6.359,6.359,6.359,6.359,6.359,6.359,6.359,6.359,6.359,6.359,6.3702,6.4185,6.4928,6.5819,6.6711,6.7354,6.7822,6.8391,6.8648,6.8721,6.842,6.8022,6.7328,6.6969,6.6204,6.5414,6.5031,6.5019,6.5031,6.5031,6.5202,6.5471,6.5602,6.5728,6.5739,6.5638,6.5522,6.5378,6.5272,6.5047,6.5025,6.5048,6.4879,6.4988,6.4915,6.4963,6.5031,6.5131,6.5291,6.539,6.5494,6.558,6.5667,6.5952,6.6281,6.6845,6.7487,6.8038,6.843,6.8513,6.8783,6.9475,7.0014,7.0206,7.0514,7.0783,7.086,5.9893,5.9893,5.9893,5.9893,5.9893,5.9893,5.9893,5.9893,5.9893,5.9893,5.9969,6.0159,6.0538,6.1144,6.1599,6.2387,6.3477,6.3894,6.4311,6.4728,6.4917,6.4917,6.4917,6.4917,6.4917,6.4917,6.4917,6.4917,6.4917,6.4917,6.4917,6.4917,6.4917,6.4862,6.4835,6.4745,6.4615,6.4539,6.4433,6.4294,6.4142,6.4079,6.4006,6.3856,6.3773,6.3669,6.3635,6.359,6.359,6.359,6.359,6.359,6.359,6.359,6.359,6.359,6.359,6.359,6.3665,6.3888,6.4445,6.5151,6.5968,6.6748,6.7465,6.8158,6.8542,6.8554,6.8417,6.8008,6.7674,6.7402,6.7055,6.6363,6.5782,6.5782,6.5782,6.5868,6.5954,6.6089,6.6247,6.6296,6.6344,6.6256,6.6118,6.6015,6.5986,6.5904,6.5869,6.5822,6.5175,6.5081,6.4757,6.4746,6.4819,6.4991,6.5247,6.5288,6.5314,6.5428,6.5614,6.6479,6.7239,6.7696,6.8261,6.8826,6.9269,6.936,6.9744,7.0244,7.0437,7.0552,7.0629,7.086,7.0898,5.9893,5.9893,5.9893,5.9893,5.9893,5.9893,5.9893,5.9893,5.9893,5.9893,5.9893,5.9931,6.0159,6.0689,6.0917,6.1667,6.2985,6.3477,6.4159,6.469,6.488,6.4917,6.4917,6.4917,6.4917,6.4917,6.4917,6.4917,6.4917,6.4917,6.4917,6.4917,6.4917,6.4917,6.4871,6.4761,6.467,6.4596,6.4491,6.4354,6.4193,6.4142,6.4048,6.3899,6.3802,6.3725,6.3635,6.359,6.359,6.359,6.359,6.359,6.359,6.359,6.359,6.359,6.359,6.359,6.359,6.3702,6.3962,6.4705,6.5596,6.6562,6.7342,6.8035,6.8468,6.8518,6.8518,6.8195,6.8158,6.796,6.7515,6.6933,6.6673,6.6636,6.6822,6.7057,6.7205,6.7403,6.7464,6.7464,6.7501,6.7513,6.7265,6.6744,6.6705,6.6419,6.6462,6.6642,6.5937,6.5512,6.5407,6.5118,6.5141,6.5238,6.5316,6.5284,6.5305,6.5695,6.617,6.7367,6.828,6.8692,6.9156,6.9735,7.0063,7.0084,7.0244,7.0629,7.0744,7.086,7.0898,7.0898,7.0898,5.978,5.9893,5.9893,5.9893,5.9893,5.9893,5.9893,5.9893,5.9893,5.9893,5.9893,5.9893,5.9893,6.0159,6.0614,6.1439,6.2189,6.2909,6.3818,6.4501,6.4813,6.488,6.4917,6.4917,6.4917,6.4917,6.4917,6.4917,6.4917,6.4917,6.4917,6.4917,6.4917,6.4917,6.4862,6.4817,6.4698,6.4596,6.4492,6.4423,6.4304,6.4166,6.4052,6.3937,6.3856,6.3736,6.3658,6.3602,6.3602,6.359,6.359,6.359,6.359,6.359,6.359,6.359,6.359,6.359,6.359,6.3628,6.3999,6.4631,6.5559,6.6376,6.7156,6.7825,6.8271,6.8531,6.8531,6.8493,6.8456,6.8345,6.7899,6.7639,6.7528,6.7416,6.7751,6.8011,6.8196,6.8382,6.8382,6.8345,6.8382,6.8419,6.8159,6.7602,6.7268,6.6933,6.6809,6.7102,6.6949,6.6783,6.6758,6.6389,6.5757,6.5662,6.5766,6.5813,6.593,6.6223,6.6763,6.7967,6.89,6.9563,7.0067,7.0392,7.0588,7.0615,7.0815,7.0898,7.0898,7.0898,7.0898,7.0898,7.0898,5.9325,5.9893,5.9893,5.9893,5.9893,5.9893,5.9893,5.9893,5.9893,5.9893,5.9893,5.9893,5.9893,5.9893,6.0007,6.0652,6.1591,6.2303,6.306,6.3781,6.4434,6.4775,6.4888,6.4813,6.488,6.4917,6.4917,6.4917,6.4917,6.4917,6.4917,6.4917,6.4917,6.4917,6.4917,6.4835,6.4799,6.4661,6.4558,6.4501,6.4394,6.4257,6.4203,6.4052,6.3926,6.3856,6.3758,6.3647,6.3613,6.359,6.3628,6.3628,6.3739,6.3776,6.3813,6.3962,6.3925,6.3776,6.3813,6.3665,6.3962,6.4036,6.4965,6.6005,6.6859,6.7713,6.8159,6.8493,6.8531,6.8531,6.8493,6.8493,6.8196,6.8196,6.8122,6.8122,6.8271,6.8345,6.8419,6.8456,6.8456,6.8456,6.8456,6.8493,6.8456,6.8122,6.8085,6.7825,6.7751,6.7825,6.7862,6.7836,6.7821,6.7161,6.6355,6.6325,6.6349,6.641,6.6626,6.7058,6.7677,6.8551,6.9413,6.998,7.0361,7.064,7.0829,7.0871,7.0891,7.0898,7.0898,7.0898,7.0898,7.0898,7.0898]}]]